[[{"header":{"parameterUnit":"m.s-1","parameterCategory":1,"la1":30.6,"la2":28.766,"lo1":-90.7593,"lo2":-88.6598,"dy":0.0162,"dx":0.0183,"nx":116,"ny":114,"refTime":"2023-04-21T06:00:00:Z","depth":0,"parameterNumber":2,"parameterNumberName":"U-component_of_WINDS"},"data":[0.0,0.0,0.0,0.0,0.0,0.0,0.0,0.0,0.0,0.0,0.0,0.0,0.0,0.0,0.0,0.0,0.0,0.0,0.0,0.0,0.0,0.0,0.0,0.0,0.0,0.0,0.0,0.0,0.0,0.0,0.0,0.0,0.0,0.0,0.0,0.0,0.0,0.0,0.0,0.0,0.0,0.0,0.0,0.0,0.0,0.0,0.0,0.0,0.0,0.0,0.0,0.0,0.0,0.0,0.0,0.0,0.0,0.0,0.0,0.0,0.0,0.0,0.0,0.0,0.0,0.0,0.0,0.0,0.0,0.0,0.0,0.0,0.0,0.0,0.0,0.0,0.0,0.0,0.0,0.0,0.0,0.0,0.0,0.0,0.0,0.0,0.0,0.0,0.0,0.0,0.0,0.0,0.0,0.0,0.0,0.0,0.0,0.0,0.0,0.0,0.0,0.0,0.0,0.0,0.0,0.0,0.0,0.0,0.0,0.0,0.0,0.0,0.0,0.0,0.0,0.0,0.0,0.0,0.0,0.0,0.0,0.0,0.0,0.0,0.0,0.0,0.0,0.0,0.0,0.0,0.0,0.0,0.0,0.0,0.0,0.0,0.0,0.0,0.0,0.0,0.0,0.0,0.0,0.0,0.0,0.0,0.0,0.0,0.0,0.0,0.0,0.0,0.0,0.0,0.0,0.0,0.0,0.0,0.0,0.0,0.0,0.0,0.0,0.0,0.0,0.0,0.0,0.0,0.0,0.0,0.0,0.0,0.0,0.0,0.0,0.0,0.0,0.0,0.0,0.0,0.0,0.0,0.0,0.0,0.0,0.0,0.0,0.0,0.0,0.0,0.0,0.0,0.0,0.0,0.0,0.0,0.0,0.0,0.0,0.0,0.0,0.0,0.0,0.0,0.0,0.0,0.0,0.0,0.0,0.0,0.0,0.0,0.0,0.0,0.0,0.0,0.0,0.0,0.0,0.0,0.0,0.0,0.0,0.0,0.0,0.0,0.0,0.0,0.0,0.0,0.0,0.0,0.0,0.0,0.0,0.0,0.0,0.0,0.0,0.0,0.0,0.0,0.0,0.0,0.0,0.0,0.0,0.0,0.0,0.0,0.0,0.0,0.0,0.0,0.0,0.0,0.0,0.0,0.0,0.0,0.0,0.0,0.0,0.0,0.0,0.0,0.0,0.0,0.0,0.0,0.0,0.0,0.0,0.0,0.0,0.0,0.0,0.0,0.0,0.0,0.0,0.0,0.0,0.0,0.0,0.0,0.0,0.0,0.0,0.0,0.0,0.0,0.0,0.0,0.0,0.0,0.0,0.0,0.0,0.0,0.0,0.0,0.0,0.0,0.0,0.0,0.0,0.0,0.0,0.0,0.0,0.0,0.0,0.0,0.0,0.0,0.0,0.0,0.0,0.0,0.0,0.0,0.0,0.0,0.0,0.0,0.0,0.0,0.0,0.0,0.0,0.0,0.0,0.0,0.0,0.0,0.0,0.0,0.0,0.0,0.0,0.0,0.0,0.0,0.0,0.0,0.0,0.0,0.0,0.0,0.0,0.0,0.0,0.0,0.0,0.0,0.0,0.0,0.0,0.0,0.0,0.0,0.0,0.0,0.0,0.0,0.0,0.0,0.0,0.0,0.0,0.0,0.0,0.0,0.0,0.0,0.0,0.0,0.0,0.0,0.0,0.0,0.0,0.0,0.0,0.0,0.0,0.0,0.0,0.0,0.0,0.0,0.0,0.0,0.0,0.0,0.0,0.0,0.0,0.0,0.0,0.0,0.0,0.0,0.0,0.0,0.0,0.0,0.0,0.0,0.0,0.0,0.0,0.0,0.0,0.0,0.0,0.0,0.0,0.0,0.0,0.0,0.0,0.0,0.0,0.0,0.0,0.0,0.0,0.0,0.0,0.0,0.0,0.0,0.0,0.0,0.0,0.0,0.0,0.0,0.0,0.0,0.0,0.0,0.0,0.0,0.0,0.0,0.0,0.0,0.0,0.0,0.0,0.0,0.0,0.0,0.0,0.0,0.0,0.0,0.0,0.0,0.0,0.0,0.0,0.0,0.0,0.0,0.0,0.0,0.0,0.0,0.0,0.0,0.0,0.0,0.0,0.0,0.0,0.0,0.0,0.0,0.0,0.0,0.0,0.0,0.0,0.0,0.0,0.0,0.0,0.0,0.0,0.0,0.0,0.0,0.0,0.0,0.0,0.0,0.0,0.0,0.0,0.0,0.0,0.0,0.0,0.0,0.0,0.0,0.0,0.0,0.0,0.0,0.0,0.0,0.0,0.0,0.0,0.0,0.0,0.0,0.0,0.0,0.0,0.0,0.0,0.0,0.0,0.0,0.0,0.0,0.0,0.0,0.0,0.0,0.0,0.0,0.0,0.0,0.0,0.0,0.0,0.0,0.0,0.0,0.0,0.0,0.0,0.0,0.0,0.0,0.0,0.0,0.0,0.0,0.0,0.0,0.0,0.0,0.0,0.0,0.0,0.0,0.0,0.0,0.0,0.0,0.0,0.0,0.0,0.0,0.0,0.0,0.0,0.0,0.0,0.0,0.0,0.0,0.0,0.0,0.0,0.0,0.0,0.0,0.0,0.0,0.0,0.0,0.0,0.0,0.0,0.0,0.0,0.0,0.0,0.0,0.0,0.0,0.0,0.0,0.0,0.0,0.0,0.0,0.0,0.0,0.0,0.0,0.0,0.0,0.0,0.0,0.0,0.0,0.0,0.0,0.0,0.0,0.0,0.0,0.0,0.0,0.0,0.0,0.0,0.0,0.0,0.0,0.0,0.0,0.0,0.0,0.0,0.0,0.0,0.0,0.0,0.0,0.0,0.0,0.0,0.0,0.0,0.0,0.0,0.0,0.0,0.0,0.0,0.0,0.0,0.0,0.0,0.0,0.0,0.0,0.0,0.0,0.0,0.0,0.0,0.0,0.0,0.0,0.0,0.0,0.0,0.0,0.0,0.0,0.0,0.0,0.0,0.0,0.0,0.0,0.0,0.0,0.0,0.0,0.0,0.0,0.0,0.0,0.0,0.0,0.0,0.0,0.0,0.0,0.0,0.0,0.0,0.0,0.0,0.0,0.0,0.0,0.0,0.0,0.0,0.0,0.0,0.0,0.0,0.0,0.0,0.0,0.0,0.0,0.0,0.0,0.0,0.0,0.0,0.0,0.0,0.0,0.0,0.0,0.0,0.0,0.0,0.0,0.0,0.0,0.0,0.0,0.0,0.0,0.0,0.0,0.0,0.0,0.0,0.0,0.0,0.0,0.0,0.0,0.0,0.0,0.0,0.0,0.0,0.0,0.0,0.0,0.0,0.0,0.0,0.0,0.0,0.0,0.0,0.0,0.0,0.0,0.0,0.0,0.0,0.0,0.0,0.0,0.0,0.0,0.0,0.0,0.0,0.0,0.0,0.0,0.0,0.0,0.0,0.0,0.0,0.0,0.0,0.0,0.0,0.0,0.0,0.0,0.0,0.0,0.0,0.0,0.0,0.0,0.0,0.0,0.0,0.0,0.0,0.0,0.0,0.0,0.0,0.0,0.0,0.0,0.0,0.0,0.0,0.0,0.0,0.0,0.0,0.0,0.0,0.0,0.0,0.0,0.0,0.0,0.0,0.0,0.0,0.0,0.0,0.0,0.0,0.0,0.0,0.0,0.0,0.0,0.0,0.0,0.0,0.0,0.0,0.0,0.0,0.0,0.0,0.0,0.0,0.0,0.0,0.0,0.0,0.0,0.0,0.0,0.0,0.0,0.0,0.0,0.0,0.0,0.0,0.0,0.0,0.0,0.0,0.0,0.0,0.0,0.0,0.0,0.0,0.0,0.0,0.0,0.0,0.0,0.0,0.0,0.0,0.0,0.0,0.0,0.0,0.0,0.0,0.0,0.0,0.0,0.0,0.0,0.0,0.0,0.0,0.0,0.0,0.0,0.0,0.0,0.0,0.0,0.0,0.0,0.0,0.0,0.0,0.0,0.0,0.0,0.0,0.0,0.0,0.0,0.0,0.0,0.0,0.0,0.0,0.0,0.0,0.0,0.0,0.0,0.0,0.0,0.0,0.0,0.0,0.0,0.0,0.0,0.0,0.0,0.0,0.0,0.0,0.0,0.0,0.0,0.0,0.0,0.0,0.0,0.0,0.0,0.0,0.0,0.0,0.0,0.0,0.0,0.0,0.0,0.0,0.0,0.0,0.0,0.0,0.0,0.0,0.0,0.0,0.0,0.0,0.0,0.0,0.0,0.0,0.0,0.0,0.0,0.0,0.0,0.0,0.0,0.0,0.0,0.0,0.0,0.0,0.0,0.0,0.0,0.0,0.0,0.0,0.0,0.0,0.0,0.0,0.0,0.0,0.0,0.0,0.0,0.0,0.0,0.0,0.0,0.0,0.0,0.0,0.0,0.0,0.0,0.0,0.0,0.0,0.0,0.0,0.0,0.0,0.0,0.0,0.0,0.0,0.0,0.0,0.0,0.0,0.0,0.0,0.0,0.0,0.0,0.0,0.0,0.0,0.0,0.0,0.0,0.0,0.0,0.0,0.0,0.0,0.0,0.0,0.0,0.0,0.0,0.0,0.0,0.0,0.0,0.0,0.0,0.0,0.0,0.0,0.0,0.0,0.0,0.0,0.0,0.0,0.0,0.0,0.0,0.0,0.0,0.0,0.0,0.0,0.0,0.0,0.0,0.0,0.0,0.0,0.0,0.0,0.0,0.0,0.0,0.0,0.0,0.0,0.0,0.0,0.0,0.0,0.0,0.0,0.0,0.0,0.0,0.0,0.0,0.0,0.0,0.0,0.0,0.0,0.0,0.0,0.0,0.0,0.0,0.0,0.0,0.0,0.0,0.0,0.0,0.0,0.0,0.0,0.0,0.0,0.0,0.0,0.0,0.0,0.0,0.0,0.0,0.0,0.0,0.0,0.0,0.0,0.0,0.0,0.0,0.0,0.0,0.0,0.0,0.0,0.0,0.0,0.0,0.0,0.0,0.0,0.0,0.0,0.0,0.0,0.0,0.0,0.0,0.0,0.0,0.0,0.0,0.0,0.0,0.0,0.0,0.0,0.0,0.0,0.0,0.0,0.0,0.0,0.0,0.0,0.0,0.0,0.0,0.0,0.0,0.0,0.0,0.0,0.0,0.0,0.0,0.0,0.0,0.0,0.0,0.0,0.0,0.0,0.0,0.0,0.0,0.0,0.0,0.0,0.0,0.0,0.0,0.0,0.0,0.0,0.0,0.0,0.0,0.0,0.0,0.0,0.0,0.0,0.0,0.0,0.0,0.0,0.0,0.0,0.0,0.0,0.0,0.0,0.0,0.0,0.0,0.0,0.0,0.0,0.0,0.0,0.0,0.0,0.0,0.0,0.0,0.0,0.0,0.0,0.0,0.0,0.0,0.0,0.0,0.0,0.0,0.0,0.0,0.0,0.0,0.0,0.0,0.0,0.0,0.0,0.0,0.0,0.0,0.0,0.0,0.0,0.0,0.0,0.0,0.0,0.0,0.0,0.0,0.0,0.0,0.0,0.0,0.0,0.0,0.0,0.0,0.0,0.0,0.0,0.0,0.0,0.0,0.0,0.0,0.0,0.0,0.0,0.0,0.0,0.0,0.0,0.0,0.0,0.0,0.0,0.0,0.0,0.0,0.0,0.0,0.0,0.0,0.0,0.0,0.0,0.0,0.0,0.0,0.0,0.0,0.0,0.0,0.0,0.0,0.0,0.0,0.0,0.0,0.0,0.0,0.0,0.0,0.0,0.0,0.0,0.0,0.0,0.0,0.0,0.0,0.0,0.0,0.0,0.0,0.0,0.0,0.0,0.0,0.0,0.0,0.0,0.0,0.0,0.0,0.0,0.0,0.0,0.0,0.0,0.0,0.0,0.0,0.0,0.0,0.0,0.0,0.0,0.0,0.0,0.0,0.0,0.0,0.0,0.0,0.0,0.0,0.0,0.0,0.0,0.0,0.0,0.0,0.0,0.0,0.0,0.0,0.0,0.0,0.0,0.0,0.0,0.0,0.0,0.0,0.0,0.0,0.0,0.0,0.0,0.0,0.0,0.0,0.0,0.0,0.0,0.0,0.0,0.0,0.0,0.0,0.0,0.0,1.3095,1.384,0.0,0.0,0.0,0.0,0.0,0.0,0.0,0.0,0.0,0.0,0.0,0.0,0.0,0.0,0.0,0.0,0.0,0.0,0.0,0.0,0.0,0.0,0.0,0.0,0.0,0.0,0.0,0.0,0.0,0.0,0.0,0.0,0.0,0.0,0.0,0.0,0.0,0.0,0.0,0.0,0.0,0.0,0.0505,0.1411,0.0,0.0,0.0,0.0,0.0,0.0,0.0,0.0,0.0,0.0,0.0,0.0,0.0,0.0,0.0,0.0,0.0,0.0,0.0,0.0,0.0,0.0,0.0,0.0,0.0,0.0,0.0,0.0,0.0,0.0,0.0,0.0,0.0,0.0,0.0,0.0,0.0,0.0,0.0,0.0,0.0,0.0,0.0,0.0,0.0,0.0,0.0,0.0,0.0,0.0,0.0,0.0,0.0,0.0,0.0,0.0,0.0,0.0,0.0,0.0,0.0,0.0,0.0,0.0,0.0,0.0,0.0,0.0,0.0,0.0,1.1663,1.2058,0.0,0.0,0.0,0.0,0.0,0.0,0.0,0.0,0.0,0.0,0.0,0.0,0.0,0.0,0.0,0.0,0.0,0.0,0.0,0.0,0.0,0.0,0.0,0.0,0.0,0.0,0.0,0.0,0.0,0.0,0.0,0.0,0.0,0.0,0.0,0.0,0.0,0.0,0.0,0.0,0.0,0.0,0.0,0.0,0.0,0.0,0.0,0.0,0.0,0.0,0.0,0.0,0.0,0.0,0.0,0.0,0.0,0.0,0.0,0.0,0.0,0.0,0.0,0.0,0.0,0.0,0.0,0.0,0.0,0.0,0.0,0.0,0.0,0.0,0.0,0.0,0.0,0.0,0.0,0.0,0.0,0.0,0.0,0.0,0.0,0.0,0.0,0.0,0.0,0.0,0.0,0.0,0.0,0.0,0.0,0.0,0.0,0.0,0.0,0.0,0.0,0.0,0.0,0.0,0.0,0.0,0.0,0.0,1.0684,1.0684,1.0684,1.0684,1.0684,1.0684,1.0684,1.0684,1.0684,1.0684,0.0,0.0,0.0,0.0,0.0,0.0,0.0,0.0,0.0,0.0,0.0,0.0,0.0,0.0,0.0,0.0,0.0,0.0,0.0,0.0,0.0,0.0,0.0,0.0,0.0,0.0,0.0,0.0,0.0,0.0,0.0,0.0,0.0,0.0,0.0,0.0,0.0,0.0,0.0,0.0,0.0,0.0,0.0,0.0,0.0,0.0,0.0,0.0,0.0,0.0,0.0,0.0,0.0,0.0,0.0,0.0,0.0,0.0,0.0,0.0,0.0,0.0,0.0,0.0,0.0,0.0,0.0,0.0,0.0,0.0,0.0,0.0,0.0,0.0,0.0,0.0,0.0,0.0,0.0,0.0,0.0,0.0,0.0,0.0,0.0,0.0,1.0684,1.0684,0.0,0.0,0.0,0.0,0.0,0.0,0.0,0.0,0.0,0.0,0.0,0.0,0.0,1.0684,1.0684,1.0684,1.0684,1.0684,1.0684,1.0684,1.0684,1.0684,1.0684,1.0684,1.0684,0.0,1.0684,1.0684,0.0,0.0,0.0,0.0,0.0,0.0,0.0,0.0,0.0,0.0,0.0,0.0,0.0,0.0,0.0,0.0,0.0,0.0,0.0,0.0,0.0,0.0,0.0,0.0,0.0,0.0,0.0,0.0,0.0,0.0,0.0,0.0,0.0,0.0,0.0,0.0,0.0,0.0,0.0,0.0,0.0,0.0,0.0,0.0,0.0,0.0,0.0,0.0,0.0,0.0,0.0,0.0,0.0,0.0,0.0,0.0,0.0,0.0,0.0,0.0,0.0,0.0,0.0,0.0,0.0,0.0,0.0,0.0,0.0,0.0,0.0,0.0,0.0,0.0,0.0,0.0,0.0,0.0,0.0,0.0,0.0,0.0,0.0,0.0,0.0,1.0684,1.0684,1.0684,1.0684,1.0684,0.0,0.0,0.0,0.0,0.0,0.0,0.0,0.0,0.0,1.0684,1.0684,1.0684,1.0684,1.0684,1.0684,1.0684,1.0684,1.0684,1.0684,1.0684,1.0684,1.0684,1.0684,1.0684,1.0684,1.0684,1.0684,1.0684,0.0,0.0,0.0,0.0,1.1174,1.1828,0.0,0.0,0.0,0.0,0.0,0.0,0.0,0.0,0.0,0.0,0.0,0.0,0.0,0.0,0.0,0.0,0.0,0.0,0.0,0.0,0.0,0.0,0.0,0.0,0.0,0.0,0.0,0.0,0.0,0.0,0.0,0.0,0.0,0.0,0.0,0.0,0.0,0.0,0.0,0.0101,0.0,0.0,0.0,0.0,0.0,0.0,0.0,0.0,0.0,0.0,0.0,0.0,0.0,0.0,0.0,0.0,0.0,0.0,0.0,0.0,0.0,0.0,0.0,0.0,0.0,0.0,0.0,0.0,0.0,0.0,0.0,0.0,0.0,0.0,0.0,0.0,0.0,1.0684,1.0684,1.0684,1.0684,1.0684,0.0,0.0,0.0,0.0,0.0,0.0,1.0745,1.0812,1.0833,1.0833,1.0833,1.0833,1.0833,1.0833,1.0833,1.0833,1.0833,1.0833,1.0833,1.0833,1.0833,1.0833,1.0833,1.0833,1.0826,1.0751,1.0684,1.0684,1.0684,1.0684,1.0684,1.0684,1.0684,1.0684,0.0,0.0,0.0,0.0,0.0,0.0,0.0,0.0,0.0,0.0,0.0,0.0,0.0,0.0,0.0,0.0,0.0,0.0,0.0,0.0,0.0,0.0,0.0,0.0,0.0,0.0,0.0,0.0,0.0,0.0,0.0,0.0,0.0,0.0,0.0,0.0,0.0,0.0,0.0,0.0,0.0101,0.0,0.0,0.0,0.0,0.0,0.0,0.0,0.0,0.0,0.0,0.0,0.0,0.0,0.0,0.0,0.0,0.0,0.0,0.0,0.0,0.0,0.0,0.0,0.0,0.0,0.0,0.0,0.0,0.0,0.0,0.0,0.0,0.0,0.0,0.0,0.0,0.0,0.0,1.0684,1.0684,0.0,0.0,0.0,0.0,1.0684,1.0819,1.0901,1.0901,1.1063,1.1172,1.1172,1.1172,1.1172,1.1172,1.1172,1.1172,1.1172,1.1172,1.1172,1.1172,1.1172,1.1172,1.1172,1.1172,1.1172,1.1152,1.0839,1.0684,1.0684,1.0684,1.0684,1.0684,1.0684,1.0684,1.0684,0.0,0.0,0.0,0.0,0.0,0.0,0.0,0.0,0.0,0.0,0.0,0.0,0.0,0.0,0.0,0.0,0.0,0.0,0.0,0.0,0.0,0.0,0.0,0.0,0.0,0.0,0.0,0.0,0.0,0.0,0.0,0.0,0.0,0.0,0.0,0.0,0.0,0.0,0.0,0.0,0.0,0.1076,0.0,0.0,0.0,0.0,0.0,0.0,0.0,0.0,0.0,0.0,0.0,0.0,0.0,0.0,0.0,0.0,0.0,0.0,0.0,0.0,0.0,0.0,0.0,0.0,0.0,0.0,0.0,0.0,0.0,0.0,0.0,0.0,0.0,0.0,0.0,0.0,0.0,1.1002,1.1002,0.0,1.1002,1.1002,1.1002,1.1002,1.1056,1.1084,1.1084,1.1166,1.12,1.12,1.12,1.12,1.12,1.12,1.12,1.12,1.12,1.12,1.12,1.12,1.12,1.12,1.12,1.12,1.1186,1.1084,1.1002,1.1002,1.1002,1.0948,1.0833,1.0833,1.0772,1.0684,0.0,0.0,0.0,0.0,0.0,0.0,0.0,0.0,0.0,0.0,0.0,0.0,0.0,0.0,0.0,0.0,0.0,0.0,0.0,0.0,0.0,0.0,0.0,0.0,0.0,0.0,0.0,0.0,0.0,0.0,0.0,0.0,0.0,0.0,0.0,0.0336,0.0908,0.0908,0.0572,0.0,0.0,0.1076,0.2618,0.0,0.0,0.0,0.0,0.0,0.0,0.0,0.0,0.0,0.0,0.0,0.0,0.0,0.0,0.0,0.0,0.0,0.0,0.0,0.0,0.0,0.0,0.0,0.0,0.0,0.0,0.0,0.0,0.0,0.0,0.0,0.0,0.0,0.0,1.12,1.12,1.12,1.12,1.12,1.12,1.12,1.12,1.12,1.1247,1.1274,1.1274,1.1322,1.1314,1.1314,1.1314,1.1314,1.1314,1.1314,1.1314,1.1314,1.1314,1.1314,1.1314,1.1314,1.1314,1.1314,1.1314,1.1314,1.1314,1.1314,1.1314,1.1342,1.124,1.1104,1.0988,1.0988,1.0955,1.0867,0.0,0.0,0.0,0.0,0.0,0.0,0.0,0.0,0.0034,0.0067,0.0101,0.0101,0.0168,0.0168,0.0168,0.0168,0.0168,0.0168,0.0168,0.0168,0.0135,0.0101,0.0034,0.0,0.0,0.0,0.0,0.0,0.0,0.0,0.0,0.0,0.0,0.0,0.0,0.0976,0.262,0.262,0.1614,0.0,0.0135,0.1177,0.2518,0.0,0.0,0.0,0.0,0.0,0.0,0.0,0.0,0.0,0.0,0.0,0.0,0.0,0.0,0.0,0.0,0.0,0.0,0.0,0.0,0.0,0.0,0.0,0.0,0.0,0.0,0.0,0.0,0.0,0.0,0.0,0.0,0.0,1.1234,1.1213,1.1213,1.1213,1.1213,1.1213,1.1213,1.1213,1.1213,1.1213,1.1314,1.1396,1.1396,1.1538,1.1584,1.1584,1.1584,1.1584,1.1584,1.1584,1.1584,1.1584,1.1584,1.1584,1.1584,1.1584,1.1584,1.1584,1.1584,1.1584,1.1584,1.1584,1.1584,1.1556,1.1329,1.1206,1.1206,1.1206,1.12,1.12,0.0,0.0,0.0,0.0,0.0,0.0,0.0,0.0,0.0471,0.178,0.1947,0.245,0.3756,0.3923,0.3923,0.3923,0.3923,0.3923,0.3923,0.3923,0.3337,0.2011,0.0689,0.0,0.0,0.0,0.0,0.0,0.0,0.0,0.0,0.0,0.0,0.0,0.0,0.0276,0.0751,0.0751,0.0441,0.0235,0.2853,0.3423,0.2786,0.0,0.0,0.0,0.0,0.0,0.0,0.0,0.0,0.0,0.0,0.0,0.0,0.0,0.0,0.0,0.0,0.0,0.0,0.0,0.0,0.0,0.0,0.0,0.0,0.0,0.0,0.0,0.0,0.0,0.0,0.0,1.1558,1.1545,1.1497,1.1497,1.1497,1.1497,1.1497,1.1497,1.1497,1.1497,1.1497,1.1497,1.1531,1.1558,1.1558,1.1599,1.1584,1.1584,1.1584,1.1584,1.1584,1.1584,1.1584,1.1584,1.1584,1.1584,1.1584,1.1584,1.1584,1.1584,1.1584,1.1584,1.1584,1.1584,1.1584,1.1577,1.1525,1.1423,1.1363,1.1363,1.1295,1.12,0.0,0.0,0.0,0.0,0.0,0.0,0.2249,0.2294,0.2707,0.3787,0.3978,0.4399,0.5457,0.5559,0.5559,0.5559,0.5559,0.5219,0.4402,0.3584,0.2675,0.1626,0.0558,0.0,0.0,0.0,0.0,0.0,0.0,0.0,0.0,0.0,0.0,0.0,0.0,0.0872,0.2282,0.1488,0.1584,0.2595,0.5454,0.503,0.2812,0.3918,0.4811,0.559,0.6409,0.6715,0.6715,0.6715,0.0,0.0,0.0,0.0,0.0,0.0,0.0,0.0,0.0,0.0,0.0,0.0,0.0,0.0,0.0,0.0,0.0,0.0,0.0,0.0,0.0,0.0,0.0,0.0,1.1584,1.1584,1.1584,1.1584,1.1584,1.1584,1.1584,1.1584,1.1584,1.1584,1.1584,1.1584,1.1638,1.1671,1.1671,1.1769,1.1803,1.1803,1.1803,1.1803,1.1803,1.1803,1.1803,1.1803,1.1803,1.1803,1.1803,1.1803,1.1803,1.1803,1.1803,1.1803,1.1803,1.1803,1.1769,1.1665,0.0,0.0,0.0,0.0,1.143,1.1355,0.0,0.0,0.0,0.0,0.0,0.0,0.5457,0.5542,0.5686,0.5891,0.6026,0.6175,0.6384,0.6418,0.6418,0.6418,0.6418,0.5688,0.3951,0.2032,0.0948,0.0948,0.0774,0.0669,0.0669,0.0669,0.0669,0.0669,0.0669,0.0669,0.0669,0.0669,0.0669,0.0669,0.0669,0.2492,0.5524,0.3783,0.4058,0.5757,0.7374,0.6003,0.3094,0.3619,0.482,0.6453,0.8199,0.8793,0.8793,0.8793,0.0,0.0,0.0,0.0,0.0,0.0,0.0,0.0,0.0,0.0,0.0,0.0,0.0,0.0,0.0,0.0,0.0,0.0,0.0,0.0,0.0,0.0,0.0,0.0,1.1667,1.1667,1.1667,1.1667,1.1667,1.1647,1.1624,1.1667,1.1667,1.1667,1.1667,1.1667,1.1782,1.182,1.182,1.1986,0.0,0.0,0.0,1.2098,1.2098,1.2098,1.2098,1.2098,1.2098,1.2098,1.2098,1.2098,1.2098,1.2098,1.2098,1.2098,1.2098,1.2098,1.1979,1.1807,1.1644,1.1584,1.1584,1.1584,1.1584,1.1584,0.0,0.0,0.0,0.0,0.0,0.0,0.5715,0.576,0.6291,0.7749,0.7976,0.8545,1.0005,1.015,1.015,1.015,1.015,1.0005,0.9625,0.7888,0.6873,0.6873,0.5444,0.4688,0.4688,0.4688,0.4688,0.4688,0.4688,0.4688,0.4688,0.4688,0.4688,0.4688,0.4688,0.509,0.5746,0.5357,0.543,0.5799,0.6145,0.5768,0.539,0.8431,0.9798,1.0184,1.0536,1.0675,1.0675,1.0675,1.0917,1.1151,1.0916,1.1061,0.0,0.0,0.0,0.0,0.0,0.0,0.0,0.0,0.0,0.0,0.0,0.0,0.0,0.0,0.0,0.0,0.0,0.0,0.0,1.2016,1.2016,1.2016,1.2016,1.2016,1.1932,1.1766,1.1898,1.2016,1.2016,1.2016,1.2016,1.2016,1.2036,1.2057,1.2057,1.2084,1.2098,1.2098,1.2098,1.2098,1.2098,1.2098,1.2098,1.2098,1.2098,0.0,1.2098,1.2098,1.2098,1.2098,1.2098,1.2098,1.2098,1.2098,1.2084,1.203,1.1721,1.1584,1.1584,1.1584,1.1584,1.1584,0.0,0.0,0.0,0.0,0.0,0.0,0.8506,0.8557,0.8914,0.9829,0.9994,1.0395,1.1283,1.1389,1.1389,1.1389,1.0495,0.9959,0.9959,0.8195,0.7147,0.7147,0.6293,0.5808,0.5808,0.5808,0.5808,0.5808,0.5808,0.5808,0.5808,0.5808,0.5808,0.5808,0.5808,0.6329,0.7187,0.622,0.6372,0.7261,0.7237,0.7228,0.7363,0.9247,0.9959,1.0065,1.1036,1.1389,1.1389,1.1389,1.1389,1.1402,1.1484,1.1504,1.1518,0.0,0.0,0.0,0.0,0.0,0.0,0.0,0.0,0.0,0.0,0.0,0.0,0.0,0.0,1.1945,1.1945,0.0,1.2098,1.2098,1.2098,1.2098,1.2098,1.2166,1.2159,1.1965,1.205,1.2098,1.2098,1.2098,1.2098,1.2098,1.2173,1.2247,1.2315,1.2352,1.2433,1.2547,1.2554,1.2554,1.2554,1.2554,1.2554,1.2554,1.2554,1.2554,1.2554,1.2554,1.2554,1.2554,1.2554,1.2506,1.2386,1.2275,1.2213,1.2193,1.1932,1.1843,1.1843,1.1843,1.1843,1.1843,0.0,0.0,0.0,0.0,0.0,0.0,0.0,1.1355,1.1436,1.1436,1.1545,1.1584,1.1584,1.1584,1.1584,1.1584,1.0161,0.9249,0.9249,0.7801,0.6934,0.6934,0.6934,0.6934,0.6934,0.6934,0.6934,0.6934,0.6934,0.6934,0.6934,0.6934,0.6934,0.6934,0.6934,0.7801,0.9177,0.7584,0.7837,0.9249,0.9249,0.9249,0.9249,0.9249,0.9249,0.9466,1.1038,1.1584,1.1584,1.1584,1.1584,1.1584,1.1584,1.1584,1.1626,1.1617,1.1624,0.0,0.0,0.0,0.0,0.0,0.0,0.0,0.0,1.2098,1.2098,1.2098,1.2125,1.2145,1.2145,1.2166,1.2193,1.2227,1.2227,1.2241,1.2268,1.2383,1.2411,1.2288,1.2247,1.2241,1.2268,1.2275,1.2275,1.2275,1.239,1.2467,1.2583,1.2705,1.2834,1.2996,1.3003,1.3003,1.3003,1.3003,1.3003,1.3003,1.3003,1.3003,1.3003,1.3003,1.3003,1.3003,1.3003,1.2888,1.2759,1.2522,1.242,1.2445,1.2322,1.2275,1.2261,1.2139,1.2098,1.2098,0.0,0.0,0.0,0.0,0.0,0.0,0.0,0.0,1.1592,1.1592,1.157,1.1584,1.1584,1.1584,1.1584,1.1584,1.1397,1.1289,1.1289,1.1074,1.0966,1.0966,1.0966,1.0966,1.0966,1.0966,1.0966,1.0966,1.0966,1.0966,1.0966,1.0966,1.0966,1.0966,1.0966,1.1074,1.1253,1.1038,1.1074,1.1289,1.1289,1.1289,1.1289,1.1289,1.1289,1.1289,1.1512,1.1584,1.1584,1.1584,1.1584,1.1584,1.1584,1.1584,1.1611,1.1732,1.1773,1.1837,1.2009,1.205,1.205,1.207,1.207,1.2077,0.0,1.2098,1.2098,1.2098,1.2207,1.2264,1.2264,1.2366,1.2494,1.2591,1.2618,1.2705,1.288,1.2914,1.2921,1.2901,1.2739,1.2712,1.2887,1.2901,1.2901,1.2901,1.2914,1.2935,1.2948,1.2969,1.2982,1.3003,1.3003,1.3003,1.3003,1.3003,1.3003,1.3003,1.3003,1.3003,1.3003,1.3003,1.3003,1.3003,1.3003,1.2989,1.2975,1.2941,1.2928,1.2928,1.2907,1.2901,1.2833,1.2295,1.2098,1.2098,0.0,0.0,0.0,0.0,0.0,0.0,0.0,0.0,0.0,1.1584,1.1584,1.1584,1.1584,1.1584,1.1584,1.1584,1.1584,1.1584,1.1584,1.1584,1.1584,1.1584,1.1584,1.1584,1.1584,1.1584,1.1584,1.1584,1.1584,1.1584,1.1584,1.1665,1.1705,1.1712,1.1837,1.1877,1.1877,1.1877,1.1877,1.1877,1.1877,1.1877,1.1877,1.1877,1.1877,1.1857,1.1681,1.1584,0.0,1.1678,1.1705,1.1726,1.185,1.1877,1.1891,1.1945,1.1965,1.1979,1.2084,1.2098,1.2118,1.2213,1.2234,1.2254,1.2298,1.2318,1.2318,1.2318,1.244,1.2542,1.2542,1.2664,1.2833,1.2854,1.2868,1.2888,1.2989,1.3003,1.303,1.3111,1.303,1.2983,1.3003,1.3003,1.3003,1.3003,1.3003,1.3037,1.3118,1.3125,1.3166,1.3214,1.3214,1.3214,1.3214,1.3214,1.3214,1.3214,1.3214,1.3214,1.3214,1.3214,1.3214,1.3214,1.3166,1.3125,1.3118,1.3037,1.3003,1.3003,1.3003,1.3003,1.2969,1.2717,1.2622,1.2622,0.0,0.0,0.0,0.0,0.0,0.0,0.0,0.0,0.0,0.0,1.1584,1.1584,1.1584,1.1617,1.1681,1.1681,1.1714,1.1721,1.1644,1.1721,1.1721,1.1644,1.1721,1.1742,1.1742,1.1742,1.1742,1.1742,1.1742,1.1742,1.1742,1.185,1.1898,1.1898,1.205,1.2098,1.2098,1.2098,1.2098,1.2098,1.2098,1.2098,1.2098,1.2098,1.2098,1.207,1.1816,1.1742,1.1755,1.1857,1.1898,1.1911,1.2064,1.2098,1.2111,1.2152,1.2193,1.222,1.222,1.222,1.2247,1.2318,1.2345,1.2386,1.2528,1.2562,1.2576,1.2623,1.2718,1.2793,1.2793,1.2888,1.3016,1.305,1.3098,1.3139,1.318,1.322,1.3241,1.3342,1.3356,1.3315,1.3214,1.3207,1.3186,1.3186,1.318,1.3247,1.3349,1.3356,1.341,1.3519,1.3519,1.3519,1.3519,1.3519,1.3519,1.3519,1.3519,1.3519,1.3519,1.3519,1.3519,1.3512,1.3403,1.3356,1.3349,1.3247,1.3207,1.3207,1.3207,1.322,1.3186,1.3186,1.3468,1.3869,0.0,0.0,0.0,0.0,0.0,0.0,0.0,0.0,0.0,0.0,0.0,0.0,0.0,1.1705,1.1786,1.1786,1.1965,1.1986,1.18,1.1965,1.1979,1.1793,1.1965,1.2084,1.2084,1.2084,1.2084,1.2084,1.2084,1.2084,1.2084,1.2091,1.2091,1.2091,1.2098,1.2098,1.2098,1.2098,1.2098,1.2098,1.2098,1.2098,1.2098,1.2098,1.2098,1.2098,1.2091,1.2084,1.2084,1.2091,1.2091,1.2091,1.2098,1.2098,1.2132,1.2275,1.2379,1.2488,1.2488,1.2488,1.2488,1.2494,1.2494,1.2535,1.2645,1.2686,1.2766,1.2955,1.2989,1.2996,1.2996,1.2996,1.305,1.3186,1.3288,1.3437,1.3545,1.3687,1.3774,1.3774,1.3774,1.3774,1.3774,1.3646,1.3565,1.3565,1.3693,1.3774,1.3774,1.3774,1.3781,1.3781,1.3781,1.3781,1.3781,1.3781,1.3781,1.3781,1.3781,1.3781,1.3781,1.3781,1.3781,1.3781,1.3781,1.3774,1.3774,1.3774,1.3774,1.3774,1.3774,1.3687,1.3565,1.3565,1.4672,1.6098,0.0,0.0,0.0,0.0,0.0,0.0,0.0,0.0,0.0,0.0,0.0,0.0,0.0,0.0,0.0,0.0,1.207,1.2077,1.1986,1.207,1.2077,1.1986,1.207,1.2098,1.2098,1.2098,1.2098,1.2098,1.2098,1.2098,1.2098,1.2207,1.221,1.2254,1.2311,1.2352,1.2352,1.2352,1.2352,1.2352,1.2352,1.2352,1.2352,1.2352,1.2352,1.2352,0.0,1.2268,1.2118,1.222,1.221,1.2268,1.2325,1.2352,1.2366,1.2413,1.2467,1.2522,1.2623,1.2611,1.2678,1.2779,1.2846,1.286,1.2874,1.2881,1.2941,1.2989,1.3077,1.3173,1.3234,1.3336,1.3451,1.3593,1.3661,1.3666,1.372,1.3768,1.3795,1.3795,1.3795,1.3795,1.3795,1.3754,1.3727,1.3727,1.3774,1.3795,1.3795,1.3795,1.3795,1.3795,1.3795,1.3795,1.3795,1.3795,1.3795,1.3795,1.3795,1.3795,1.3795,1.3795,1.3795,1.3795,1.3795,1.3795,1.3795,1.3795,1.4728,1.6111,1.6111,1.7045,1.8373,1.8373,1.9649,2.0884,0.0,0.0,0.0,0.0,0.0,0.0,0.0,0.0,0.0,0.0,0.0,0.0,0.0,0.0,0.0,0.0,0.0,1.2234,1.2186,1.2227,1.2234,1.2186,1.2227,1.2254,1.2254,1.2254,1.2254,1.2254,1.2254,1.2254,1.2223,1.2318,1.2366,1.2372,1.2461,1.2501,1.2501,1.2501,1.2501,1.2501,1.2501,1.2501,1.2501,1.2501,1.2501,0.0,1.2501,1.2379,1.2275,1.2332,1.2366,1.2379,1.2474,1.2535,1.2583,1.2583,1.2623,1.2684,1.2786,1.2813,1.2834,1.2975,1.3003,1.3016,1.3064,1.3118,1.3173,1.3186,1.3315,1.3444,1.3539,1.3599,1.3693,1.3781,1.3842,1.3926,1.3926,1.3966,1.3964,1.3964,1.3964,1.3964,1.3964,1.3964,1.3937,1.3926,1.393,1.3964,1.3964,1.3964,1.3964,1.3964,1.3964,1.3964,1.3964,1.3964,1.3964,1.3964,1.3964,1.3964,1.3964,1.3964,1.3964,1.3964,1.3964,1.3964,1.3964,1.3964,1.4858,1.6223,1.6223,1.7118,1.8412,1.8412,2.0256,2.2439,0.0,0.0,0.0,0.0,0.0,0.0,0.0,0.0,0.0,0.0,0.0,0.0,0.0,0.0,0.0,0.0,0.0,0.0,1.2311,1.2427,1.244,1.2305,1.2427,1.2501,1.2501,1.2501,1.2501,1.2501,1.2501,1.2501,1.2501,1.2501,1.2501,1.2501,1.2501,1.2501,1.2501,1.2501,1.2501,1.2501,1.2501,1.2501,1.2501,1.2501,1.2501,1.2501,1.2508,1.2515,1.2515,1.2508,1.2501,1.2501,1.2508,1.261,1.2693,1.2699,1.2847,1.3003,1.3009,1.3009,1.3016,1.303,1.3037,1.3071,1.3214,1.3315,1.3464,1.3565,1.3707,1.3802,1.3808,1.3808,1.3815,1.3822,1.3987,1.4125,1.4125,1.4211,1.4299,1.4299,1.4299,1.4299,1.4299,1.4299,1.4238,1.4139,1.4217,1.4299,1.4299,1.4299,1.4299,1.4299,1.4299,1.4299,1.4299,1.4299,1.4299,1.4299,1.4299,1.4299,1.4299,1.4299,1.4299,1.4299,1.4299,1.4387,1.4476,1.4476,1.4564,1.4646,1.4778,1.4731,1.4641,1.4771,1.7434,2.1306,0.0,0.0,0.0,0.0,0.0,0.0,0.0,0.0,0.0,0.0,0.0,0.0,0.0,0.0,0.0,0.0,0.0,0.0,1.2447,1.2481,1.2488,1.2447,1.2481,1.2501,1.2501,1.2501,1.2501,1.2501,1.2501,1.2501,1.2501,1.2501,1.2501,1.2501,1.2501,1.2501,1.2501,1.2501,1.2501,1.2501,1.2501,1.2501,1.2501,1.2501,1.2501,1.2515,1.2591,1.2632,1.2618,1.2542,1.2501,1.2522,1.2637,1.2659,1.2713,1.2868,1.2969,1.3023,1.3132,1.3159,1.3214,1.3403,1.3458,1.3498,1.3641,1.366,1.37,1.3734,1.3774,1.3835,1.3994,1.4014,1.4048,1.4163,1.4217,1.4245,1.4245,1.4278,1.4299,1.4299,1.4299,1.4299,1.4299,1.4299,1.4285,1.4245,1.4278,1.4299,1.4299,1.4299,1.4299,1.4299,1.4299,1.4299,1.4299,1.4299,1.4299,1.4299,1.4299,1.4299,1.4299,1.4299,1.4299,1.4299,1.4299,1.53,1.6896,1.6896,1.7894,1.9628,2.1361,2.202,2.2214,2.3977,2.5313,2.6373,0.0,0.0,0.0,0.0,0.0,0.0,0.0,0.0,0.0,0.0,0.0,0.0,0.0,0.0,0.0,0.0,0.0,0.0,0.0,1.2501,1.2501,1.2501,1.2501,1.2501,1.2501,1.2501,1.2501,1.2501,1.2501,1.2501,1.2501,1.2501,1.2501,1.2501,1.2501,1.2501,1.2501,1.2501,1.2501,0.0,0.0,1.2603,1.261,1.2678,1.2705,1.2718,1.28,1.2834,1.282,1.2732,1.2657,1.2617,1.2665,1.282,1.2942,1.3071,1.3193,1.3275,1.3349,1.3417,1.3505,1.3639,1.368,1.37,1.3781,1.3849,1.3939,1.3939,1.3994,1.4068,1.4156,1.417,1.4197,1.4285,1.4299,1.4299,1.4299,1.4299,1.4299,1.4299,1.4299,1.4299,1.4299,1.4299,1.4299,1.4299,1.4299,1.4299,1.4299,1.4299,1.4299,1.4299,1.4299,1.4299,1.4299,1.4299,1.4299,1.4299,1.4299,1.4299,1.4343,1.5389,1.5256,1.4431,1.6473,1.7501,1.7894,1.8889,2.0053,2.1351,2.2654,2.3169,2.3298,2.4636,2.5756,2.6673,0.0,0.0,0.0,0.0,0.0,0.0,0.0,0.0,0.0,0.0,0.0,0.0,0.0,0.0,0.0,0.0,0.0,0.0,0.0,0.0,1.2501,1.2501,1.2501,1.2501,1.2501,1.2501,1.2501,1.2501,1.2501,1.2501,1.2501,1.2501,1.2501,1.2501,1.2501,1.2501,1.2501,1.2522,1.2528,1.2549,1.2698,1.272,1.2779,0.0,1.3003,1.3003,1.3023,1.303,1.303,1.303,1.2888,1.2726,1.2747,1.2963,1.322,1.322,1.3424,1.3592,1.3612,1.3707,1.3802,1.3822,1.3829,1.3835,1.3856,1.4007,1.4146,1.4146,1.4204,1.4299,1.4299,1.4299,1.4299,1.4299,1.4299,1.4299,1.4299,1.4299,1.4299,1.4299,1.4299,1.4299,1.4299,1.4299,1.4299,1.4299,1.4299,1.4299,1.4299,1.4299,1.4299,1.4299,1.4299,1.4299,1.4299,1.4299,1.4299,1.4299,1.4299,1.4299,1.4387,1.6422,1.6254,1.452,1.8549,1.9324,1.7929,1.9922,2.0746,2.0832,2.1437,2.148,2.1264,2.1911,2.3427,2.516,0.0,0.0,0.0,0.0,0.0,0.0,0.0,0.0,0.0,0.0,1.2467,1.2474,0.0,0.0,0.0,0.0,0.0,0.0,0.0,0.0,0.0,1.2501,1.2501,1.2501,1.2501,1.2501,1.2501,1.2501,1.2501,1.2501,1.2501,1.2501,1.2501,1.2501,1.2501,1.2501,1.2508,1.2637,1.2652,1.2665,1.2861,1.2962,1.2962,1.2989,0.0,0.0,1.3132,1.318,1.318,1.318,1.3077,1.2982,1.3098,1.3132,1.322,1.3478,1.3545,1.3612,1.3727,1.3781,1.3829,1.4,1.4034,1.4061,1.419,1.4245,1.4258,1.4258,1.4278,1.4299,1.4299,1.4299,1.4299,1.4299,1.4299,1.4299,1.4299,1.4299,1.4299,1.4299,1.4299,1.4299,1.4299,1.4299,1.4299,1.4299,1.4299,1.4299,1.4299,1.4299,1.4299,1.4299,1.4299,1.4299,1.4299,1.4299,1.4299,1.4299,1.4299,1.4299,1.4299,1.4734,1.469,1.4343,1.5168,1.6378,1.7842,1.8235,1.8409,1.8758,2.2611,2.2912,2.1653,2.5543,2.7223,2.7575,0.0,0.0,0.0,0.0,0.0,0.0,0.0,1.2257,1.2427,1.2494,1.2501,1.2501,1.2501,1.2501,1.2501,0.0,0.0,0.0,0.0,0.0,0.0,0.0,1.2501,1.2501,1.2501,1.2501,1.2501,1.2501,0.0,1.2501,1.2501,1.2501,1.2501,1.2508,1.2583,1.2584,1.263,1.2786,1.2854,1.2861,1.305,1.3111,1.3118,0.0,0.0,0.0,1.3268,1.3295,1.3295,1.3295,1.3247,1.3227,1.3214,1.3281,1.3437,1.3545,1.3736,1.3878,1.3939,1.4021,1.4095,1.417,1.419,1.4211,1.4285,1.4299,1.4299,1.4299,1.4299,1.4299,1.4299,1.4299,1.4299,1.4299,1.4299,1.4299,1.4299,1.4299,1.4299,1.4299,1.4299,1.4326,1.4401,1.4407,1.4441,1.4478,1.4529,1.4462,1.4306,1.4299,1.4299,1.4299,1.4299,1.4299,1.4299,1.4299,1.4299,1.4299,1.4299,1.4299,1.4343,1.5557,1.5469,1.4431,1.686,1.7851,1.7894,1.9097,2.0269,2.161,2.3824,2.4764,2.5105,2.7363,2.8179,2.8179,0.0,0.0,0.0,0.0,0.0,0.0,0.0,1.2311,1.2501,1.2501,1.2501,1.2501,1.2501,1.2501,1.2501,0.0,0.0,0.0,0.0,0.0,0.0,0.0,0.0,0.0,1.2501,0.0,0.0,1.2501,1.2501,0.0,0.0,0.0,0.0,0.0,1.2638,1.2706,1.2786,1.2942,1.305,0.0,0.0,1.322,1.3234,0.0,0.0,0.0,0.0,1.3403,1.3403,1.3403,1.3403,1.3376,1.3302,1.341,1.3592,1.3626,1.3865,1.4125,1.4159,1.4211,1.4299,1.4299,1.4299,1.4299,1.4299,1.4299,1.4299,1.4299,1.4299,1.4299,1.4299,1.4299,1.4299,1.4299,1.4299,1.4299,1.4299,1.4299,1.4312,1.434,1.4346,1.4401,1.455,1.4563,1.4611,1.4687,1.4694,1.4593,1.4407,1.4394,1.4394,1.4394,1.4394,1.4394,1.4394,1.4394,1.4394,1.4394,1.4394,1.4394,1.4438,1.631,1.6141,1.4572,1.8233,1.8795,1.7265,1.9057,2.1162,2.3333,2.3761,2.5373,2.749,2.801,2.8179,2.8179,0.0,0.0,0.0,0.0,0.0,0.0,0.0,1.2311,1.2501,1.2501,1.2501,1.2501,1.2501,1.2501,1.2501,0.0,0.0,0.0,0.0,0.0,0.0,0.0,0.0,0.0,0.0,0.0,0.0,1.2501,1.2501,0.0,0.0,0.0,0.0,0.0,0.0,1.2807,1.2989,1.3132,0.0,0.0,0.0,0.0,0.0,0.0,0.0,0.0,0.0,1.3403,1.3403,1.3403,1.3403,1.3397,1.3383,1.3492,1.3612,1.3741,1.3939,1.4146,1.4245,1.4292,1.4299,1.4299,1.4299,1.4299,1.4299,1.4299,1.4299,1.4299,1.4299,1.4299,1.4299,1.4299,1.4299,1.4299,1.4299,1.4299,1.4299,1.4299,1.4346,1.4475,1.4489,1.455,1.466,1.4674,1.4681,1.4694,1.4694,1.4681,1.4654,1.4654,1.4654,1.4654,1.4654,1.4654,1.4654,1.4654,1.4654,1.4654,1.4654,1.4654,1.4654,1.4881,1.4874,1.4699,1.5101,1.5192,1.4996,1.5075,1.6522,1.8787,2.0781,2.2955,2.5288,2.7405,2.8179,2.8179,0.0,0.0,0.0,0.0,0.0,0.0,1.2098,1.2311,1.2501,1.2501,1.2501,1.2501,1.2501,1.2501,1.2501,1.2501,0.0,0.0,0.0,0.0,0.0,0.0,0.0,0.0,0.0,0.0,1.2501,1.2501,1.2501,0.0,0.0,0.0,0.0,0.0,0.0,1.2949,1.3139,1.3247,0.0,0.0,0.0,0.0,0.0,0.0,0.0,0.0,0.0,0.0,1.3403,1.3403,1.3403,1.3403,1.3403,1.3566,1.3727,1.3781,1.4014,1.4224,1.4285,1.4299,1.4299,1.4299,1.4299,1.4299,1.4299,1.4299,1.4299,1.4299,1.4299,1.4299,1.4299,1.4299,1.4299,1.4299,1.4299,1.4299,1.4299,1.4373,1.4448,1.4502,1.459,1.4706,1.4862,1.4875,1.4916,1.4997,1.5004,1.5004,1.5004,1.4789,1.4694,1.4694,1.4694,1.4694,1.4694,1.4694,1.4694,1.4694,1.4694,1.4694,1.4694,1.4694,1.4694,1.4694,1.4694,1.4694,1.4824,1.6235,1.8211,2.0594,2.2942,2.5279,2.7409,2.8327,2.8684,2.8684,0.0,0.0,0.0,0.0,0.0,1.2118,1.2159,1.2338,1.2501,1.2501,1.2501,1.2501,1.2501,1.2501,1.2501,1.2501,1.2501,0.0,0.0,0.0,0.0,0.0,0.0,0.0,0.0,0.0,1.2501,1.2501,1.2501,1.2501,0.0,0.0,1.261,1.28,0.0,0.0,0.0,0.0,0.0,0.0,0.0,0.0,0.0,0.0,0.0,0.0,0.0,0.0,0.0,0.0,0.0,1.341,1.3451,1.3641,1.3795,1.3795,1.4055,1.4299,1.4299,1.4299,1.4299,1.4299,1.4299,1.4299,1.4299,1.4299,1.4299,1.4299,1.4299,1.4299,1.4299,1.4299,1.4299,1.4299,1.4299,1.4312,1.4353,1.4448,1.4543,1.4638,1.474,1.4869,1.5018,1.5078,1.5119,1.5174,1.5181,1.5181,1.5181,1.4984,1.4869,1.4869,1.4869,1.4869,1.4869,1.4869,1.4869,1.4869,1.4869,1.4869,1.4869,1.4869,1.4869,1.4869,1.4869,1.4869,1.5,1.6674,1.8759,2.1038,2.2721,2.4837,2.6928,2.7653,2.7466,2.7059,0.0,0.0,0.0,0.0,0.0,0.0,1.2264,1.2413,1.2501,1.2501,1.2501,1.2501,1.2501,1.2501,1.2501,1.2501,1.2501,0.0,0.0,0.0,0.0,0.0,0.0,0.0,0.0,0.0,1.2501,1.2501,1.2501,1.2501,1.2501,1.2501,1.2664,1.3003,0.0,0.0,0.0,0.0,0.0,0.0,0.0,0.0,1.3403,0.0,0.0,0.0,0.0,0.0,0.0,0.0,0.0,0.0,0.0,1.368,1.3795,1.3795,1.4055,1.4299,1.4299,1.4299,1.4299,1.4299,1.4299,1.4299,1.4299,1.4299,1.4299,1.4299,1.4299,1.4299,1.4299,1.4299,1.4299,1.4299,1.4299,1.4346,1.4489,1.4509,1.4624,1.4976,1.5017,1.5071,1.5167,1.5181,1.5181,1.5181,1.5181,1.5181,1.5181,1.5181,1.5174,1.5174,1.5174,1.5174,1.5174,1.5174,1.5174,1.5174,1.5174,1.5174,1.5174,1.5174,1.5174,1.5174,1.5174,1.5174,1.5167,1.5071,1.6374,1.8438,1.8307,1.9707,2.2056,2.4528,2.3898,2.2457,0.0,0.0,0.0,0.0,0.0,0.0,0.0,1.2413,1.2501,1.2501,1.2501,1.2501,1.2501,1.2501,1.2501,1.2501,1.2501,0.0,0.0,0.0,0.0,0.0,0.0,0.0,0.0,0.0,1.2501,1.2501,1.2501,1.2501,1.2501,1.261,1.2766,1.3003,1.3105,1.3214,0.0,0.0,0.0,0.0,0.0,1.3403,1.3403,0.0,0.0,0.0,0.0,0.0,0.0,0.0,0.0,0.0,0.0,0.0,0.0,1.3966,1.4143,1.4299,1.4299,1.4299,1.4299,1.4299,1.4299,1.4299,1.4299,1.4299,1.4299,1.4299,1.4299,1.4299,1.4299,1.4299,1.4299,1.4299,1.4299,1.4346,1.4489,1.4604,1.474,1.4989,1.5059,1.5133,1.5181,1.5276,1.5337,1.5337,1.5438,1.5445,1.5445,1.5445,1.5398,1.5187,1.5181,1.5181,1.5181,1.5181,1.5181,1.5181,1.5181,1.5181,1.5181,1.5181,1.5181,1.5181,1.5181,1.5181,1.5315,1.6971,1.8092,1.8908,2.0501,2.1569,2.2343,2.3116,2.2934,2.248,0.0,0.0,0.0,0.0,0.0,0.0,0.0,1.2447,1.2501,1.2501,1.2501,1.2501,1.2501,1.2501,1.2501,1.2501,1.2501,0.0,0.0,0.0,0.0,0.0,0.0,0.0,1.2501,1.2501,1.2501,1.2501,1.2501,1.2501,1.2508,1.2657,1.2813,1.3009,1.3152,1.3254,0.0,0.0,0.0,0.0,1.3403,1.3403,1.3403,0.0,0.0,0.0,0.0,0.0,0.0,0.0,0.0,0.0,0.0,0.0,0.0,0.0,1.4224,1.4299,1.4299,1.4299,1.4299,1.4299,1.4299,1.4299,1.4299,1.4299,1.4299,1.4299,1.4299,1.4299,1.4299,1.4299,1.4299,1.4299,1.4346,1.4428,1.4577,1.4733,1.4882,1.5031,1.5181,1.5269,1.5269,1.5404,1.5499,1.5499,1.5539,1.5593,1.5593,1.5593,1.5506,1.5364,1.5357,1.5357,1.5357,1.5357,1.5357,1.5357,1.5357,1.5357,1.5357,1.5357,1.5357,1.5357,1.5357,1.5323,0.0,1.6936,1.7546,1.7623,1.9149,1.9752,1.9844,2.0806,2.0529,2.003,0.0,0.0,0.0,0.0,0.0,0.0,0.0,1.2501,1.2501,1.2501,1.2501,1.2501,1.2501,1.2501,1.2501,1.2501,0.0,0.0,0.0,0.0,0.0,0.0,0.0,0.0,1.2501,1.2501,1.2501,1.2501,1.2501,1.2508,1.2522,1.2671,1.2827,1.3023,1.3166,1.3268,0.0,0.0,0.0,0.0,1.3403,1.3403,0.0,0.0,0.0,0.0,0.0,0.0,0.0,0.0,0.0,0.0,0.0,0.0,0.0,0.0,0.0,0.0,0.0,1.4299,1.4299,1.4299,1.4299,1.4299,1.4299,1.4299,0.0,1.4299,1.4299,1.4299,1.4299,1.4299,1.4306,1.4312,1.4428,1.457,1.4687,1.4896,1.5052,1.5181,1.5337,1.5425,1.5425,1.5519,1.5607,1.5607,1.5614,1.5621,1.5621,1.5621,1.5621,1.5621,1.5621,1.5614,1.5593,1.5593,1.5593,1.5593,1.5593,1.5593,1.5593,1.5593,1.5593,1.5593,1.5593,1.5512,1.5425,1.5425,1.5343,1.5215,1.5215,1.5215,1.549,1.7803,1.7203,1.5866,0.0,0.0,0.0,0.0,0.0,0.0,0.0,0.0,0.0,0.0,1.2501,1.2501,1.2501,1.2501,1.2501,0.0,0.0,0.0,0.0,0.0,0.0,0.0,0.0,0.0,1.2501,1.2501,1.2501,1.2501,1.2501,1.2562,1.2678,1.2834,1.3023,1.3173,1.3281,1.337,0.0,0.0,0.0,0.0,1.3403,1.3403,0.0,0.0,0.0,0.0,1.3403,1.3403,0.0,0.0,0.0,0.0,0.0,0.0,0.0,0.0,1.4299,1.4299,1.4299,0.0,1.4299,1.4299,1.4299,1.4299,0.0,1.4299,1.4299,1.4299,1.4299,1.4299,1.4299,1.4299,1.4333,1.4441,1.4489,1.4604,1.4882,1.514,1.5316,1.535,1.5493,1.5539,1.5539,1.5716,1.5854,1.5854,1.5913,1.5974,1.5974,1.5974,1.5974,1.5974,1.5974,1.5872,1.5593,1.5593,1.5593,1.5593,1.5593,1.5593,1.5593,1.5593,1.5593,1.5593,1.5593,1.5566,1.5539,1.5539,1.5512,1.5533,1.5533,1.5533,1.5581,1.6143,1.6007,1.5657,0.0,0.0,0.0,0.0,0.0,0.0,0.0,0.0,0.0,0.0,0.0,1.2501,1.2501,1.2501,0.0,0.0,0.0,0.0,0.0,0.0,0.0,0.0,0.0,1.2501,1.2501,1.2501,1.2501,1.2501,1.2569,1.2651,1.2693,1.2956,1.3139,1.322,1.3336,1.3403,0.0,0.0,0.0,1.3403,1.3403,0.0,0.0,0.0,0.0,0.0,1.3403,1.3403,0.0,1.3403,1.3505,1.3612,0.0,0.0,0.0,0.0,1.4299,1.4299,1.4299,1.4299,1.4299,1.4299,1.4299,1.4299,1.4299,1.4299,1.4299,1.4299,1.4299,1.4319,1.4387,1.4394,1.4441,1.459,1.4679,1.4828,1.5133,1.5309,1.5438,1.5458,1.5649,1.5737,1.5737,1.5872,1.601,1.601,1.6085,1.6083,1.6083,1.6083,1.6083,1.6083,1.6083,1.6001,1.5845,1.5845,1.5845,1.5845,1.5845,1.5845,1.5845,1.5845,1.5845,1.5845,1.5845,1.5805,1.5737,1.5737,1.5696,1.5593,1.5593,1.5593,1.5593,1.5593,1.5593,1.558,0.0,0.0,0.0,0.0,0.0,0.0,0.0,0.0,0.0,0.0,0.0,0.0,0.0,0.0,0.0,0.0,0.0,0.0,0.0,0.0,0.0,0.0,1.2501,1.2501,1.2501,1.2522,1.2535,1.2535,1.2691,1.2779,1.276,1.3057,1.3227,1.3254,1.3342,1.3403,0.0,0.0,1.3403,1.3403,1.3403,0.0,0.0,0.0,0.0,0.0,0.0,0.0,0.0,1.3424,1.3539,1.3646,1.3788,0.0,0.0,0.0,0.0,0.0,1.4299,1.4299,1.4299,1.4299,1.4299,1.4299,1.4299,1.4299,1.4299,1.4299,1.4319,1.4367,1.4489,1.4529,1.4597,1.4708,1.4923,1.5126,1.5377,1.5452,1.5527,1.5607,1.5798,1.5935,1.5935,1.6008,1.6083,1.6083,1.6083,1.6083,1.6083,1.6083,1.6083,1.6083,1.6083,1.6083,1.6083,1.6083,1.6083,1.6083,1.6083,1.6083,1.6083,1.6083,1.6083,1.6083,1.6083,1.6058,1.5935,1.5935,1.5818,1.5661,1.5661,1.5661,1.5661,1.5661,1.5661,1.5654,0.0,0.0,0.0,0.0,0.0,0.0,0.0,0.0,0.0,0.0,0.0,0.0,0.0,0.0,0.0,0.0,0.0,0.0,0.0,0.0,0.0,1.2501,1.2501,1.2501,1.2501,1.263,1.2659,1.2659,1.2847,1.303,1.3105,1.3193,1.3241,1.337,1.339,1.3403,1.3403,0.0,1.3403,1.3403,1.3403,0.0,0.0,0.0,0.0,0.0,0.0,0.0,0.0,1.3553,1.3646,1.3795,1.3987,0.0,0.0,0.0,0.0,0.0,1.4299,1.4299,1.4299,1.4299,1.4299,1.4299,1.4299,1.4299,1.4299,1.4299,1.4394,1.4482,1.4509,1.4572,1.4708,1.4909,1.5167,1.5357,1.5404,1.5628,1.5847,1.5867,1.6003,1.6049,1.6049,1.6069,1.6083,1.6083,1.6083,1.6083,1.6083,1.6083,1.6083,1.6083,1.6083,1.6083,1.6083,1.6083,1.6083,1.6083,1.6083,1.6083,1.6083,1.6083,1.6083,1.6083,1.6083,1.6069,1.6049,1.6049,1.6035,1.6015,1.6015,1.6015,1.6015,1.6015,1.6015,1.5995,0.0,0.0,0.0,0.0,0.0,0.0,0.0,0.0,0.0,0.0,0.0,0.0,0.0,0.0,0.0,0.0,0.0,0.0,0.0,0.0,1.2501,1.2501,1.2583,1.2623,1.2623,1.2652,1.2733,1.2854,1.3043,1.3152,1.3214,1.3254,1.3336,1.3403,1.3403,1.3403,1.3403,1.3403,1.3403,1.3403,0.0,0.0,0.0,0.0,0.0,0.0,0.0,0.0,0.0,0.0,1.3777,1.398,1.4048,0.0,0.0,0.0,0.0,0.0,1.4299,1.4299,1.4299,1.4299,1.4299,1.4299,1.4299,1.436,1.4414,1.4414,1.4529,1.4658,1.4746,1.4814,1.4943,1.5174,1.5391,1.556,1.5642,1.5813,1.5935,1.6017,1.6042,1.6083,1.6083,1.6083,1.6083,1.6083,1.6083,1.6083,1.6083,1.6083,1.6083,1.6083,1.6083,1.6083,1.6083,1.6083,1.6083,1.6083,1.6083,1.6083,1.6083,1.6083,1.6083,1.6083,1.6083,1.6083,1.6083,1.6083,1.6083,1.6083,1.6083,1.6083,1.6083,1.6083,1.6083,1.6069,0.0,0.0,0.0,0.0,0.0,0.0,0.0,0.0,0.0,0.0,0.0,0.0,0.0,0.0,0.0,0.0,0.0,0.0,0.0,1.2501,1.2515,1.2556,1.2664,1.2693,1.2693,1.28,1.2888,1.305,1.3193,1.3268,1.3268,1.3349,1.3403,1.3403,1.3403,1.3403,1.3403,1.3403,1.3403,1.3403,0.0,0.0,0.0,0.0,0.0,0.0,0.0,0.0,0.0,0.0,0.0,0.0,0.0,0.0,0.0,1.4299,1.4299,1.4299,1.4299,1.4299,1.4299,1.4299,1.4299,1.4306,1.434,1.4434,1.4523,1.4557,1.4685,1.4828,1.495,1.5025,1.516,1.5418,1.5588,1.573,1.5888,1.5935,1.5996,1.6069,1.6083,1.6083,1.6083,1.6083,1.6083,1.6083,1.6083,1.6083,1.6083,1.6083,1.6083,1.6083,1.6083,1.6083,1.6083,1.6083,1.6083,1.6083,1.6083,1.6083,1.6083,1.6083,1.6083,1.6083,1.6083,1.6083,1.6083,1.6083,1.6083,1.6083,1.6083,1.6083,1.6083,1.6083,1.6083,1.6083,0.0,0.0,0.0,0.0,0.0,0.0,0.0,0.0,0.0,0.0,0.0,0.0,0.0,0.0,0.0,0.0,0.0,0.0,0.0,1.2501,1.2562,1.2665,1.2686,1.2693,1.2693,1.2996,1.3186,1.32,1.3308,1.3383,1.3383,1.3397,1.3403,1.3403,1.3403,1.3403,1.3403,1.3403,1.3403,1.3403,1.3403,0.0,0.0,0.0,0.0,0.0,0.0,0.0,0.0,0.0,0.0,0.0,0.0,0.0,1.4299,1.4299,1.4299,1.4299,1.4299,1.4299,1.4299,1.4299,1.4299,1.4333,1.4468,1.4502,1.455,1.4647,1.4848,1.4957,1.5017,1.5194,1.5432,1.5546,1.5744,1.5888,1.5901,1.6024,1.6069,1.6083,1.6083,1.6083,1.6083,1.6083,1.6083,1.6083,1.6083,1.6083,1.6083,1.6083,1.6083,1.6083,1.6083,1.6083,1.6083,1.6083,1.6083,1.6083,1.6083,1.6083,1.6083,1.6083,1.6083,1.6083,1.6083,1.6083,1.6083,1.6083,1.6083,1.6083,1.6083,1.6083,1.6083,1.6083,1.6083,1.6083,0.0,0.0,0.0,0.0,0.0,0.0,0.0,0.0,0.0,0.0,0.0,0.0,0.0,0.0,0.0,0.0,0.0,0.0,0.0,1.2589,1.2632,1.2686,1.2908,1.3003,1.3003,1.3159,1.322,1.3315,1.337,1.3403,1.3403,1.3403,1.3403,1.3403,1.3403,1.3403,1.3403,1.3403,1.3403,1.3403,1.3403,1.3403,0.0,0.0,0.0,0.0,0.0,0.0,0.0,0.0,1.418,1.4224,1.4285,1.4299,1.4299,1.4299,1.4299,1.4299,1.4299,1.4299,1.4319,1.4407,1.4434,1.4448,1.4502,1.4658,1.4814,1.4869,1.5079,1.5276,1.5371,1.5554,1.5751,1.5764,1.59,1.5995,1.5995,1.6092,1.6083,1.6083,1.6083,1.6083,1.6083,1.6083,1.6083,1.6083,1.6083,1.6083,1.6083,1.6171,1.6225,1.6225,1.6307,1.6354,1.6354,1.6354,1.6354,1.6354,1.6171,1.6083,1.6083,1.6083,1.6083,1.6083,1.6083,1.6083,1.6083,1.6083,1.6083,1.6083,1.6083,1.6083,1.6083,1.6083,1.6083,1.6083,0.0,0.0,0.0,0.0,0.0,0.0,0.0,0.0,0.0,0.0,0.0,0.0,0.0,0.0,0.0,0.0,0.0,0.0,1.2569,1.2632,1.2733,1.2868,1.3064,1.3234,1.3241,1.3247,1.3295,1.3403,1.3403,1.3403,1.3403,1.3403,1.3403,1.3403,1.3403,1.3403,1.3403,1.3403,1.3403,1.3403,1.3451,1.3471,0.0,0.0,0.0,0.0,0.0,0.0,0.0,0.0,1.4211,1.4299,1.4299,1.4299,1.4299,1.4299,1.4299,1.4299,1.4299,1.4333,1.4387,1.4489,1.4584,1.4672,1.4713,1.4855,1.4997,1.5092,1.5309,1.5527,1.5676,1.5784,1.5915,1.5969,1.6064,1.6083,1.6083,1.6083,1.6083,1.6083,1.6083,1.6103,1.6151,1.6151,1.6171,1.6218,1.6218,1.6218,1.6218,1.632,1.6374,1.6374,1.6469,1.6524,1.6524,1.6524,1.6524,1.6517,1.632,1.6218,1.6218,1.6218,1.6218,1.6218,1.6171,1.6151,1.6151,1.6103,1.6083,1.6083,1.6083,1.6083,1.6083,1.6083,1.6083,1.6083,0.0,0.0,0.0,0.0,0.0,0.0,0.0,0.0,0.0,0.0,0.0,0.0,0.0,0.0,0.0,0.0,0.0,0.0,1.2679,1.2693,1.2868,1.32,1.3214,1.3247,1.3397,1.3403,1.3403,1.3403,1.3403,1.3403,1.3403,1.3403,1.3403,1.3403,1.3403,1.3403,1.3403,1.3403,1.3403,1.3417,1.3566,1.3592,1.3605,0.0,0.0,0.0,0.0,0.0,0.0,0.0,1.4299,1.4299,1.4299,1.4299,1.4299,1.4299,1.4299,1.4299,1.4299,1.4407,1.4509,1.4516,1.4746,1.5057,1.5153,1.5079,1.5059,1.5357,1.5485,1.5634,1.5874,1.5901,1.5956,1.6056,1.6083,1.6083,1.6083,1.6083,1.6083,1.6083,1.6083,1.6144,1.63,1.6313,1.6368,1.651,1.6524,1.6524,1.6524,1.6524,1.6524,1.6524,1.6524,1.6524,1.6524,1.6524,1.6524,1.6524,1.6524,1.6524,1.6524,1.6524,1.6524,1.6517,1.6374,1.6313,1.63,1.6151,1.6083,1.6083,1.6083,1.6083,1.6083,1.6083,1.6083,1.6083,0.0,0.0,0.0,0.0,0.0,0.0,0.0,0.0,0.0,0.0,0.0,0.0,0.0,0.0,0.0,0.0,0.0,0.0,1.2686,1.2922,1.3078,1.3207,1.3275,1.3356,1.3397,1.3403,1.3403,1.3403,1.3403,1.3403,1.3403,1.3403,1.3403,1.3403,1.3403,1.3403,1.341,1.3512,1.3559,1.3531,1.368,1.3734,0.0,0.0,0.0,0.0,0.0,0.0,0.0,0.0,0.0,0.0,1.4299,1.4299,1.4299,1.4299,1.4299,1.4319,1.4421,1.4482,1.4563,1.478,1.4977,1.516,1.5309,1.5309,1.5364,1.5711,1.5757,1.5881,1.5988,1.6064,1.6029,1.6076,1.6083,1.6083,1.6083,1.6178,1.6239,1.6239,1.6327,1.6408,1.6456,1.6456,1.6476,1.6517,1.6524,1.6524,1.6524,1.6574,1.6628,1.6628,1.6788,1.6842,1.6842,1.6842,1.6842,1.6842,1.6842,1.6734,1.6524,1.6524,1.6524,1.6517,1.6476,1.6456,1.6456,1.6408,1.6388,1.6388,1.6388,1.6327,1.6239,1.6239,1.6178,1.6083,0.0,0.0,0.0,0.0,0.0,0.0,0.0,0.0,0.0,0.0,0.0,0.0,0.0,0.0,0.0,0.0,0.0,0.0,0.0,1.3071,1.3241,1.3261,1.3349,1.3403,1.3403,1.3403,1.3403,1.3403,1.3403,1.3403,1.3403,1.3403,1.3403,1.3403,1.3403,1.3437,1.3498,1.3593,1.3619,1.3687,1.3829,1.3933,1.3939,0.0,0.0,0.0,0.0,0.0,0.0,0.0,0.0,0.0,1.4299,1.4299,1.4299,1.4299,1.4299,1.4333,1.4475,1.4557,1.4658,1.4909,1.5126,1.533,1.554,1.5588,1.5635,1.5867,1.5949,1.6024,1.6112,1.6083,1.6083,1.6083,1.6083,1.6103,1.6164,1.6252,1.6334,1.6388,1.6469,1.6493,1.6554,1.656,1.6588,1.67,1.67,1.67,1.67,1.6788,1.6842,1.6842,1.6931,1.6978,1.6978,1.6978,1.6978,1.6978,1.6978,1.6883,1.67,1.67,1.67,1.67,1.6588,1.6527,1.6524,1.6524,1.6524,1.6524,1.6524,1.6469,1.6395,1.6395,1.6334,1.6252,0.0,0.0,0.0,0.0,0.0,0.0,0.0,0.0,0.0,0.0,0.0,0.0,0.0,0.0,0.0,0.0,0.0,0.0,0.0,1.3227,1.3254,1.3397,1.3403,1.3403,1.3403,1.3403,1.3403,1.3403,1.3403,1.3403,1.3403,1.3403,1.341,1.3424,1.3424,1.3505,1.3605,1.3619,1.37,1.3829,1.4027,1.4139,1.4153,1.4245,0.0,0.0,0.0,0.0,0.0,0.0,0.0,0.0,1.4299,1.4299,1.4299,1.4299,1.4306,1.4353,1.4496,1.4599,1.4801,1.497,1.5235,1.5527,1.586,1.5922,1.5922,1.5922,1.6037,1.6083,1.6083,1.6083,1.609,1.6103,1.6103,1.6157,1.6307,1.6341,1.6395,1.6473,1.6558,1.6567,1.6702,1.6716,1.6777,1.6971,1.6978,1.6978,1.6978,1.6978,1.6978,1.6978,1.6978,1.6978,1.6978,1.6978,1.6978,1.6978,1.6978,1.6978,1.6978,1.6978,1.6978,1.6971,1.6829,1.6642,1.6564,1.6564,1.6564,1.6564,1.6564,1.6558,1.6544,1.6544,1.653,1.6524,0.0,0.0,0.0,0.0,0.0,0.0,0.0,0.0,0.0,0.0,0.0,0.0,0.0,0.0,0.0,0.0,0.0,0.0,0.0,1.3288,1.3363,1.3397,1.3403,1.3403,1.3403,1.3403,1.3403,1.3403,1.3403,1.3403,1.3403,1.3403,1.3464,1.358,1.358,1.3619,1.3761,1.3926,1.3994,1.4034,1.419,1.4251,1.4251,1.4285,1.4299,0.0,0.0,0.0,0.0,0.0,0.0,0.0,1.4299,1.4299,1.4299,1.4299,1.438,1.4502,1.4606,1.4801,1.4984,1.5248,1.554,1.5854,1.6037,1.6085,1.6085,1.6085,1.6056,1.6083,1.6083,1.6083,1.6123,1.6239,1.6259,1.6313,1.6456,1.6527,1.6615,1.6648,1.6809,1.6897,1.6931,1.6931,1.6944,1.6978,1.6978,1.6978,1.6978,1.6978,1.6978,1.6978,1.6978,1.6978,1.6978,1.6978,1.6978,1.6978,1.6978,1.6978,1.6978,1.6978,1.6978,1.6978,1.6944,1.691,1.6883,1.6883,1.6883,1.6883,1.6883,1.6809,1.6648,1.6648,1.6574,1.6524,0.0,0.0,0.0,0.0,0.0,0.0,0.0,0.0,0.0,0.0,0.0,0.0,0.0,0.0,0.0,0.0,0.0,0.0,0.0,0.0,1.3403,1.3403,1.3403,1.3403,1.3403,1.3403,1.3403,1.3403,1.3471,1.3512,1.3512,1.3512,1.3587,1.3687,1.3687,1.3768,1.3953,1.4084,1.4159,1.419,1.4272,1.4299,1.4299,1.4299,1.4299,1.4299,1.4299,0.0,0.0,0.0,0.0,0.0,0.0,0.0,1.4299,1.4299,1.4401,1.4543,1.4654,1.4855,1.5059,1.5425,1.5689,1.5942,1.6049,1.6083,1.6083,1.6083,1.6083,1.6083,1.6083,1.6144,1.6218,1.63,1.6368,1.6463,1.656,1.6648,1.6723,1.6849,1.6931,1.6978,1.6978,1.6978,1.6978,1.6978,1.6978,1.6978,1.6978,1.6978,1.6978,1.6978,1.6978,1.6978,1.6978,1.6978,1.6978,1.6978,1.6978,1.6978,1.6978,1.6978,1.6978,1.6978,1.6978,1.6978,1.6978,1.6978,1.6978,1.6978,1.6978,1.6931,1.6863,1.6863,1.6809,1.6741,0.0,0.0,0.0,0.0,0.0,0.0,0.0,0.0,0.0,0.0,0.0,0.0,0.0,0.0,0.0,0.0,0.0,0.0,0.0,0.0,0.0,1.3403,1.3403,1.3403,1.3403,1.3424,1.3437,1.3437,1.3551,1.3639,1.3709,1.3639,1.37,1.3835,1.3835,1.3966,1.4109,1.4109,1.4183,1.4299,1.4299,1.4299,1.4299,0.0,0.0,1.4299,1.4299,1.4299,1.4299,1.4299,0.0,0.0,0.0,0.0,1.4306,1.4333,1.4441,1.4584,1.4694,1.493,1.5181,1.5581,1.5784,1.5976,1.6056,1.6083,1.6083,1.6083,1.6083,1.609,1.6117,1.6225,1.6327,1.6374,1.6483,1.6612,1.6716,1.6736,1.6784,1.6965,1.6978,1.6978,1.6978,1.6978,1.6978,1.6978,1.6978,1.6978,1.6978,1.6978,1.6978,1.6978,1.6978,1.6978,1.6978,1.6978,1.6978,1.6978,1.6978,1.6978,1.6978,1.6978,1.6978,1.6978,1.6978,1.6978,1.6978,1.6978,1.6978,1.6978,1.6978,1.6978,1.6978,1.6978,1.6978,1.6978,0.0,0.0,0.0,0.0,0.0,0.0,0.0,0.0,0.0,0.0,1.3003,0.0,0.0,0.0,0.0,0.0,0.0,0.0,0.0,0.0,0.0,1.3403,1.3403,1.3403,1.3403,1.3532,1.3558,1.3558,1.37,1.3835,1.4007,1.3829,1.3892,1.4041,1.4041,1.4129,1.4272,1.4272,1.4278,1.4299,1.4299,1.4299,1.4299,0.0,0.0,1.4299,1.4299,1.4299,1.4299,1.4299,1.4299,0.0,0.0,0.0,1.4326,1.4448,1.459,1.4701,1.4896,1.5235,1.5594,1.5778,1.599,1.6056,1.6076,1.6083,1.6083,1.6083,1.6083,1.6123,1.6252,1.6293,1.6395,1.6601,1.6655,1.6723,1.6931,1.6951,1.6958,1.6978,1.6978,1.6978,1.6978,1.6978,1.6978,1.6978,1.6978,1.6978,1.6978,1.6978,1.6978,1.6978,1.6978,1.6978,1.6978,1.6978,1.6978,1.6978,1.6978,1.6978,1.6978,1.6978,1.6978,1.6978,1.6978,1.6978,1.6978,1.6978,1.6978,1.6978,1.6978,1.6978,1.6978,1.6978,1.6978,1.6978,0.0,0.0,0.0,0.0,0.0,0.0,0.0,0.0,0.0,0.0,0.0,1.3234,0.0,0.0,0.0,1.3397,0.0,0.0,0.0,0.0,0.0,1.3403,1.3403,1.3444,1.3526,1.3551,1.3626,1.3707,1.3899,1.4007,1.4119,1.4089,1.4136,1.4197,1.4197,1.4238,1.4299,1.4299,1.4299,1.4299,1.4299,1.4299,0.0,0.0,0.0,0.0,0.0,1.4299,1.4299,1.4299,1.4299,1.4299,1.4299,0.0,0.0,0.0,1.4679,1.4923,1.5153,1.5425,1.5676,1.5867,1.6017,1.6083,1.6083,1.6083,1.6103,1.6191,1.6212,1.6232,1.63,1.6442,1.6547,1.6675,1.677,1.6904,1.6971,1.6978,1.6978,1.6978,1.6978,1.6978,1.6978,1.6978,1.6978,1.6978,1.6978,1.6978,1.6978,1.6978,1.6978,1.6978,1.6978,1.6978,1.6978,1.6978,1.6978,1.6978,1.6978,1.6978,1.6978,1.6978,1.6978,1.6978,1.6978,1.6978,1.6978,1.6978,1.6978,1.6978,1.6978,1.6978,1.6978,1.6978,1.6978,1.6978,0.0,0.0,0.0,0.0,0.0,0.0,0.0,0.0,0.0,0.0,0.0,0.0,0.0,0.0,0.0,0.0,1.3403,0.0,0.0,0.0,0.0,1.3403,1.3437,1.3512,1.3585,1.366,1.3797,1.3899,1.4055,1.4129,1.4129,1.4245,1.4299,1.4299,1.4299,1.4299,1.4299,1.4299,1.4299,1.4299,1.4299,1.4299,1.4299,1.4299,1.4326,0.0,0.0,1.438,1.4414,1.4414,1.4414,1.4414,1.4414,1.4482,0.0,0.0,0.0,1.5086,1.5391,1.5506,1.5683,1.5915,1.6044,1.6083,1.6083,1.6083,1.6123,1.6279,1.6341,1.6374,1.6415,1.6554,1.6709,1.675,1.6904,1.6978,1.6978,1.6978,1.6978,1.6978,1.6978,1.6978,1.6978,1.6978,1.6978,1.6978,1.6978,1.6978,1.6978,1.6978,1.6978,1.6978,1.6978,1.6978,1.6978,1.6978,1.6978,1.6978,1.6978,1.6978,1.6978,1.6978,1.6978,1.6978,1.6978,1.6978,1.6978,1.6978,1.6978,1.6978,1.6978,1.6978,1.6978,1.6978,1.6978,1.6978,0.0,0.0,0.0,0.0,0.0,0.0,0.0,0.0,0.0,0.0,0.0,0.0,1.3403,1.3403,1.3403,1.3403,1.3403,1.3403,1.3403,1.3403,0.0,1.3403,1.3539,0.0,1.3585,1.3905,1.4098,1.4061,1.4211,1.4285,1.4285,1.4299,1.4299,1.4299,1.4299,1.4299,1.4299,1.4299,1.4299,1.4299,1.4299,1.4299,1.4299,1.4299,1.438,1.4502,1.4502,1.4545,1.4674,1.4674,1.4674,1.4674,1.4674,1.4674,1.4708,0.0,0.0,0.0,1.5499,1.5587,1.5661,1.6001,1.6076,1.6083,1.6083,1.6083,1.6123,1.6279,1.6415,1.6558,1.6648,1.6689,1.6743,1.6944,1.6978,1.6978,1.6978,1.6978,1.6978,1.6978,1.6978,1.6978,1.6978,1.6978,1.6978,1.6978,1.6978,1.6978,1.6978,1.6978,1.6978,1.6978,1.6978,1.6978,1.6978,1.6978,1.6978,1.6978,1.6978,1.6978,1.6978,1.6978,1.6978,1.6978,1.6978,1.6978,1.6978,1.6978,1.6978,1.6978,1.6978,1.6978,1.6978,1.6978,1.6978,1.6978,0.0,0.0,0.0,0.0,0.0,0.0,0.0,0.0,0.0,0.0,0.0,0.0,0.0,1.3403,1.3403,1.3403,1.3403,1.3403,1.3403,1.3403,0.0,1.3504,1.3558,1.3715,1.3912,1.4057,1.4122,1.4217,1.4272,1.4299,1.4299,1.4299,1.4299,1.4299,1.4299,1.4299,1.4299,1.4299,1.4299,1.4306,1.4401,1.4434,1.4448,1.4498,1.4566,1.4613,1.4613,1.4647,1.4694,1.4694,1.4694,1.4694,1.4694,1.4808,1.4916,1.5065,1.514,1.5248,1.5506,1.5593,1.5661,1.6008,1.6083,1.6083,1.6083,1.6083,1.6151,1.6395,1.6483,1.6598,1.6849,1.6897,1.6917,1.6971,1.6978,1.6978,1.6978,1.6978,1.6978,1.6978,1.6978,1.6978,1.6978,1.6978,1.6978,1.6978,1.6978,1.6978,1.6978,1.6978,1.6978,1.6978,1.6978,1.6978,1.6978,1.6978,1.6978,1.6978,1.6978,1.6978,1.6978,1.6978,1.6978,1.6978,1.6978,1.6978,1.6978,1.6978,1.6978,1.6978,1.6978,1.6978,1.6978,1.6978,1.6978,1.6978,0.0,0.0,0.0,0.0,0.0,0.0,0.0,0.0,0.0,1.3403,0.0,0.0,0.0,0.0,1.3403,1.3403,1.3403,1.3403,1.3403,1.3451,1.3519,1.3585,1.3722,1.3871,1.4112,1.4122,1.4197,1.4299,1.4299,1.4299,1.4299,1.4299,1.4299,1.4299,1.4299,1.4299,1.4306,1.4353,1.4373,1.4387,1.4529,1.459,1.4597,1.4654,1.4728,1.4821,1.4821,1.4848,1.4889,1.4889,1.4889,1.4889,1.4889,1.4957,1.5098,1.5099,1.5147,1.5242,1.5493,1.5553,1.5648,1.5947,1.6092,1.6083,1.6083,1.6083,1.6164,1.6463,1.6524,1.6612,1.6924,1.6978,1.6978,1.6978,1.6978,1.6978,1.6978,1.6978,1.6978,1.6978,1.6978,1.6978,1.6978,1.6978,1.6978,1.6978,1.6978,1.6978,1.6978,1.6978,1.6978,1.6978,1.6978,1.6978,1.6978,1.6978,1.6978,1.6978,1.6978,1.6978,1.6978,1.6978,1.6978,1.6978,1.6978,1.6978,1.6978,1.6978,1.6978,1.6978,1.6978,1.6978,1.6978,1.6978,1.6978,1.6978,0.0,0.0,0.0,0.0,0.0,0.0,0.0,0.0,1.3403,1.3403,0.0,0.0,0.0,0.0,0.0,1.341,1.341,1.341,1.341,1.3511,1.3599,1.3599,0.0,0.0,1.4125,1.4224,1.4299,1.4299,1.4299,1.4299,1.4299,1.4299,1.4299,1.4299,1.4306,1.4306,1.4319,1.4455,1.4516,1.4529,1.464,1.4701,1.4708,1.4714,1.4855,1.5037,1.5037,1.5079,1.5194,1.5194,1.5194,1.5194,1.5187,1.5181,0.0,0.0,1.5065,1.5208,0.0,0.0,0.0,1.5867,1.6017,1.6076,1.6083,1.6083,1.6164,1.6456,1.6517,1.6612,1.6917,1.6978,1.6978,1.6978,1.6978,1.6978,1.6978,1.6978,1.6978,1.6978,1.6978,1.6978,1.6978,1.6978,1.6978,1.6978,1.6978,1.6978,1.6978,1.6978,1.6978,1.6978,1.6978,1.6978,1.6978,1.6978,1.6978,1.6978,1.6978,1.6978,1.6978,1.6978,1.6978,1.6978,1.6978,1.6978,1.6978,1.6978,1.6978,1.6978,1.6978,1.6978,1.6978,1.6978,1.6978,1.6978,0.0,0.0,0.0,0.0,0.0,0.0,0.7622,1.0923,1.3403,0.0,0.0,0.0,1.3403,1.3498,1.3524,1.3524,1.3619,1.368,1.368,1.3714,1.3788,1.3946,1.4071,1.4166,1.4238,1.4278,1.4299,1.4299,1.4299,1.4299,1.4299,1.4299,1.4299,1.4306,1.4407,1.4455,1.4455,1.4496,1.4577,1.4647,1.4841,1.497,1.5072,1.5181,1.5323,1.5404,1.5404,1.5479,1.5513,1.5513,1.5513,1.5472,1.5255,0.0,0.0,0.0,0.0,0.0,1.5343,0.0,0.0,0.0,0.0,0.0,1.6056,1.6083,1.6137,1.6327,1.6449,1.6578,1.6723,1.6904,1.6978,1.6978,1.6978,1.6978,1.6978,1.6978,1.6978,1.6978,1.6978,1.6978,1.6978,1.6978,1.6978,1.6978,1.6978,1.6978,1.6978,1.6978,1.6978,1.6978,1.6978,1.6978,1.6978,1.6978,1.6978,1.6978,1.6978,1.6978,1.6978,1.6978,1.6978,1.6978,1.6978,1.6978,1.6978,1.6978,1.6978,1.6978,1.6978,1.6978,1.6978,1.6978,1.6978,1.6978,0.0,0.0,0.0,0.0,0.0,0.6786,0.6786,1.0661,1.3587,0.0,0.0,0.0,1.3587,1.3619,1.3673,1.3673,1.3747,1.3795,1.3795,1.3899,1.398,1.4112,1.4136,1.4211,1.4299,1.4299,1.4299,1.4299,1.4299,1.4299,1.4299,1.4299,1.4333,1.4387,1.4414,1.4529,1.4692,1.4563,1.4638,1.4855,1.5072,1.5201,1.5296,1.5445,1.5512,1.5593,1.5593,1.5593,1.5593,1.5593,1.5593,1.5539,1.5276,1.5215,0.0,0.0,0.0,0.0,0.0,0.0,1.5635,1.586,0.0,0.0,1.6062,1.6083,1.6123,1.6279,1.6374,1.6446,1.6662,1.6822,1.6904,1.6971,1.6978,1.6978,1.6978,1.6978,1.6978,1.6978,1.6978,1.6978,1.6978,1.6978,1.6978,1.6978,1.6978,1.6978,1.6978,1.6978,1.6978,1.6978,1.6978,1.6978,1.6978,1.6978,1.6978,1.6978,1.6978,1.6978,1.6978,1.6978,1.6978,1.6978,1.6978,1.6978,1.6978,1.6978,1.6978,1.6978,1.6978,1.6978,1.6978,1.6978,1.6978,1.6978,0.0,0.0,0.0,0.0,0.382,0.6904,0.6904,1.0827,1.3795,0.0,1.3795,1.3795,1.3795,1.3815,1.3822,1.3822,1.3835,1.3849,1.3849,1.4021,1.4139,1.4139,1.4231,1.4299,1.4299,1.4299,1.4299,1.4299,1.4299,1.4299,1.4299,1.4319,1.4387,1.4509,1.4394,1.457,1.493,1.4685,1.4746,1.5064,1.5282,1.5418,1.5472,1.5608,1.5627,1.5641,1.5641,1.5641,1.5641,1.5641,1.5627,1.5615,1.5323,1.5411,1.5485,1.5133,1.5303,0.0,0.0,0.0,0.0,1.5901,1.6003,0.0,1.6076,1.6083,1.6123,1.6259,1.63,1.6388,1.6601,1.6675,1.6743,1.6931,1.6971,1.6978,1.6978,1.6978,1.6978,1.6978,1.6978,1.6978,1.6978,1.6978,1.6978,1.6978,1.6978,1.6978,1.6978,1.6978,1.6978,1.6978,1.6978,1.6978,1.6978,1.6978,1.6978,1.6978,1.6978,1.6978,1.6978,1.6978,1.6978,1.6978,1.6978,1.6978,1.6978,1.6978,1.6978,1.6978,1.6978,1.6978,1.6978,1.6978,1.6978,1.6978,0.0,0.0,0.0,0.0,0.3838,0.6898,0.6898,1.0832,1.3795,1.3795,1.3795,1.3795,1.3795,1.3953,1.4027,1.4027,1.4143,1.4211,1.4211,1.4238,1.4258,1.4258,1.4285,1.4299,1.4299,1.4299,1.4299,1.4299,1.4299,1.4299,1.4299,1.4414,1.4482,1.4516,1.4611,1.466,1.4748,1.4977,1.5086,1.5194,1.5201,1.5493,1.582,1.5847,1.5886,1.5995,1.5995,1.5995,1.5995,1.5995,1.5913,1.5778,1.5601,1.5458,1.5438,1.535,1.5384,1.5479,1.5519,1.5587,1.571,1.5874,1.5928,0.0,1.6105,1.6083,1.609,1.6123,1.6225,1.6327,1.6388,1.654,1.6709,1.6736,1.6897,1.6978,1.6978,1.6978,1.6978,1.6978,1.6978,1.6978,1.6978,1.6978,1.6978,1.6978,1.6978,1.6978,1.6978,1.6978,1.6978,1.6978,1.6978,1.6978,1.6978,1.6978,1.6978,1.6978,1.6978,1.6978,1.6978,1.6978,1.6978,1.6978,1.6978,1.6978,1.6978,1.6978,1.6978,1.6978,1.6978,1.6978,1.6978,1.6978,1.6978,1.6978,0.0,0.0,0.0,0.0,0.3874,0.7019,0.7019,1.0992,1.4068,1.4068,1.4068,1.4068,1.4068,1.4143,1.4183,1.4183,1.4258,0.0,1.4299,1.4299,1.4299,1.4299,1.4299,1.4299,1.4299,1.4299,1.4299,1.4299,1.4373,1.4407,1.4407,1.4557,1.4665,1.474,1.4658,1.4753,1.495,1.4808,1.4997,1.5418,1.5486,1.5697,1.5908,1.599,1.6064,1.6083,1.6083,1.6083,1.6083,1.6083,1.6078,1.599,1.5791,1.5744,1.5716,1.5567,1.5628,1.5744,1.5744,1.5805,1.5879,1.5947,1.6017,0.0,0.0,1.6083,1.6083,1.6083,1.6144,1.6218,1.6293,1.6429,1.65,1.6574,1.6761,1.6863,1.6863,1.6931,1.6978,1.6978,1.6978,1.6978,1.6978,1.6978,1.6978,1.6978,1.6978,1.6978,1.6978,1.6978,1.6978,1.6978,1.6978,1.6978,1.6978,1.6978,1.6978,1.6978,1.6978,1.6978,1.6978,1.6978,1.6978,1.6978,1.6978,1.6978,1.6978,1.6978,1.6978,1.6978,1.6978,1.6978,1.6978,1.6978,1.6978,1.6978,0.0,0.0,0.0131,0.0612,0.3864,0.675,0.7673,1.1103,1.3761,1.4255,1.4299,1.4299,1.4299,1.4299,1.4299,1.4299,1.4299,0.0,1.4299,1.4299,1.4299,1.4299,1.4299,1.4312,1.434,1.434,1.4353,1.4387,1.4502,1.4557,1.4557,1.4713,1.4869,1.5051,1.4753,1.4862,1.5194,1.4685,1.4923,1.56,1.5764,1.5894,1.5962,1.6085,1.6083,1.6083,1.6083,1.6083,1.6083,1.6083,1.6083,1.6062,1.5983,1.603,1.6035,1.5798,1.5893,1.6056,1.5983,1.6037,1.6083,1.6083,1.6083,1.6083,0.0,0.0,0.0,1.6083,1.6083,1.6123,1.6246,1.6293,1.6341,1.6422,1.6533,1.6648,1.6615,1.6822,1.6944,1.6978,1.6978,1.6978,1.6978,1.6978,1.6978,1.6978,1.6978,1.6978,1.6978,1.6978,1.6978,1.6978,1.6978,1.6978,1.6978,1.6978,1.6978,1.6978,1.6978,1.6978,1.6978,1.6978,1.6978,1.6978,1.6978,1.6978,1.6978,1.6978,1.6978,1.6978,1.6978,1.6978,1.6978,1.6978,1.6978,1.6978,0.0,0.0,0.0663,0.2806,0.3661,0.5399,0.9628,1.0752,1.1876,1.4027,1.4299,1.4299,1.4299,1.4299,1.4299,1.4299,1.4299,1.4299,1.4299,1.4299,1.4299,1.4299,1.4299,1.436,1.4482,1.4489,1.4557,1.4647,1.466,1.4667,1.4674,1.4869,1.5025,1.516,1.512,1.5208,1.5371,1.5167,1.5296,1.5593,1.5607,1.5818,1.6056,1.6076,1.6083,1.6083,1.6083,1.6083,1.6083,1.6083,1.6083,1.6076,1.6062,1.6069,1.6076,1.6042,1.6056,1.6076,1.6062,1.6069,1.6083,1.6083,1.6083,1.6083,1.6083,0.0,1.6083,1.6083,0.0,1.609,1.6103,0.0,0.0,1.6151,1.6368,1.6503,1.6374,1.6547,1.6777,1.6965,1.6978,1.6978,1.6978,1.6978,1.6978,1.6978,1.6978,1.6978,1.6978,1.6978,1.6978,1.6978,1.6978,1.6978,1.6978,1.6978,1.6978,1.6978,1.6978,1.6978,1.6978,1.6978,1.6978,1.6978,1.6978,1.6978,1.6978,1.6978,1.6978,1.6978,1.6978,1.6978,1.6978,1.6978,1.6978,1.6978,0.0,0.0,0.0312,0.1344,0.3803,0.6302,0.8308,1.0984,1.3135,1.4166,1.4373,1.4421,1.4421,1.4502,1.4512,1.4512,1.4512,1.4512,1.4512,1.4512,0.0,1.4512,1.4512,1.4539,1.4599,1.4599,1.4626,1.4694,1.4828,1.4875,1.4875,1.5113,1.5255,1.5316,1.5316,1.5398,1.5479,1.5282,1.5309,1.552,1.5696,1.5839,1.6017,1.6144,1.6266,1.6334,1.6334,1.6334,1.6334,1.6334,1.6334,1.6334,1.6334,1.6334,1.6334,1.6334,1.6279,1.6212,1.6212,1.6151,1.6083,1.6083,1.6083,1.6083,1.6083,1.6083,1.6083,1.6083,0.0,0.0,0.0,0.0,0.0,0.0,1.6259,1.6381,1.632,1.6439,1.6621,1.6829,1.6924,1.6978,1.6978,1.6978,1.6978,1.6978,1.6978,1.6978,1.6978,1.6978,1.6978,1.6978,1.6978,1.6978,1.6978,1.6978,1.6978,1.6978,1.6978,1.6978,1.6978,1.6978,1.6978,1.6978,1.6978,1.6978,1.6978,1.6978,1.6978,1.6978,1.6978,1.6978,1.6978,1.6978,1.6978,1.6978,0.0,0.0,0.0404,0.1702,0.4295,0.6573,0.7933,1.1705,1.4373,1.4414,1.4509,1.4532,1.4532,1.4626,1.4694,1.4694,1.4694,1.4714,1.4801,1.4755,1.4821,1.4862,1.4862,1.4836,1.4877,1.4877,1.4897,1.4938,1.5099,1.5153,1.516,1.5371,1.5493,1.5533,1.5533,1.5615,1.5744,1.5479,1.5479,1.5669,1.5845,1.6037,1.6117,1.63,1.6429,1.6524,1.6524,1.6524,1.6524,1.6524,1.6524,1.6524,1.6524,1.6524,1.6524,1.6524,1.6449,1.6368,1.6368,1.6259,1.6144,1.6144,1.611,1.6083,1.6083,1.6083,1.6083,1.6083,1.6083,0.0,0.0,0.0,1.6069,1.6029,0.0,1.6232,1.6191,1.6347,1.6537,1.6675,1.689,1.6978,1.6978,1.6978,1.6978,1.6978,1.6978,1.6978,1.6978,1.6978,1.6978,1.6978,1.6978,1.6978,1.6978,1.6978,1.6978,1.6978,1.6978,1.6978,1.6978,1.6978,1.6978,1.6978,1.6978,1.6978,1.6978,1.6978,1.6978,1.6978,1.6978,1.6978,1.6978,1.6978,1.6978,1.6978,0.0,0.0,0.1434,0.6079,0.5142,0.5293,1.004,1.2912,1.4557,1.466,1.4681,1.4687,1.4687,1.4687,1.4694,1.4694,1.4694,1.4755,1.4996,1.501,1.5071,1.516,1.5167,1.5235,1.5384,1.5391,1.5459,1.556,1.5566,1.5566,1.5566,1.558,1.5703,1.5888,1.5888,1.5976,1.6056,1.5949,1.6008,1.6273,1.613,1.6334,1.6655,1.6513,1.6517,1.6524,1.6524,1.6524,1.6524,1.6524,1.6524,1.6524,1.6524,1.6524,1.6524,1.6524,1.6517,1.6517,1.6517,1.6408,1.63,1.63,1.6191,1.6083,1.6083,1.6083,1.6083,1.6083,1.6083,1.6083,1.6083,1.6083,0.0,0.0,1.6037,0.0,0.0,1.613,1.6422,1.6662,1.689,1.6978,1.6978,1.6978,1.6978,1.6978,1.6978,1.6978,1.6978,1.6978,1.6978,1.6978,1.6978,1.6978,1.6978,1.6978,1.6978,1.6978,1.6978,1.6978,1.6978,1.6978,1.6978,1.6978,1.6978,1.6978,1.6978,1.6978,1.6978,1.6978,1.6978,1.6978,1.6978,1.6978,1.6978,1.6978,0.2526,0.3892,0.5019,0.493,0.6977,0.9717,1.2908,1.4107,1.4023,1.2397,1.3845,1.4406,1.2699,1.4169,1.5289,1.5289,1.5289,1.5309,1.5411,1.5411,1.5438,1.5486,1.5438,1.5506,1.5512,1.5512,1.5539,1.5593,1.5593,1.5593,1.5593,1.5737,1.5805,1.5908,1.601,1.609,1.6232,1.6178,1.6157,1.6164,1.6212,1.6503,1.689,1.6682,1.6682,1.6822,1.6822,1.6822,1.6822,1.6822,1.6822,1.6822,1.6822,1.6822,1.6822,1.6822,1.6754,1.6621,1.6621,1.6513,1.6449,1.6449,1.6341,1.6232,1.6232,1.6151,1.6083,1.6083,1.6083,1.6083,1.6083,1.6083,0.0,0.0,0.0,1.6062,0.0,1.6178,1.6347,1.6398,1.6621,1.6777,1.6777,1.6917,1.6978,1.6978,1.6978,1.6978,1.6978,1.6978,1.6978,1.6978,1.6978,1.6978,1.6978,1.6978,1.6978,1.6978,1.6978,1.6978,1.6978,1.6978,1.6978,1.6978,1.6978,1.6978,1.6978,1.6978,1.6978,1.6978,1.6978,1.6978,1.6978,1.6978,1.6978,1.6978,0.5106,0.735,0.8532,0.6743,0.9839,1.3088,1.4679,1.413,1.3284,1.2658,1.337,1.3644,1.2955,1.45,1.5593,1.5593,1.5593,1.5614,1.571,1.5716,1.5744,1.5798,1.5798,1.5798,1.5798,1.5798,1.5798,1.5798,1.5798,1.5798,1.5798,1.5893,1.5983,1.599,1.6096,1.6218,1.632,1.6422,1.6408,1.6334,1.649,1.672,1.6971,1.687,1.6897,1.6978,1.6978,1.6978,1.6978,1.6978,1.6978,1.6978,1.6978,1.6978,1.6978,1.6978,1.691,1.6829,1.6829,1.6669,1.6554,1.6554,1.649,1.6388,1.6388,1.6307,1.6239,1.6239,1.6239,1.6239,1.6239,1.6198,1.6164,0.0,0.0,0.0,0.0,1.6164,1.6232,1.6232,1.6486,1.6696,1.6696,1.689,1.6978,1.6978,1.6978,1.6978,1.6978,1.6978,1.6978,1.6978,1.6978,1.6978,1.6978,1.6978,1.6978,1.6978,1.6978,1.6978,1.6978,1.6978,1.6978,1.6978,1.6978,1.6978,1.6978,1.6978,1.6978,1.6978,1.6978,1.6978,1.6978,1.6978,1.6978,1.6978,0.7646,1.0256,1.1889,1.1515,1.3413,1.5099,1.5377,1.3149,1.232,1.489,1.3097,1.2563,1.4984,1.5475,1.5627,1.5634,1.5634,1.5744,1.5928,1.5935,1.6003,1.6096,1.6103,1.6103,1.6103,1.6103,1.6103,1.6103,1.6103,1.6103,1.6103,1.6103,1.6103,1.611,1.6252,1.6327,1.6347,1.6581,1.6702,1.6723,1.6924,1.6978,1.6978,1.6978,1.6978,1.6978,1.6978,1.6978,1.6978,1.6978,1.6978,1.6978,1.6978,1.6978,1.6978,1.6978,1.6978,1.6978,1.6978,1.6876,1.6709,1.6709,1.6594,1.653,1.653,1.6473,1.6524,1.6524,1.6524,1.6524,1.6524,1.6408,1.632,0.0,0.0,0.0,1.6083,1.6083,1.6083,1.6083,1.6469,1.6682,1.6675,1.6876,1.6971,1.6971,1.6978,1.6978,1.6978,1.6978,1.6978,1.6978,1.6978,1.6978,1.6978,1.6978,1.6978,1.6978,1.6978,1.6978,1.6978,1.6978,1.6978,1.6978,1.6978,1.6978,1.6978,1.6978,1.6978,1.6978,1.6978,1.6978,1.6978,1.6978,1.6978,1.6978,1.0307,1.289,1.4652,1.4687,1.5122,1.5493,1.5519,1.3282,1.1124,0.9956,1.0956,1.1363,1.0266,1.3707,1.6178,1.6286,1.6243,1.6307,1.6347,1.6347,1.6368,1.6408,1.6408,1.6408,1.6408,1.6408,1.6408,1.6408,1.6408,1.6408,1.6408,1.6408,1.6408,1.6408,1.6449,1.6479,1.6588,1.6669,1.6815,1.6924,1.6965,1.6978,1.6978,1.6978,1.6978,1.6978,1.6978,1.6978,1.6978,1.6978,1.6978,1.6978,1.6978,1.6978,1.6978,1.6978,1.6978,1.6978,1.6978,1.6951,1.6924,1.6924,1.6802,1.6642,1.6642,1.6554,1.6524,1.6524,1.6524,1.6524,1.6524,1.649,1.6435,1.6327,0.0,0.0,1.6083,1.6083,1.6083,1.6083,1.6374,1.6486,1.6435,1.6608,1.6757,1.6757,1.6917,1.6978,1.6978,1.6978,1.6978,1.6978,1.6978,1.6978,1.6978,1.6978,1.6978,1.6978,1.6978,1.6978,1.6978,1.6978,1.6978,1.6978,1.6978,1.6978,1.6978,1.6978,1.6978,1.6978,1.6978,1.6978,1.6978,1.6978,1.6978,1.6978,1.3232,1.4979,1.6049,1.613,1.5068,1.4149,1.4089,1.2831,1.1376,0.9974,1.1146,1.2055,1.1921,1.4599,1.6435,1.6517,1.6524,1.6524,1.6524,1.6524,1.6524,1.6524,1.6524,1.6524,1.6524,1.6524,1.6524,1.6524,1.6524,1.6524,1.6524,1.6524,1.649,1.6435,1.6564,1.6581,1.6608,1.6795,1.6904,1.6978,1.6978,1.6978,0.0,1.6978,1.6978,1.6978,1.6978,1.6978,1.6978,1.6978,1.6978,1.6978,1.6978,1.6978,1.6978,1.6978,1.6978,1.6978,1.6978,1.6978,1.6978,1.6978,1.6917,1.6849,1.6849,1.6781,1.672,1.672,1.672,1.672,1.672,1.6666,1.65,1.6341,1.6286,1.6252,1.6191,1.6232,1.6252,1.6191,1.6381,1.6435,1.6232,1.6486,1.6669,1.6601,1.6795,1.6876,1.6876,1.6944,1.6978,1.6978,1.6978,1.6978,1.6978,1.6978,1.6978,1.6978,1.6978,1.6978,1.6978,1.6978,1.6978,1.6978,1.6978,1.6978,1.6978,1.6978,1.6978,1.6978,1.6978,1.6978,1.6978,1.6978,1.6978,1.6978,1.5822,1.6435,1.6524,1.6524,1.4503,1.2666,1.2222,1.1943,1.1764,1.1754,1.2184,1.3375,1.5769,1.6346,1.6558,1.6578,1.6585,1.6585,1.6585,1.6585,1.6585,1.6585,1.6585,1.6585,1.6585,1.6585,1.6585,1.6585,1.6585,1.6585,1.6578,1.6558,1.6497,1.6408,1.6594,1.6635,1.6598,1.687,1.6978,1.6978,1.6978,1.6978,1.6978,1.6978,1.6978,1.6978,1.6978,1.6978,1.6978,1.6978,1.6978,1.6978,1.6978,1.6978,1.6978,1.6978,1.6978,1.6978,1.6978,1.6978,1.6978,1.6978,1.6978,1.6978,1.6978,1.6978,1.6978,1.6978,1.6978,1.6978,1.6978,1.6856,1.6615,1.6408,1.6435,1.6456,1.6354,1.6429,1.6449,1.6327,1.6449,0.0,1.611,1.6469,1.6608,1.6503,1.6581,1.6675,1.6696,1.6876,1.6958,1.6978,1.6978,1.6978,1.6978,1.6978,1.6978,1.6978,1.6978,1.6978,1.6978,1.6978,1.6978,1.6978,1.6978,1.6978,1.6978,1.6978,1.6978,1.6978,1.6978,1.6978,1.6978,1.6978,1.6978,1.6978,1.5915,1.6503,1.6524,1.6524,1.6108,1.5001,1.2745,1.0505,0.9017,0.898,1.1045,1.2734,1.3289,1.5343,1.6709,1.689,1.6897,1.6897,1.6897,1.6897,1.6897,1.6897,1.6897,1.6897,1.6897,1.6897,1.6897,1.6897,1.6897,1.6897,1.6897,1.6716,1.6761,1.6863,1.673,1.6802,1.6904,1.6958,1.6978,1.6978,1.6978,1.6978,1.6978,1.6978,1.6978,1.6978,1.6978,1.6978,1.6978,1.6978,1.6978,1.6978,1.6978,1.6978,1.6978,1.6978,1.6978,1.6978,1.6978,1.6978,1.6978,1.6978,1.6978,1.6978,1.6978,1.6978,1.6978,1.6978,1.6978,1.6978,1.6978,1.6856,1.6682,1.6628,1.6439,1.6381,1.6469,1.6402,1.6341,1.6313,1.6493,1.6544,1.6123,1.6374,1.6503,1.6361,1.6483,1.6567,1.6689,1.6723,1.6849,1.6978,1.6978,1.6978,1.6978,1.6978,1.6978,1.6978,1.6978,1.6978,1.6978,1.6978,1.6978,1.6978,1.6978,1.6978,1.6978,1.6978,1.6978,1.6978,1.6978,1.6978,1.6978,1.6978,1.6978,1.6978,1.6482,1.6761,1.6761,1.6761,1.5548,1.4094,1.2792,1.144,1.057,1.057,1.3083,1.484,1.4906,1.6073,1.6897,1.6971,1.6978,1.6978,1.6978,1.6978,1.6978,1.6978,1.6978,1.6978,1.6978,1.6978,1.6978,1.6978,1.6978,1.6978,1.6978,1.677,1.6736,1.6856,1.673,1.6836,1.6978,1.6978,1.6978,1.6978,1.6978,1.6978,1.6978,1.6978,1.6978,1.6978,1.6978,1.6978,1.6978,1.6978,1.6978,1.6978,1.6978,1.6978,1.6978,1.6978,1.6978,1.6978,1.6978,1.6978,1.6978,1.6978,1.6978,1.6978,1.6978,1.6978,1.6978,1.6978,1.6978,1.6978,1.6978,1.6917,1.6842,1.6709,1.67,1.6653,1.6588,1.6653,1.6625,1.6493,1.6734,1.6693,1.6246,1.6395,1.6463,1.632,1.6374,1.651,1.6682,1.6696,1.677,1.6978,1.6978,1.6978,1.6978,1.6978,1.6978,1.6978,1.6978,1.6978,1.6978,1.6978,1.6978,1.6978,1.6978,1.6978,1.6978,1.6978,1.6978,1.6978,1.6978,1.6978,1.6978,1.6978,1.6978,1.6978,1.6958,1.6978,1.6978,1.6978,1.5113,1.3622,1.3622,1.3622,1.3406,1.2769,1.5218,1.6978,1.6978,1.6978,1.6978,1.6978,1.6978,1.6978,1.6978,1.6978,1.6978,1.6978,1.6978,1.6978,1.6978,1.6978,1.6978,1.6978,1.6978,1.6978,1.6978,1.677,1.6696,1.6702,1.673,1.687,1.6978,1.6978,1.6978,1.6978,1.6978,1.6978,1.6978,1.6978,1.6978,1.6978,1.6978,1.6978,1.6978,1.6978,1.6978,1.6978,1.6978,1.6978,1.6978,1.6978,1.6978,1.6978,1.6978,1.6978,1.6978,1.6978,1.6978,1.6978,1.6978,1.6978,1.6978,1.6978,1.6978,1.6978,1.6978,1.6978,1.6944,1.677,1.6876,1.6904,1.6757,1.6876,1.689,1.6709,1.6829,1.6748,1.6388,1.6368,1.6374,1.6354,1.6327,1.6435,1.6682,1.6696,1.677,1.6978,1.6978,1.6978,1.6978,1.6978,1.6978,1.6978,1.6978,1.6978,1.6978,1.6978,1.6978,1.6978,1.6978,1.6978,1.6978,1.6978,1.6978,1.6978,1.6978,1.6978,1.6978,1.6978,1.6978,1.6978,1.6978,1.6978,1.6978,1.6978,1.6768,1.6604,1.6604,1.6604,1.5645,1.3037,1.5218,1.6978,1.6978,1.6978,1.6978,1.6978,1.6978,1.6978,1.6978,1.6978,1.6978,1.6978,1.6978,1.6978,1.6978,1.6978,1.6978,1.6978,1.6978,1.6978,1.6978,1.677,1.6696,1.6702,1.6897,1.6965,1.6978,1.6978,1.6978,1.6978,1.6978,1.6978,1.6978,1.6978,1.6978,1.6978,1.6978,1.6978,1.6978,1.6978,1.6978,1.6978,1.6978,1.6978,1.6978,1.6978,1.6978,1.6978,1.6978,1.6978,1.6978,1.6978,1.6978,1.6978,1.6978,1.6978,1.6978,1.6978,1.6978,1.6978,1.6978,1.6978,1.6978,1.6958,1.6849,1.6815,1.6944,1.6849,1.6716,1.6702,1.6588,1.6551,1.6503,1.6144,1.6076,1.6469,1.6381,1.6435,1.6682,1.6696,1.677,1.6978,1.6978,1.6978,1.6978,1.6978,1.6978,1.6978,1.6978,1.6978,1.6978,1.6978,1.6978,1.6978,1.6978,1.6978,1.6978,1.6978,1.6978,1.6978,1.6978,1.6978,1.6978,1.6978,1.6978,1.6978,1.6978,1.6978,1.6978,1.6978,1.6978,1.6978,1.6978,1.6978,1.6604,1.5435,1.6288,1.6978,1.6978,1.6978,1.6978,1.6978,1.6978,1.6978,1.6978,1.6978,1.6978,1.6978,1.6978,1.6978,1.6978,1.6978,1.6978,1.6978,1.6978,1.6978,1.6978,1.677,1.6696,1.6702,1.691,1.6978,1.6978,1.6978,1.6978,1.6978,1.6978,1.6978,1.6978,1.6978,1.6978,1.6978,1.6978,1.6978,1.6978,1.6978,1.6978,1.6978,1.6978,1.6978,1.6978,1.6978,1.6978,1.6978,1.6978,1.6978,1.6978,1.6978,1.6978,1.6978,1.6978,1.6978,1.6978,1.6978,1.6978,1.6978,1.6978,1.6978,1.6978,1.6978,1.6931,1.691,1.6971,1.6931,1.689,1.689,1.6836,1.6761,1.6615,1.6334,1.6273,1.6581,1.6273,1.6246,1.6669,1.6608,1.6727,1.6971,1.6978,1.6978,1.6978,1.6978,1.6978,1.6978,1.6978,1.6978,1.6978,1.6978,1.6978,1.6978,1.6978,1.6978,1.6978,1.6978,1.6978,1.6978,1.6978,1.6978,1.6978,1.6978,1.6978,1.6978,1.6978,1.6978,1.6978,1.6978,1.6978,1.6978,1.6978,1.6978,1.6978,1.6978,1.6978,1.6978,1.6978,1.6978,1.6978,1.6978,1.6978,1.6978,1.6978,1.6978,1.6978,1.6978,1.6978,1.6978,1.6978,1.6978,1.6978,1.6978,1.6978,1.6978,1.6978,1.687,1.6763,1.677,1.6931,1.6978,1.6978,1.6978,1.6978,1.6978,1.6978,1.6978,1.6978,1.6978,1.6978,1.6978,1.6978,1.6978,1.6978,1.6978,1.6978,1.6978,1.6978,1.6978,1.6978,1.6978,1.6978,1.6978,1.6978,1.6978,1.6978,1.6978,1.6978,1.6978,1.6978,1.6978,1.6978,1.6978,1.6978,1.6978,1.6978,1.6978,1.6978,1.6978,1.6978,1.6978,1.6978,1.6978,1.6965,1.6917,1.6836,1.6775,1.6702,1.6402,1.6334,1.6669,1.6279,1.6232,1.6736,1.6621,1.6707,1.6971,1.6978,1.6978,1.6978,1.6978,1.6978,1.6978,1.6978,1.6978,1.6978,1.6978,1.6978,1.6978,1.6978,1.6978,1.6978,1.6978,1.6978,1.6978,1.6978,1.6978,1.6978,1.6978,1.6978,1.6978,1.6978,1.6978,1.6978,1.6978,1.6978,1.6978,1.6978,1.6978,1.6978,1.6978,1.6978,1.6978,1.6978,1.6978,1.6978,1.6978,1.6978,1.6978,1.6978,1.6978,1.6978,1.6978,1.6978,1.6978,1.6978,1.6978,1.6978,1.6978,1.6978,1.6978,1.6978,1.6978,1.6978,1.6978,1.6978,1.6978,1.6978,1.6978,1.6978,1.6978,1.6978,1.6978,1.6978,1.6978,1.6978,1.6978,1.6978,1.6978,1.6978,1.6978,1.6978,1.6978,1.6978,1.6978,1.6978,1.6978,1.6978,1.6978,1.6978,1.6978,1.6978,1.6978,1.6978,1.6978,1.6978,1.6978,1.6978,1.6978,1.6978,1.6978,1.6978,1.6978,1.6978,1.6978,1.6978,1.6978,1.6978,1.6978,1.6924,1.6716,1.6497,1.6429,1.6669,1.6212,1.6103,1.6655,1.6476,1.6503,1.6951,1.6829,1.677,1.6978,1.6978,1.6978,1.6978,1.6978,1.6978,1.6978,1.6978,1.6978,1.6978,1.6978,1.6978,1.6978,1.6978,1.6978,1.6978,1.6978,1.6978,1.6978,1.6978,1.6978,1.6978,1.6978,1.6978,1.6978,1.6978,1.706,1.7127,1.7127,1.7209,1.7277,1.7277,1.7277,1.7277,1.7277,1.7277,1.7277,1.7277,1.71,1.6978,1.6978,1.6978,1.6978,1.6978,1.6978,1.6978,1.6978,1.6978,1.6978,1.6978,1.6978,1.6978,1.6978,1.6978,1.6978,1.6978,1.6978,1.6978,1.6978,1.6978,1.6978,1.6978,1.6978,1.6978,1.6978,1.6978,1.6978,1.6978,1.6978,1.6978,1.6978,1.6978,1.6978,1.6978,1.6978,1.6978,1.6978,1.6978,1.6978,1.6978,1.6978,1.6978,1.6978,1.6978,1.6978,1.6978,1.6978,1.6978,1.6978,1.6978,1.6978,1.6978,1.6978,1.6978,1.6978,1.6978,1.6978,1.6978,1.6978,1.6978,1.6978,1.6978,1.6978,1.6965,1.691,1.6822,1.6802,1.6897,1.6544,1.6476,1.6876,1.6537,1.6463,1.6802,1.6723,1.677,1.6978,1.6978,1.6978,1.6978,1.6978,1.6978,1.6978,1.6978,1.6978,1.6978,1.6978,1.6978,1.6978,1.6978,1.6978,1.6978,1.6978,1.6978,1.6978,1.6978,1.6978,1.6978,1.6978,1.6978,1.6978,1.7148,1.7216,1.7277,1.7277,1.7358,1.7419,1.7419,1.7419,1.7419,1.7419,1.7419,1.7419,1.7419,1.7256,1.7121,1.7066,1.706,1.7039,1.6985,1.6978,1.6978,1.6978,1.6978,1.6978,1.6978,1.6978,1.6978,1.6978,1.6978,1.6978,1.6978,1.6978,1.6978,1.6978,1.6978,1.6978,1.6978,1.6978,1.6978,1.6978,1.6978,1.6978,1.6978,1.6978,1.6978,1.6978,1.6978,1.6978,1.6978,1.6978,1.6978,1.6978,1.6978,1.6978,1.6978,1.6978,1.6978,1.6978,1.6978,1.6978,1.6978,1.6978,1.6978,1.6978,1.6978,1.6978,1.6978,1.6978,1.6978,1.6978,1.6978,1.6978,1.6978,1.6978,1.6978,1.6978,1.6978,1.6978,1.6958,1.6904,1.6897,1.6897,1.6897,1.672,1.6714,1.6965,1.672,1.6639,1.6777,1.673,1.677,1.6978,1.6978,1.6978,1.6978,1.6978,1.6978,1.6978,1.6978,1.6978,1.6978,1.6978,1.6978,1.6978,1.6978,1.6978,1.6978,1.6978,1.6978,1.6978,1.6978,1.6978,1.6978,1.6978,1.6978,1.6978,1.7419,1.7433,1.7439,1.7439,1.7446,1.7453,1.7453,1.7453,1.7453,1.7453,1.7453,1.7453,1.7453,1.7453,1.7392,1.7236,1.7216,1.7154,1.7019,1.7012,1.7005,1.6998,1.6992,1.6992,1.6978,1.6978,1.6978,1.6978,1.6978,1.6978,1.6978,1.6978,1.6978,1.6978,1.6978,1.6978,1.6978,1.6978,1.6978,1.6978,1.6978,1.6978,1.6978,1.6978,1.6978,1.6978,1.6978,1.6978,1.6978,1.6978,1.6978,1.6978,1.6978,1.6978,1.6978,1.6978,1.6978,1.6978,1.6978,1.6978,1.6978,1.6978,1.6978,1.6978,1.6978,1.6978,1.6978,1.6978,1.6978,1.6978,1.6978,1.6978,1.6978,1.6978,1.6978,1.6978,1.6978,1.6978,1.6931,1.673,1.6716,1.6716,1.6716,1.6716,1.6777,1.6971,1.6978,1.6978,1.6978,1.6842,1.6829,1.6978,1.6978,1.6978,1.6978,1.6978,1.6978,1.6978,1.6978,1.6978,1.6978,1.6978,1.6978,1.6978,1.6978,1.6978,1.6978,1.6978,1.6978,1.6978,1.6978,1.6978,1.6978,1.6978,1.6978,1.6978,1.7419,1.746,1.7541,1.7541,1.7684,1.7758,1.7758,1.7758,1.7758,1.7758,1.7758,1.7758,1.7758,1.7758,1.7704,1.75,1.7433,1.7351,1.7317,1.7317,1.7263,1.7148,1.7141,1.7093,1.6985,1.6978,1.6978,1.6978,1.6978,1.6978,1.6978,1.6978,1.6978,1.6978,1.6978,1.6978,1.6978,1.6978,1.6978,1.6978,1.6978,1.6978,1.6978,1.6978,1.6978,1.6978,1.6978,1.6978,1.6978,1.6978,1.6978,1.6978,1.6978,1.6978,1.6978,1.6978,1.6978,1.6978,1.6978,1.6978,1.6978,1.6978,1.6978,1.6978,1.6978,1.6978,1.6978,1.6978,1.6978,1.6978,1.6978,1.6978,1.6978,1.6978,1.6978,1.6978,1.6978,1.6978,1.6965,1.6931,1.6924,1.6924,1.6924,1.6924,1.6944,1.6978,1.6978,1.6978,1.6978,1.6944,1.6944,1.6978,1.6978,1.6978,1.6978,1.6978,1.6978,1.6978,1.6978,1.6978,1.6978,1.6978,1.6978,1.6978,1.6978,1.6978,1.6978,1.6978,1.6978,1.6978,1.6978,1.6978,1.6978,1.6978,1.6978,1.6978,1.7623,1.7684,1.7738,1.7738,1.7812,1.7915,1.7915,1.7915,1.7915,1.7915,1.7915,1.7915,1.7915,1.7915,1.7881,1.7758,1.7609,1.7494,1.7426,1.7419,1.7385,1.7297,1.7297,1.7229,1.708,1.708,1.7046,1.6978,1.6978,1.6978,1.6978,1.6978,1.6978,1.6978,1.6978,1.6978,1.6978,1.6978,1.6978,1.6978,1.6978,1.6978,1.6978,1.6978,1.6978,1.6978,1.6978,1.6978,1.6978,1.6978,1.6978,1.6978,1.6978,1.6978,1.6978,1.6978,1.6978,1.6978,1.6978,1.6978,1.6978,1.6978,1.6978,1.6978,1.6978,1.6978,1.6978,1.6978,1.6978,1.6978,1.6978,1.6978,1.6978,1.6978,1.6978,1.6978,1.6978,1.6978,1.6978,1.6978,1.6978,1.6978,1.6978,1.6978,1.6978,1.6978,1.6978,1.6978,1.6978,1.6978,1.6978,1.6978,1.6978,1.6978,1.6978,1.6978,1.6978,1.6978,1.6978,1.6978,1.6978,1.6978,1.6978,1.6978,1.6978,1.6978,1.6978,1.6978,1.6978,1.6978,1.6978,1.6978,1.6978,1.6978,1.6978,1.6978,1.7915,1.7915,1.7915,1.7915,1.7915,1.7915,1.7915,1.7915,1.7915,1.7915,1.7915,1.7915,1.7915,1.7915,1.7915,1.7915,1.7758,1.7629,1.7494,1.7487,1.748,1.7453,1.7453,1.7385,1.7229,1.7202,1.7134,1.7012,1.6992,1.6978,1.6978,1.6978,1.6978,1.6978,1.6978,1.6978,1.6978,1.6978,1.6978,1.6978,1.6978,1.6978,1.6978,1.6978,1.6978,1.6978,1.6978,1.6978,1.6978,1.6978,1.6978,1.6978,1.6978,1.6978,1.6978,1.6978,1.6978,1.6978,1.6978,1.6978,1.6978,1.6978,1.6978,1.6978,1.6978,1.6978,1.6978,1.6978,1.6978,1.6978,1.6978,1.6978,1.6978,1.6978,1.6978,1.6978,1.6978,1.6978,1.6978,1.6978,1.6978,1.6978,1.6978,1.6978,1.6978,1.6978,1.6978,1.6978,1.6978,1.6978,1.6978,1.6978,1.6978,1.6978,1.6978,1.6978,1.6978,1.6978,1.6978,1.6978,1.6978,1.6978,1.6978,1.6978,1.6978,1.6978,1.6978,1.6978,1.6978,1.6978,1.6978,1.6978,1.6978,1.6978,1.6978,1.6978,1.7915,1.7915,1.7915,1.7915,1.7915,1.7915,1.7915,1.7915,1.7915,1.7915,1.7915,1.7915,1.7915,1.7915,1.7915,1.7915,1.7846,1.7826,1.7847,1.7847,1.7738,1.7561,1.7561,1.7487,1.7392,1.7256,1.7182,1.7161,1.7039,1.6978,1.6978,1.6978,1.6978,1.6978,1.6978,1.6978,1.6978,1.6978,1.6978,1.6978,1.6978,1.6978,1.6978,1.6978,1.6978,1.6978,1.6978,1.6978,1.6978,1.6978,1.6978,1.6978,1.6978,1.6978,1.6978,1.6978,1.6978,1.6978,1.6978,1.6978,1.6978,1.6978,1.6978,1.6978,1.6978,1.6978,1.6978,1.6978,1.6978,1.6978,1.6978,1.6978,1.6978,1.6978,1.6978,1.6978,1.6978,1.6978,1.6978,1.6978,1.6978,1.6978,1.6978,1.6978,1.6978,1.6978,1.6978,1.6978,1.6978,1.6978,1.6978,1.6978,1.6978,1.6978,1.6978,1.6978,1.6978,1.6978,1.6978,1.6978,1.6978,1.6978,1.6978,1.6978,1.6978,1.6978,1.6978,1.6978,1.6978,1.6978,1.6978,1.6978,1.6978,1.6978,1.6978,1.6978,1.7915,1.7915,1.7915,1.7915,1.7915,1.7915,1.7915,1.7915,1.7915,1.7915,1.7915,1.7915,1.7915,1.7915,1.7915,1.7915,1.7915,1.7915,1.7915,1.7915,1.7881,1.7772,1.7758,1.7704,1.7494,1.7392,1.7277,1.7195,1.7127,1.7053,1.6978,1.6978,1.6978,1.6978,1.6978,1.6978,1.6978,1.6978,1.6978,1.6978,1.6978,1.6978,1.6978,1.6978,1.6978,1.6978,1.6978,1.6978,1.6978,1.6978,1.6978,1.6978,1.6978,1.6978,1.6978,1.6978,1.6978,1.6978,1.6978,1.6978,1.6978,1.6978,1.6978,1.6978,1.6978,1.6978,1.6978,1.6978,1.6978,1.6978,1.6978,1.6978,1.6978,1.6978,1.6978,1.6978,1.6978,1.6978,1.6978,1.6978,1.6978,1.6978,1.6978,1.6978,1.6978,1.6978,1.6978,1.6978,1.6978,1.6978,1.6978,1.6978,1.6978,1.6978,1.6978,1.6978,1.6978,1.6978,1.6978,1.6978,1.6978,1.6978,1.6978,1.6978,1.6978,1.6978,1.6978,1.6978,1.6978,1.6978,1.6978,1.6978,1.6978,1.6978,1.6978,1.6978,1.7915,1.7915,1.7915,1.7915,1.7915,1.7915,1.7915,1.7915,1.7915,1.7915,1.7915,1.7915,1.7915,1.7915,1.7915,1.7915,1.7915,1.7915,1.7915,1.7915,1.7915,1.7915,1.7915,1.7812,1.7649,1.7494,1.7412,1.7297,1.7229,1.7134,1.7026,1.6998,1.6978,1.6978,1.6978,1.6978,1.6978,1.6978,1.6978,1.6978,1.6978,1.6978,1.6978,1.6978,1.6978,1.6978,1.6978,1.6978,1.6978,1.6978,1.6978,1.6978,1.6978,1.6978,1.6978,1.6978,1.6978,1.6978,1.6978,1.6978,1.6978,1.6978,1.6978,1.6978,1.6978,1.6978,1.6978,1.6978,1.6978,1.6978,1.6978,1.6978,1.6978,1.6978,1.6978,1.6978,1.6978,1.6978,1.6978,1.6978,1.6978,1.6978,1.6978,1.6978,1.6978,1.6978,1.6978,1.6978,1.6978,1.6978,1.6978,1.6978,1.6978,1.6978,1.6978,1.6978,1.6978,1.6978,1.6978,1.6978,1.6978,1.6978,1.6978,1.6978,1.6978,1.6978,1.6978,1.6978,1.6978,1.6978,1.6978,1.6978,1.6978,1.6978,1.6978,1.6978,1.7915,1.7915,1.7915,1.7915,1.7915,1.7915,1.7915,1.7915,1.7915,1.7915,1.7915,1.7915,1.7915,1.7915,1.7915,1.7915,1.7915,1.7915,1.7915,1.7915,1.7915,1.7915,1.7915,1.786,1.7902,1.7704,1.7575,1.7561,1.7331,1.7188,1.7175,1.7039,1.6978,1.6978,1.6978,1.6978,1.6978,1.6978,1.6978,1.6978,1.6978,1.6978,1.6978,1.6978,1.6978,1.6978,1.6978,1.6978,1.6978,1.6978,1.6978,1.6978,1.6978,1.6978,1.6978,1.6978,1.6978,1.6978,1.6978,1.6978,1.6978,1.6978,1.6978,1.6978,1.6978,1.6978,1.6978,1.6978,1.6978,1.6978,1.6978,1.6978,1.6978,1.6978,1.6978,1.6978,1.6978,1.6978,1.6978,1.6978,1.6978,1.6978,1.6978,1.6978,1.6978,1.6978,1.6978,1.6978,1.6978,1.6978,1.6978,1.6978,1.6978,1.6978,1.6978,1.6978,1.6978,1.6978,1.6978,1.6978,1.6978,1.6978,1.6978,1.6978,1.6978,1.6978,1.6978,1.6978,1.6978,1.6978,1.6978,1.6978,1.6978,1.6978,1.6978,1.6978,1.7915,1.7915,1.7915,1.7915,1.7915,1.7915,1.7915,1.7915,1.7915,1.7915,1.7915,1.7915,1.7915,1.7915,1.7915,1.7915,1.7915,1.7915,1.7915,1.7915,1.7915,1.7915,1.7915,1.7915,1.7915,1.7812,1.7738,1.7595,1.7385,1.7283,1.7188,1.7046,1.6978,1.6978,1.6978,1.6978,1.6978,1.6978,1.6978,1.6978,1.6978,1.6978,1.6978,1.6978,1.6978,1.6978,1.6978,1.6978,1.6978,1.6978,1.6978,1.6978,1.6978,1.6978,1.6978,1.6978,1.6978,1.6978,1.6978,1.6978,1.6978,1.6978,1.6978,1.6978,1.6978,1.6978,1.6978,1.6978,1.6978,1.6978,1.6978,1.6978,1.6978,1.6978,1.6978,1.6978,1.6978,1.6978,1.6978,1.6978,1.6978,1.6978,1.6978,1.6978,1.6978,1.6978,1.6978,1.6978,1.6978,1.6978,1.6978,1.6978,1.6978,1.6978,1.6978,1.6978,1.6978,1.6978,1.6978,1.6978,1.6978,1.6978,1.6978,1.6978,1.6978,1.6978,1.6978,1.6978,1.6978,1.6978,1.6978,1.6978,1.6978,1.6978,1.6978,1.6978,1.7915,1.7915,1.7915,1.7915,1.7915,1.7915,1.7915,1.7915,1.7915,1.7915,1.7915,1.7915,1.7915,1.7915,1.7915,1.7915,1.7915,1.7915,1.7915,1.7915,1.7915,1.7915,1.7915,1.7915,1.7915,1.7915,1.7812,1.7663,1.7521,1.7365,1.7256,1.7066,1.6978,1.6978,1.6978,1.6978,1.6978,1.6978,1.6978,1.6978,1.6978,1.6978,1.6978,1.6978,1.6978,1.6978,1.6978,1.6978,1.6978,1.6978,1.6978,1.6978,1.6978,1.6978,1.6978,1.6978,1.6978,1.6978,1.6978,1.6978,1.6978,1.6978,1.6978,1.6978,1.6978,1.6978,1.6978,1.6978,1.6978,1.6978,1.6978,1.6978,1.6978,1.6978,1.6978,1.6978,1.6978,1.6978,1.6978,1.6978,1.6978,1.6978,1.6978,1.6978,1.6978,1.6978,1.6978,1.6978,1.6978,1.6978,1.6978,1.6978,1.6978,1.6978,1.6978,1.6978,1.6978,1.6978,1.6978,1.6978,1.6978,1.6978,1.6978,1.6978,1.6978,1.6978,1.6978,1.6978,1.6978,1.6978,1.6978,1.6978,1.6978,1.6978,1.6978,1.6978,1.7915,1.7915,1.7915,1.7915,1.7915,1.7915,1.7915,1.7915,1.7915,1.7915,1.7915,1.7915,1.7915,1.7915,1.7915,1.7915,1.7915,1.7915,1.7915,1.7915,1.7915,1.7915,1.7915,1.7915,1.7915,1.7915,1.7915,1.7915,1.7568,1.7419,1.7412,1.7121,1.6978,1.6978,1.6978,1.6978,1.6978,1.6978,1.6978,1.6978,1.6978,1.6978,1.6978,1.6978,1.6978,1.6978,1.6978,1.6978,1.6978,1.6978,1.6978,1.6978,1.6978,1.6978,1.6978,1.6978,1.6978,1.6978,1.6978,1.6978,1.6978,1.6978,1.6978,1.6978,1.6978,1.6978,1.6978,1.6978,1.6978,1.6978,1.6978,1.6978,1.6978,1.6978,1.6978,1.6978,1.6978,1.6978,1.6978,1.6978,1.6978,1.6978,1.6978,1.6978,1.6978,1.6978,1.6978,1.6978,1.6978,1.6978,1.6978,1.6978,1.6978,1.6978,1.6978,1.6978,1.6978,1.6978,1.6978,1.6978,1.6978,1.6978,1.6978,1.6978,1.6978,1.6978,1.6978,1.6978,1.6978,1.6978,1.6978,1.6978,1.6978,1.6978,1.6978,1.6978,1.7915,1.7915,1.7915,1.7915,1.7915,1.7915,1.7915,1.7915,1.7915,1.7915,1.7915,1.7915,1.7915,1.7915,1.7915,1.7915,1.7915,1.7915,1.7915,1.7915,1.7915,1.7915,1.7915,1.7915,1.7915,1.7915,1.7915,1.7915,1.7568,1.7419,1.7412,1.7121,1.6978,1.6978,1.6978,1.6978,1.6978,1.6978,1.6978,1.6978,1.6978,1.6978,1.6978,1.6978,1.6978,1.6978,1.6978,1.6978,1.6978,1.6978,1.6978,1.6978,1.6978,1.6978,1.6978,1.6978,1.6978,1.6978,1.6978,1.6978,1.6978,1.6978,1.6978,1.6978,1.6978,1.6978,1.6978,1.6978,1.6978,1.6978,1.6978,1.6978,1.6978,1.6978,1.6978,1.6978,1.6978,1.6978,1.6978,1.6978,1.6978,1.6978,1.6978,1.6978,1.6978,1.6978,1.6978,1.6978,1.6978,1.6978,1.6978,1.6978,1.6978,1.6978,1.6978,1.6978,1.6978,1.6978,1.6978,1.6978,1.6978,1.6978,1.6978,1.6978,1.6978,1.6978,1.6978,1.6978,1.6978,1.6978,1.6978,1.6978,1.6978,1.6978,1.6978,1.6978,1.7915,1.7915,1.7915,1.7915,1.7915,1.7915,1.7915,1.7915,1.7915,1.7915,1.7915,1.7915,1.7915,1.7915,1.7915,1.7915,1.7915,1.7846,1.7772,1.7772,1.7758,1.7684,1.7684,1.7738,1.7915,1.7812,1.7772,1.7772,1.748,1.7331,1.7324,1.7087,1.6978,1.6978,1.6978,1.6978,1.6978,1.6978,1.6978,1.6978,1.6978,1.6978,1.6978,1.6978,1.6978,1.6978,1.6978,1.6978,1.6978,1.6978,1.6978,1.6978,1.6978,1.6978,1.6978,1.6978,1.6978,1.6978,1.6978,1.6978,1.6978,1.6978,1.6978,1.6978,1.6978,1.6978,1.6978,1.6978,1.6978,1.6978,1.6978,1.6978,1.6978,1.6978,1.6978,1.6978,1.6978,1.6978,1.6978,1.6978,1.6978,1.6978,1.6978,1.6978,1.6978,1.6978,1.6978,1.6978,1.6978,1.6978,1.6978,1.6978,1.6978,1.6978,1.6978,1.6978,1.6978,1.6978,1.6978,1.6978,1.6978,1.6978,1.6978,1.6978,1.6978,1.6978,1.6978,1.6978,1.6978,1.6978,1.6978,1.6978,1.6978,1.6978,1.6978,1.6978,1.7915,1.7915,1.7915,1.7915,1.7915,1.7915,1.7915,1.7915,1.7915,1.7915,1.7915,1.7915,1.7915,1.7902,1.7846,1.7846,1.7881,1.7772,1.7575,1.7575,1.7514,1.7426,1.7419,1.7548,1.7868,1.7704,1.7575,1.7575,1.7338,1.7195,1.7188,1.7046,1.6978,1.6978,1.6978,1.6978,1.6978,1.6978,1.6978,1.6978,1.6978,1.6978,1.6978,1.6978,1.6978,1.6978,1.6978,1.6978,1.6978,1.6978,1.6978,1.6978,1.6978,1.6978,1.6978,1.6978,1.6978,1.6978,1.6978,1.6978,1.6978,1.6978,1.6978,1.6978,1.6978,1.6978,1.6978,1.6978,1.6978,1.6978,1.6978,1.6978,1.6978,1.6978,1.6978,1.6978,1.6978,1.6978,1.6978,1.6978,1.6978,1.6978,1.6978,1.6978,1.6978,1.6978,1.6978,1.6978,1.6978,1.6978,1.6978,1.6978,1.6978,1.6978,1.6978,1.6978,1.6978,1.6978,1.6978,1.6978,1.6978,1.6978,1.6978,1.6978,1.6978,1.6978,1.6978,1.6978,1.6978,1.6978,1.6978,1.6978,1.6978,1.6978,1.6978,1.6978,1.7915,1.7915,1.7915,1.7915,1.7915,1.7915,1.7915,1.7915,1.7915,1.7915,1.7915,1.7915,1.7915,1.7758,1.7649,1.7649,1.7589,1.75,1.7473,1.7412,1.7453,1.7419,1.7419,1.7453,1.7514,1.7487,1.7412,1.7412,1.7283,1.7195,1.7188,1.7046,1.6978,1.6978,1.6978,1.6978,1.6978,1.6978,1.6978,1.6978,1.6978,1.6978,1.6978,1.6978,1.6978,1.6978,1.6978,1.6978,1.6978,1.6978,1.6978,1.6978,1.6978,1.6978,1.6978,1.6978,1.6978,1.6978,1.6978,1.6978,1.6978,1.6978,1.6978,1.6978,1.6978,1.6978,1.6978,1.6978,1.6978,1.6978,1.6978,1.6978,1.6978,1.6978,1.6978,1.6978,1.6978,1.6978,1.6978,1.6978,1.6978,1.6978,1.6978,1.6978,1.6978,1.6978,1.6978,1.6978,1.6978,1.6978,1.6978,1.6978,1.6978,1.6978,1.6978,1.6978,1.6978,1.6978,1.6978,1.6978,1.6978,1.6978,1.6978,1.6978,1.6978,1.6978,1.6978,1.6978,1.6978,1.6978,1.6978,1.6978,1.6978,1.6978,1.6978,1.6978,1.7632,1.7915,1.7915,1.7915,1.7915,1.7915,1.7915,1.7915,1.7846,1.7772,1.7758,1.7738,1.767,1.7582,1.7487,1.7487,1.7467,1.7392,1.7317,1.7311,1.7283,1.7216,1.7209,1.7209,1.7209,1.7209,1.7243,1.7311,1.7161,1.7093,1.7087,1.7019,1.6978,1.6978,1.6978,1.6978,1.6978,1.6978,1.6978,1.6978,1.6978,1.6978,1.6978,1.6978,1.6978,1.6978,1.6978,1.6978,1.6978,1.6978,1.6978,1.6978,1.6978,1.6978,1.6978,1.6978,1.6978,1.6978,1.6978,1.6978,1.6978,1.6978,1.6978,1.6978,1.6978,1.6978,1.6978,1.6978,1.6978,1.6978,1.6978,1.6978,1.6978,1.6978,1.6978,1.6978,1.6978,1.6978,1.6978,1.6978,1.6978,1.6978,1.6978,1.6978,1.6978,1.6978,1.6978,1.6978,1.6978,1.6978,1.6978,1.6978,1.6978,1.6978,1.6978,1.6978,1.6978,1.6978,1.6978,1.6978,1.6978,1.6978,1.6978,1.6978,1.6978,1.6978,1.6978,1.6978,1.6978,1.6978,1.6978,1.6978,1.6978,1.6978,1.6978,1.6978,1.585,1.6342,1.6342,1.6342,1.6797,1.7141,1.7141,1.7557,1.7792,1.7609,1.7575,1.7507,1.7433,1.7399,1.7372,1.7344,1.7344,1.729,1.7161,1.7154,1.7107,1.6985,1.6978,1.6978,1.6978,1.6978,1.7039,1.7154,1.7039,1.6978,1.6978,1.6978,1.6978,1.6978,1.6978,1.6978,1.6978,1.6978,1.6978,1.6978,1.6978,1.6978,1.6978,1.6978,1.6978,1.6978,1.6978,1.6978,1.6978,1.6978,1.6978,1.6978,1.6978,1.6978,1.6978,1.6978,1.6978,1.6978,1.6978,1.6978,1.6978,1.6978,1.6978,1.6978,1.6978,1.6978,1.6978,1.6978,1.6978,1.6978,1.6978,1.6978,1.6978,1.6978,1.6978,1.6978,1.6978,1.6978,1.6978,1.6978,1.6978,1.6978,1.6978,1.6978,1.6978,1.6978,1.6978,1.6978,1.6978,1.6978,1.6978,1.6978,1.6978,1.6978,1.6978,1.6978,1.6978,1.6978,1.6978,1.6978,1.6978,1.6978,1.6978,1.6978,1.6978,1.6978,1.6978,1.6978,1.6978,1.6978,1.6978,1.6978,1.6978,1.6978,1.6978,1.6978,1.0047,1.0102,1.0102,1.0102,1.2274,1.3999,1.3999,1.6096,1.7615,1.7595,1.748,1.7446,1.7419,1.7304,1.7175,1.7053,1.7039,1.7032,1.7012,1.7012,1.6998,1.6978,1.6978,1.6978,1.6978,1.6978,1.6992,1.7012,1.6992,1.6978,1.6978,1.6978,1.6978,1.6978,1.6978,1.6978,1.6978,1.6978,1.6978,1.6978,1.6978,1.6978,1.6978,1.6978,1.6978,1.6978,1.6978,1.6978,1.6978,1.6978,1.6978,1.6978,1.6978,1.6978,1.6978,1.6978,1.6978,1.6978,1.6978,1.6978,1.6978,1.6978,1.6978,1.6978,1.6978,1.6978,1.6978,1.6978,1.6978,1.6978,1.6978,1.6978,1.6978,1.6978,1.6978,1.6978,1.6978,1.6978,1.6978,1.6978,1.6978,1.6978,1.6978,1.6978,1.6978,1.6978,1.6978,1.6978,1.6978,1.6978,1.6978,1.6978,1.6978,1.6978,1.6978,1.6978,1.6978,1.6978,1.6978,1.6978,1.6978,1.6978,1.6978,1.6978,1.6978,1.6978,1.6978,1.6978,1.6978,1.6978,1.6978,1.6978,1.6978,1.6978,1.6978,1.6978,0.8596,0.8878,0.8878,0.8878,1.0008,1.0917,1.0917,1.1937,1.3272,1.4841,1.5004,1.5533,1.7022,1.7114,1.7046,1.6985,1.6978,1.6978,1.6978,1.6978,1.6978,1.6978,1.6978,1.6978,1.6978,1.6978,1.6978,1.6978,1.6978,1.6978,1.6978,1.6978,1.6978,1.6978,1.6978,1.6978,1.6978,1.6978,1.6978,1.6978,1.6978,1.6978,1.6978,1.6978,1.6978,1.6978,1.6978,1.6978,1.6978,1.6978,1.6978,1.6978,1.6978,1.6978,1.6978,1.6978,1.6978,1.6978,1.6978,1.6978,1.6978,1.6978,1.6978,1.6978,1.6978,1.6978,1.6978,1.6978,1.6978,1.6978,1.6978,1.6978,1.6978,1.6978,1.6978,1.6978,1.6978,1.6978,1.6978,1.6978,1.6978,1.6978,1.6978,1.6978,1.6978,1.6978,1.6978,1.6978,1.6978,1.6978,1.6978,1.6978,1.6978,1.6978,1.6978,1.6978,1.6978,1.6978,1.6978,1.6978,1.6978,1.6978,1.6978,1.6978,1.6978,1.6978,1.6978,1.6978,1.6978,1.6978,1.6978,1.6978,1.6978,1.6978,1.6978,1.6978]},{"header":{"parameterUnit":"m.s-1","parameterCategory":1,"la1":30.6,"la2":28.766,"lo1":-90.7593,"lo2":-88.6598,"dy":0.0162,"dx":0.0183,"nx":116,"ny":114,"refTime":"2023-04-21T06:00:00:Z","depth":0,"parameterNumber":3,"parameterNumberName":"V-component_of_WINDS"},"data":[0.0,0.0,0.0,0.0,0.0,0.0,0.0,0.0,0.0,0.0,0.0,0.0,0.0,0.0,0.0,0.0,0.0,0.0,0.0,0.0,0.0,0.0,0.0,0.0,0.0,0.0,0.0,0.0,0.0,0.0,0.0,0.0,0.0,0.0,0.0,0.0,0.0,0.0,0.0,0.0,0.0,0.0,0.0,0.0,0.0,0.0,0.0,0.0,0.0,0.0,0.0,0.0,0.0,0.0,0.0,0.0,0.0,0.0,0.0,0.0,0.0,0.0,0.0,0.0,0.0,0.0,0.0,0.0,0.0,0.0,0.0,0.0,0.0,0.0,0.0,0.0,0.0,0.0,0.0,0.0,0.0,0.0,0.0,0.0,0.0,0.0,0.0,0.0,0.0,0.0,0.0,0.0,0.0,0.0,0.0,0.0,0.0,0.0,0.0,0.0,0.0,0.0,0.0,0.0,0.0,0.0,0.0,0.0,0.0,0.0,0.0,0.0,0.0,0.0,0.0,0.0,0.0,0.0,0.0,0.0,0.0,0.0,0.0,0.0,0.0,0.0,0.0,0.0,0.0,0.0,0.0,0.0,0.0,0.0,0.0,0.0,0.0,0.0,0.0,0.0,0.0,0.0,0.0,0.0,0.0,0.0,0.0,0.0,0.0,0.0,0.0,0.0,0.0,0.0,0.0,0.0,0.0,0.0,0.0,0.0,0.0,0.0,0.0,0.0,0.0,0.0,0.0,0.0,0.0,0.0,0.0,0.0,0.0,0.0,0.0,0.0,0.0,0.0,0.0,0.0,0.0,0.0,0.0,0.0,0.0,0.0,0.0,0.0,0.0,0.0,0.0,0.0,0.0,0.0,0.0,0.0,0.0,0.0,0.0,0.0,0.0,0.0,0.0,0.0,0.0,0.0,0.0,0.0,0.0,0.0,0.0,0.0,0.0,0.0,0.0,0.0,0.0,0.0,0.0,0.0,0.0,0.0,0.0,0.0,0.0,0.0,0.0,0.0,0.0,0.0,0.0,0.0,0.0,0.0,0.0,0.0,0.0,0.0,0.0,0.0,0.0,0.0,0.0,0.0,0.0,0.0,0.0,0.0,0.0,0.0,0.0,0.0,0.0,0.0,0.0,0.0,0.0,0.0,0.0,0.0,0.0,0.0,0.0,0.0,0.0,0.0,0.0,0.0,0.0,0.0,0.0,0.0,0.0,0.0,0.0,0.0,0.0,0.0,0.0,0.0,0.0,0.0,0.0,0.0,0.0,0.0,0.0,0.0,0.0,0.0,0.0,0.0,0.0,0.0,0.0,0.0,0.0,0.0,0.0,0.0,0.0,0.0,0.0,0.0,0.0,0.0,0.0,0.0,0.0,0.0,0.0,0.0,0.0,0.0,0.0,0.0,0.0,0.0,0.0,0.0,0.0,0.0,0.0,0.0,0.0,0.0,0.0,0.0,0.0,0.0,0.0,0.0,0.0,0.0,0.0,0.0,0.0,0.0,0.0,0.0,0.0,0.0,0.0,0.0,0.0,0.0,0.0,0.0,0.0,0.0,0.0,0.0,0.0,0.0,0.0,0.0,0.0,0.0,0.0,0.0,0.0,0.0,0.0,0.0,0.0,0.0,0.0,0.0,0.0,0.0,0.0,0.0,0.0,0.0,0.0,0.0,0.0,0.0,0.0,0.0,0.0,0.0,0.0,0.0,0.0,0.0,0.0,0.0,0.0,0.0,0.0,0.0,0.0,0.0,0.0,0.0,0.0,0.0,0.0,0.0,0.0,0.0,0.0,0.0,0.0,0.0,0.0,0.0,0.0,0.0,0.0,0.0,0.0,0.0,0.0,0.0,0.0,0.0,0.0,0.0,0.0,0.0,0.0,0.0,0.0,0.0,0.0,0.0,0.0,0.0,0.0,0.0,0.0,0.0,0.0,0.0,0.0,0.0,0.0,0.0,0.0,0.0,0.0,0.0,0.0,0.0,0.0,0.0,0.0,0.0,0.0,0.0,0.0,0.0,0.0,0.0,0.0,0.0,0.0,0.0,0.0,0.0,0.0,0.0,0.0,0.0,0.0,0.0,0.0,0.0,0.0,0.0,0.0,0.0,0.0,0.0,0.0,0.0,0.0,0.0,0.0,0.0,0.0,0.0,0.0,0.0,0.0,0.0,0.0,0.0,0.0,0.0,0.0,0.0,0.0,0.0,0.0,0.0,0.0,0.0,0.0,0.0,0.0,0.0,0.0,0.0,0.0,0.0,0.0,0.0,0.0,0.0,0.0,0.0,0.0,0.0,0.0,0.0,0.0,0.0,0.0,0.0,0.0,0.0,0.0,0.0,0.0,0.0,0.0,0.0,0.0,0.0,0.0,0.0,0.0,0.0,0.0,0.0,0.0,0.0,0.0,0.0,0.0,0.0,0.0,0.0,0.0,0.0,0.0,0.0,0.0,0.0,0.0,0.0,0.0,0.0,0.0,0.0,0.0,0.0,0.0,0.0,0.0,0.0,0.0,0.0,0.0,0.0,0.0,0.0,0.0,0.0,0.0,0.0,0.0,0.0,0.0,0.0,0.0,0.0,0.0,0.0,0.0,0.0,0.0,0.0,0.0,0.0,0.0,0.0,0.0,0.0,0.0,0.0,0.0,0.0,0.0,0.0,0.0,0.0,0.0,0.0,0.0,0.0,0.0,0.0,0.0,0.0,0.0,0.0,0.0,0.0,0.0,0.0,0.0,0.0,0.0,0.0,0.0,0.0,0.0,0.0,0.0,0.0,0.0,0.0,0.0,0.0,0.0,0.0,0.0,0.0,0.0,0.0,0.0,0.0,0.0,0.0,0.0,0.0,0.0,0.0,0.0,0.0,0.0,0.0,0.0,0.0,0.0,0.0,0.0,0.0,0.0,0.0,0.0,0.0,0.0,0.0,0.0,0.0,0.0,0.0,0.0,0.0,0.0,0.0,0.0,0.0,0.0,0.0,0.0,0.0,0.0,0.0,0.0,0.0,0.0,0.0,0.0,0.0,0.0,0.0,0.0,0.0,0.0,0.0,0.0,0.0,0.0,0.0,0.0,0.0,0.0,0.0,0.0,0.0,0.0,0.0,0.0,0.0,0.0,0.0,0.0,0.0,0.0,0.0,0.0,0.0,0.0,0.0,0.0,0.0,0.0,0.0,0.0,0.0,0.0,0.0,0.0,0.0,0.0,0.0,0.0,0.0,0.0,0.0,0.0,0.0,0.0,0.0,0.0,0.0,0.0,0.0,0.0,0.0,0.0,0.0,0.0,0.0,0.0,0.0,0.0,0.0,0.0,0.0,0.0,0.0,0.0,0.0,0.0,0.0,0.0,0.0,0.0,0.0,0.0,0.0,0.0,0.0,0.0,0.0,0.0,0.0,0.0,0.0,0.0,0.0,0.0,0.0,0.0,0.0,0.0,0.0,0.0,0.0,0.0,0.0,0.0,0.0,0.0,0.0,0.0,0.0,0.0,0.0,0.0,0.0,0.0,0.0,0.0,0.0,0.0,0.0,0.0,0.0,0.0,0.0,0.0,0.0,0.0,0.0,0.0,0.0,0.0,0.0,0.0,0.0,0.0,0.0,0.0,0.0,0.0,0.0,0.0,0.0,0.0,0.0,0.0,0.0,0.0,0.0,0.0,0.0,0.0,0.0,0.0,0.0,0.0,0.0,0.0,0.0,0.0,0.0,0.0,0.0,0.0,0.0,0.0,0.0,0.0,0.0,0.0,0.0,0.0,0.0,0.0,0.0,0.0,0.0,0.0,0.0,0.0,0.0,0.0,0.0,0.0,0.0,0.0,0.0,0.0,0.0,0.0,0.0,0.0,0.0,0.0,0.0,0.0,0.0,0.0,0.0,0.0,0.0,0.0,0.0,0.0,0.0,0.0,0.0,0.0,0.0,0.0,0.0,0.0,0.0,0.0,0.0,0.0,0.0,0.0,0.0,0.0,0.0,0.0,0.0,0.0,0.0,0.0,0.0,0.0,0.0,0.0,0.0,0.0,0.0,0.0,0.0,0.0,0.0,0.0,0.0,0.0,0.0,0.0,0.0,0.0,0.0,0.0,0.0,0.0,0.0,0.0,0.0,0.0,0.0,0.0,0.0,0.0,0.0,0.0,0.0,0.0,0.0,0.0,0.0,0.0,0.0,0.0,0.0,0.0,0.0,0.0,0.0,0.0,0.0,0.0,0.0,0.0,0.0,0.0,0.0,0.0,0.0,0.0,0.0,0.0,0.0,0.0,0.0,0.0,0.0,0.0,0.0,0.0,0.0,0.0,0.0,0.0,0.0,0.0,0.0,0.0,0.0,0.0,0.0,0.0,0.0,0.0,0.0,0.0,0.0,0.0,0.0,0.0,0.0,0.0,0.0,0.0,0.0,0.0,0.0,0.0,0.0,0.0,0.0,0.0,0.0,0.0,0.0,0.0,0.0,0.0,0.0,0.0,0.0,0.0,0.0,0.0,0.0,0.0,0.0,0.0,0.0,0.0,0.0,0.0,0.0,0.0,0.0,0.0,0.0,0.0,0.0,0.0,0.0,0.0,0.0,0.0,0.0,0.0,0.0,0.0,0.0,0.0,0.0,0.0,0.0,0.0,0.0,0.0,0.0,0.0,0.0,0.0,0.0,0.0,0.0,0.0,0.0,0.0,0.0,0.0,0.0,0.0,0.0,0.0,0.0,0.0,0.0,0.0,0.0,0.0,0.0,0.0,0.0,0.0,0.0,0.0,0.0,0.0,0.0,0.0,0.0,0.0,0.0,0.0,0.0,0.0,0.0,0.0,0.0,0.0,0.0,0.0,0.0,0.0,0.0,0.0,0.0,0.0,0.0,0.0,0.0,0.0,0.0,0.0,0.0,0.0,0.0,0.0,0.0,0.0,0.0,0.0,0.0,0.0,0.0,0.0,0.0,0.0,0.0,0.0,0.0,0.0,0.0,0.0,0.0,0.0,0.0,0.0,0.0,0.0,0.0,0.0,0.0,0.0,0.0,0.0,0.0,0.0,0.0,0.0,0.0,0.0,0.0,0.0,0.0,0.0,0.0,0.0,0.0,0.0,0.0,0.0,0.0,0.0,0.0,0.0,0.0,0.0,0.0,0.0,0.0,0.0,0.0,0.0,0.0,0.0,0.0,0.0,0.0,0.0,0.0,0.0,0.0,0.0,0.0,0.0,0.0,0.0,0.0,0.0,0.0,0.0,0.0,0.0,0.0,0.0,0.0,0.0,0.0,0.0,0.0,0.0,0.0,0.0,0.0,0.0,0.0,0.0,0.0,0.0,0.0,0.0,0.0,0.0,0.0,0.0,0.0,0.0,0.0,0.0,0.0,0.0,0.0,0.0,0.0,0.0,0.0,0.0,0.0,0.0,0.0,0.0,0.0,0.0,0.0,0.0,0.0,0.0,0.0,0.0,0.0,0.0,0.0,0.0,0.0,0.0,0.0,0.0,0.0,0.0,0.0,0.0,0.0,0.0,0.0,0.0,0.0,0.0,0.0,0.0,0.0,0.0,0.0,0.0,0.0,0.0,0.0,0.0,0.0,0.0,0.0,0.0,0.0,0.0,0.0,0.0,0.0,0.0,0.0,0.0,0.0,0.0,0.0,0.0,0.0,0.0,0.0,0.0,0.0,0.0,0.0,0.0,0.0,0.0,0.0,0.0,0.0,0.0,0.0,0.0,0.0,0.0,0.0,0.0,0.0,0.0,0.0,0.0,0.0,0.0,0.0,0.0,0.0,0.0,0.0,0.0,0.0,0.0,0.0,0.0,0.0,0.0,0.0,0.0,0.0,0.0,0.0,0.0,0.0,0.0,0.0,0.0,0.0,0.0,0.0,0.0,0.0,0.0,0.0,0.0,0.0,0.0,0.0,0.0,0.0,0.0,0.0,0.0,0.0,0.0,0.0,0.0,0.0,0.0,0.0,0.0,0.0,0.0,0.0,0.0,0.0,0.0,0.0,0.0,0.0,0.0,0.0,0.0,0.0,0.0,0.0,0.0,0.0,0.0,0.0,0.0,0.0,0.0,0.0,0.0,0.0,0.0,0.0,0.0,0.0,0.0,0.0,0.0,0.0,0.0,0.0,0.0,0.0,0.0,0.0,0.0,0.0,6.0154,5.9946,0.0,0.0,0.0,0.0,0.0,0.0,0.0,0.0,0.0,0.0,0.0,0.0,0.0,0.0,0.0,0.0,0.0,0.0,0.0,0.0,0.0,0.0,0.0,0.0,0.0,0.0,0.0,0.0,0.0,0.0,0.0,0.0,0.0,0.0,0.0,0.0,0.0,6.1719,6.1719,6.1719,6.1719,6.1719,6.1677,6.1585,0.0,0.0,0.0,0.0,0.0,0.0,0.0,0.0,0.0,0.0,0.0,0.0,0.0,0.0,0.0,0.0,0.0,0.0,0.0,0.0,0.0,0.0,0.0,0.0,0.0,0.0,0.0,0.0,0.0,0.0,0.0,0.0,0.0,0.0,0.0,0.0,0.0,0.0,0.0,0.0,0.0,0.0,0.0,0.0,0.0,0.0,0.0,0.0,0.0,0.0,0.0,0.0,0.0,0.0,0.0,0.0,0.0,0.0,0.0,0.0,0.0,0.0,0.0,0.0,0.0,0.0,0.0,0.0,0.0,0.0,6.0527,6.045,0.0,0.0,0.0,0.0,0.0,0.0,0.0,0.0,0.0,0.0,0.0,0.0,0.0,0.0,0.0,0.0,0.0,0.0,0.0,0.0,0.0,0.0,0.0,6.1719,6.1719,6.1719,6.1719,6.1719,0.0,0.0,0.0,0.0,0.0,0.0,0.0,6.1719,6.1719,6.1719,6.1719,6.1719,6.1719,6.1719,6.1719,6.1719,6.1719,0.0,0.0,0.0,0.0,0.0,0.0,0.0,0.0,0.0,0.0,0.0,0.0,0.0,0.0,0.0,0.0,0.0,0.0,0.0,0.0,0.0,0.0,0.0,0.0,0.0,0.0,0.0,0.0,0.0,0.0,0.0,0.0,0.0,0.0,0.0,0.0,0.0,0.0,0.0,0.0,0.0,0.0,0.0,0.0,0.0,0.0,0.0,0.0,0.0,0.0,0.0,0.0,0.0,0.0,0.0,0.0,0.0,0.0,0.0,0.0,0.0,0.0,0.0,6.0787,6.0787,6.0787,6.0787,6.0787,6.0787,6.0787,6.0787,6.0787,6.0787,0.0,0.0,0.0,0.0,0.0,0.0,0.0,0.0,0.0,0.0,0.0,0.0,0.0,0.0,0.0,0.0,0.0,0.0,0.0,0.0,0.0,6.1719,6.1719,6.1719,6.1719,6.1719,6.1719,0.0,0.0,0.0,0.0,0.0,6.1719,6.1719,6.1719,6.1719,6.1719,6.1719,6.1719,6.1719,6.1719,6.1719,6.1719,6.1719,6.1719,0.0,0.0,0.0,0.0,0.0,0.0,0.0,0.0,0.0,0.0,0.0,0.0,0.0,0.0,0.0,0.0,0.0,0.0,0.0,0.0,0.0,0.0,0.0,0.0,0.0,0.0,0.0,0.0,0.0,0.0,0.0,0.0,0.0,0.0,0.0,0.0,0.0,0.0,0.0,0.0,0.0,6.0787,6.0787,0.0,0.0,0.0,0.0,0.0,0.0,0.0,0.0,0.0,0.0,0.0,0.0,0.0,6.0787,6.0787,6.0787,6.0787,6.0787,6.0787,6.0787,6.0787,6.0787,6.0787,6.0787,6.0787,0.0,6.0787,6.0787,0.0,0.0,0.0,0.0,0.0,0.0,0.0,0.0,0.0,0.0,0.0,0.0,0.0,0.0,0.0,0.0,0.0,0.0,0.0,0.0,0.0,6.1719,6.1719,6.1719,6.1719,6.1719,6.1719,6.1719,0.0,0.0,0.0,6.1719,6.1719,6.1719,6.1719,6.1719,6.1719,6.1719,6.1719,6.1719,6.1719,6.1719,6.1719,6.1719,6.1719,6.1719,0.0,0.0,0.0,0.0,0.0,0.0,0.0,0.0,0.0,0.0,0.0,0.0,0.0,0.0,0.0,0.0,0.0,0.0,0.0,0.0,0.0,0.0,0.0,0.0,0.0,0.0,0.0,0.0,0.0,0.0,0.0,0.0,0.0,0.0,0.0,0.0,0.0,0.0,0.0,6.0787,6.0787,6.0787,6.0787,6.0787,0.0,0.0,0.0,0.0,0.0,0.0,0.0,0.0,0.0,6.0787,6.0787,6.0787,6.0787,6.0787,6.0787,6.0787,6.0787,6.0787,6.0787,6.0787,6.0787,6.0787,6.0787,6.0787,6.0787,6.0787,6.0787,6.0787,0.0,0.0,0.0,0.0,6.0659,6.0495,0.0,0.0,0.0,0.0,0.0,0.0,0.0,0.0,0.0,0.0,0.0,0.0,6.1719,6.1719,6.1719,6.1719,6.1719,6.1719,6.1719,6.1719,6.1719,6.1719,6.1719,6.1719,6.1719,6.1719,6.1719,6.1719,6.1719,6.1719,6.1719,6.1719,6.1719,6.1719,6.1719,6.1719,6.1719,6.1719,6.1719,6.1679,0.0,0.0,0.0,0.0,0.0,0.0,0.0,0.0,0.0,0.0,0.0,0.0,0.0,0.0,0.0,0.0,0.0,0.0,0.0,0.0,0.0,0.0,0.0,0.0,0.0,0.0,0.0,0.0,0.0,0.0,0.0,0.0,0.0,0.0,0.0,0.0,0.0,6.0787,6.0787,6.0787,6.0787,6.0787,0.0,0.0,0.0,0.0,0.0,0.0,6.1133,6.132,6.1435,6.1435,6.1435,6.1435,6.1435,6.1435,6.1435,6.1435,6.1435,6.1435,6.1435,6.1435,6.1435,6.1435,6.1435,6.1435,6.1396,6.0973,6.0787,6.0787,6.0787,6.0787,6.0787,6.0787,6.0787,6.0787,0.0,0.0,0.0,0.0,0.0,0.0,0.0,0.0,0.0,0.0,0.0,6.1719,6.1719,6.1719,6.1719,6.1719,6.1719,6.1719,6.1719,6.1719,6.1719,6.1719,6.1719,6.1719,6.1719,6.1719,6.1719,6.1719,6.1719,6.1719,6.1719,6.1719,6.1719,6.1719,6.1719,6.1719,6.1719,6.1719,6.1719,6.1719,6.1679,0.0,0.0,0.0,0.0,0.0,0.0,0.0,0.0,0.0,0.0,0.0,0.0,0.0,0.0,0.0,0.0,0.0,0.0,0.0,0.0,0.0,0.0,0.0,0.0,0.0,0.0,0.0,0.0,0.0,0.0,0.0,0.0,0.0,0.0,0.0,0.0,0.0,0.0,6.0787,6.0787,0.0,0.0,0.0,0.0,6.0787,6.1556,6.2018,6.2018,6.2743,6.316,6.316,6.316,6.316,6.316,6.316,6.316,6.316,6.316,6.316,6.316,6.316,6.316,6.316,6.316,6.316,6.3045,6.1473,6.0787,6.0787,6.0787,6.0787,6.0787,6.0787,6.0787,6.0787,0.0,0.0,0.0,0.0,0.0,0.0,0.0,0.0,6.1719,6.1719,6.1719,6.1719,6.1719,6.1719,6.1719,6.1719,6.1719,6.1719,6.1719,6.1719,6.1719,6.1719,6.1719,6.1719,6.1719,6.1719,6.1719,6.1719,6.1719,6.1719,6.1719,6.1719,6.1719,6.1719,6.1719,6.1719,6.1719,6.1719,6.1719,6.1719,6.1719,6.1631,0.0,0.0,0.0,0.0,0.0,0.0,0.0,0.0,0.0,0.0,0.0,0.0,0.0,0.0,0.0,0.0,0.0,0.0,0.0,0.0,0.0,0.0,0.0,0.0,0.0,0.0,0.0,0.0,0.0,0.0,0.0,0.0,0.0,0.0,0.0,0.0,0.0,6.2397,6.2397,0.0,6.2397,6.2397,6.2397,6.2397,6.2704,6.2858,6.2858,6.3121,6.3314,6.3314,6.3314,6.3314,6.3314,6.3314,6.3314,6.3314,6.3314,6.3314,6.3314,6.3314,6.3314,6.3314,6.3314,6.3314,6.3237,6.266,6.2397,6.2397,6.2397,6.2089,6.1633,6.1633,6.1287,6.0787,0.0,0.0,0.0,0.0,0.0,0.0,0.0,0.0,6.1719,6.1719,6.1719,6.1719,6.1719,6.1719,6.1719,6.1719,6.1719,6.1719,6.1719,6.1719,6.1719,6.1719,6.1719,6.1719,6.1719,6.1719,6.1719,6.1719,6.1719,6.1719,6.1719,6.1719,6.1719,6.1719,6.1719,6.1679,6.1634,6.1634,6.1677,6.1719,6.1719,6.1631,6.1507,0.0,0.0,0.0,0.0,0.0,0.0,0.0,0.0,0.0,0.0,0.0,0.0,0.0,0.0,0.0,0.0,0.0,0.0,0.0,0.0,0.0,0.0,0.0,0.0,0.0,0.0,0.0,0.0,0.0,0.0,0.0,0.0,0.0,0.0,6.3314,6.3314,6.3314,6.3314,6.3314,6.3314,6.3314,6.3314,6.3314,6.3583,6.3737,6.3737,6.4006,6.4166,6.4166,6.4166,6.4166,6.4166,6.4166,6.4166,6.4166,6.4166,6.4166,6.4166,6.4166,6.4166,6.4166,6.4166,6.4166,6.4166,6.4166,6.4166,6.4122,6.3545,6.2974,6.2518,6.2518,6.2127,6.1627,0.0,0.0,0.0,0.0,0.0,0.0,0.0,6.1719,6.1719,6.168,6.1679,6.1679,6.1679,6.1679,6.1679,6.1679,6.1679,6.1679,6.1679,6.1679,6.1718,6.1719,6.1758,6.1797,6.1797,6.1797,6.1797,6.1797,6.1797,6.1797,6.1797,6.1797,6.1797,6.1797,6.1797,6.1672,6.1546,6.1546,6.1619,6.1719,6.1679,6.1629,6.1511,0.0,0.0,0.0,0.0,0.0,0.0,0.0,0.0,0.0,0.0,0.0,0.0,0.0,0.0,0.0,0.0,0.0,0.0,0.0,0.0,0.0,0.0,0.0,0.0,0.0,0.0,0.0,0.0,0.0,0.0,0.0,0.0,0.0,6.3506,6.3391,6.3391,6.3391,6.3391,6.3391,6.3391,6.3391,6.3391,6.3391,6.4166,6.4628,6.4628,6.5436,6.5904,6.5904,6.5904,6.5904,6.5904,6.5904,6.5904,6.5904,6.5904,6.5904,6.5904,6.5904,6.5904,6.5904,6.5904,6.5904,6.5904,6.5904,6.5904,6.575,6.4045,6.3352,6.3352,6.3352,6.3314,6.3314,0.0,0.0,0.0,0.0,0.0,0.0,6.1719,6.1719,6.1678,6.1576,6.1532,6.1514,6.1409,6.1398,6.1398,6.1398,6.1398,6.1398,6.1398,6.1398,6.1746,6.2467,6.3199,6.3594,6.3594,6.3594,6.3594,6.3594,6.3594,6.3594,6.3594,6.3594,6.3594,6.3594,6.3594,6.3202,6.2573,6.2573,6.2225,6.1679,6.1496,6.1467,6.1499,0.0,0.0,0.0,0.0,0.0,0.0,0.0,0.0,0.0,0.0,0.0,0.0,0.0,0.0,0.0,0.0,0.0,0.0,0.0,0.0,0.0,0.0,0.0,0.0,0.0,0.0,0.0,0.0,0.0,0.0,0.0,6.5551,6.5474,6.5205,6.5205,6.5205,6.5205,6.5205,6.5205,6.5205,6.5205,6.5205,6.5205,6.5397,6.5551,6.5551,6.5782,6.5904,6.5904,6.5904,6.5904,6.5904,6.5904,6.5904,6.5904,6.5904,6.5904,6.5904,6.5904,6.5904,6.5904,6.5904,6.5904,6.5904,6.5904,6.5904,6.5865,6.5359,6.4782,6.4237,6.4237,6.3852,6.3314,0.0,0.0,0.0,0.0,0.0,0.0,6.1521,6.1832,6.2011,6.1915,6.2256,6.2423,6.2379,6.237,6.237,6.237,6.237,6.2399,6.2462,6.2514,6.2834,6.3417,6.3982,6.4297,6.4297,6.4297,6.4297,6.4297,6.4297,6.4297,6.4297,6.4297,6.4297,6.4297,6.4297,6.3939,6.3357,6.342,6.3105,6.2563,6.234,6.218,6.2085,6.2377,6.2432,6.2328,6.2288,6.2256,6.2256,6.2256,0.0,0.0,0.0,0.0,0.0,0.0,0.0,0.0,0.0,0.0,0.0,0.0,0.0,0.0,0.0,0.0,0.0,0.0,0.0,0.0,0.0,0.0,0.0,0.0,6.5904,6.5904,6.5904,6.5904,6.5904,6.5904,6.5904,6.5904,6.5904,6.5904,6.5904,6.5904,6.6211,6.6404,6.6404,6.6744,6.6936,6.6936,6.6936,6.6936,6.6936,6.6936,6.6936,6.6936,6.6936,6.6936,6.6936,6.6936,6.6936,6.6936,6.6936,6.6936,6.6936,6.6936,6.6744,6.6365,0.0,0.0,0.0,0.0,6.482,6.4397,0.0,0.0,0.0,0.0,0.0,0.0,6.1595,6.2175,6.2633,6.2614,6.3307,6.3764,6.3744,6.374,6.374,6.374,6.374,6.3809,6.4019,6.4226,6.4368,6.4368,6.4487,6.4528,6.4528,6.4528,6.4528,6.4528,6.4528,6.4528,6.4528,6.4528,6.4528,6.4528,6.4528,6.4327,6.3941,6.4146,6.4051,6.3803,6.3794,6.3427,6.2971,6.3725,6.392,6.3737,6.3614,6.3574,6.3574,6.3574,0.0,0.0,0.0,0.0,0.0,0.0,0.0,0.0,0.0,0.0,0.0,0.0,0.0,0.0,0.0,0.0,0.0,0.0,0.0,0.0,0.0,0.0,0.0,0.0,6.6167,6.6167,6.6167,6.6167,6.6167,6.6051,6.6134,6.6167,6.6167,6.6167,6.6167,6.6167,6.6821,6.725,6.725,6.7975,0.0,0.0,0.0,6.8391,6.8391,6.8391,6.8391,6.8391,6.8391,6.8391,6.8391,6.8391,6.8391,6.8391,6.8391,6.8391,6.8391,6.8391,6.7936,6.7173,6.625,6.5904,6.5904,6.5904,6.5904,6.5904,0.0,0.0,0.0,0.0,0.0,0.0,6.3336,6.345,6.3517,6.3395,6.3525,6.3569,6.3395,6.3411,6.3411,6.3411,6.3411,6.3395,6.3454,6.4244,6.4714,6.4714,6.5516,6.6005,6.6005,6.6005,6.6005,6.6005,6.6005,6.6005,6.6005,6.6005,6.6005,6.6005,6.6005,6.5584,6.4863,6.4896,6.4498,6.3878,6.4552,6.4312,6.36,6.3505,6.3427,6.3406,6.3388,6.3365,6.3365,6.3365,6.3324,6.3441,6.4156,6.4369,0.0,0.0,0.0,0.0,0.0,0.0,0.0,0.0,0.0,0.0,0.0,0.0,0.0,0.0,0.0,0.0,0.0,0.0,0.0,6.793,6.793,6.793,6.793,6.793,6.7667,6.6942,6.7475,6.793,6.793,6.793,6.793,6.793,6.8045,6.816,6.816,6.8314,6.8391,6.8391,6.8391,6.8391,6.8391,6.8391,6.8391,6.8391,6.8391,0.0,6.8391,6.8391,6.8391,6.8391,6.8391,6.8391,6.8391,6.8391,6.8314,6.8007,6.6474,6.5904,6.5904,6.5904,6.5904,6.5904,0.0,0.0,0.0,0.0,0.0,0.0,6.3535,6.3922,6.4189,6.4094,6.4464,6.4717,6.4608,6.4589,6.4589,6.4589,6.4662,6.4707,6.4707,6.5269,6.5588,6.5588,6.6107,6.6387,6.6387,6.6387,6.6387,6.6387,6.6387,6.6387,6.6387,6.6387,6.6387,6.6387,6.6387,6.6104,6.5623,6.5722,6.5432,6.4986,6.5421,6.5343,6.4935,6.4773,6.4707,6.469,6.4651,6.4589,6.4589,6.4589,6.4589,6.4666,6.5128,6.5243,6.532,0.0,0.0,0.0,0.0,0.0,0.0,0.0,0.0,0.0,0.0,0.0,0.0,0.0,0.0,6.7744,6.7744,0.0,6.8391,6.8391,6.8391,6.8391,6.8391,6.8776,6.8737,6.7859,6.8122,6.8391,6.8391,6.8391,6.8391,6.8391,6.8814,6.9237,6.9622,7.0052,7.0514,7.093,7.0968,7.0968,7.0968,7.0968,7.0968,7.0968,7.0968,7.0968,7.0968,7.0968,7.0968,7.0968,7.0968,7.0699,7.0244,6.9391,6.9045,6.893,6.7667,6.7167,6.7167,6.7167,6.7167,6.7167,0.0,0.0,0.0,0.0,0.0,0.0,0.0,6.4397,6.4859,6.4859,6.5474,6.5904,6.5904,6.5904,6.5904,6.5904,6.6019,6.6074,6.6074,6.6222,6.6318,6.6318,6.6318,6.6318,6.6318,6.6318,6.6318,6.6318,6.6318,6.6318,6.6318,6.6318,6.6318,6.6318,6.6318,6.6222,6.6084,6.6247,6.6217,6.6074,6.6074,6.6074,6.6074,6.6074,6.6074,6.6044,6.5958,6.5904,6.5904,6.5904,6.5904,6.5904,6.5904,6.5904,6.5936,6.6096,6.6134,0.0,0.0,0.0,0.0,0.0,0.0,0.0,0.0,6.8391,6.8391,6.8391,6.8545,6.866,6.866,6.8776,6.893,6.9122,6.9122,6.9199,6.9353,7.0007,7.0161,6.9468,6.9237,6.9199,6.9353,6.9391,6.9391,6.9391,7.0045,7.0706,7.136,7.2052,7.2783,7.3469,7.3507,7.3507,7.3507,7.3507,7.3507,7.3507,7.3507,7.3507,7.3507,7.3507,7.3507,7.3507,7.3507,7.3091,7.236,7.1014,7.0437,7.0353,6.9661,6.9391,6.9314,6.8622,6.8391,6.8391,0.0,0.0,0.0,0.0,0.0,0.0,0.0,0.0,6.5743,6.5743,6.5827,6.5904,6.5904,6.5904,6.5904,6.5904,6.5897,6.5915,6.5915,6.5952,6.597,6.597,6.597,6.597,6.597,6.597,6.597,6.597,6.597,6.597,6.597,6.597,6.597,6.597,6.597,6.5952,6.5921,6.5958,6.5952,6.5915,6.5915,6.5915,6.5915,6.5915,6.5915,6.5915,6.5916,6.5904,6.5904,6.5904,6.5904,6.5904,6.5904,6.5904,6.6058,6.675,6.6981,6.7128,6.7891,6.8122,6.8122,6.8237,6.8237,6.8276,0.0,6.8391,6.8391,6.8391,6.9007,6.9552,6.9552,7.0129,7.086,7.1636,7.179,7.2052,7.2815,7.3007,7.3046,7.293,7.2245,7.2091,7.2853,7.293,7.293,7.293,7.3007,7.3122,7.3199,7.3315,7.3392,7.3507,7.3507,7.3507,7.3507,7.3507,7.3507,7.3507,7.3507,7.3507,7.3507,7.3507,7.3507,7.3507,7.3507,7.343,7.3353,7.3161,7.3084,7.3084,7.2969,7.293,7.2545,6.9507,6.8391,6.8391,0.0,0.0,0.0,0.0,0.0,0.0,0.0,0.0,0.0,6.5904,6.5904,6.5904,6.5904,6.5904,6.5904,6.5904,6.5904,6.5904,6.5904,6.5904,6.5904,6.5904,6.5904,6.5904,6.5904,6.5904,6.5904,6.5904,6.5904,6.5904,6.5904,6.6365,6.6596,6.6635,6.7128,6.7359,6.7359,6.7359,6.7359,6.7359,6.7359,6.7359,6.7359,6.7359,6.7359,6.7244,6.6244,6.5904,0.0,6.6442,6.6596,6.6712,6.7205,6.7359,6.7436,6.7744,6.7859,6.7936,6.8314,6.8391,6.8507,6.9045,6.9161,6.9276,6.9744,6.986,6.986,6.986,7.0552,7.1129,7.1129,7.1822,7.2545,7.2899,7.2976,7.3091,7.343,7.3507,7.3661,7.4123,7.3899,7.363,7.3507,7.3507,7.3507,7.3507,7.3507,7.3699,7.4161,7.4199,7.443,7.4938,7.4938,7.4938,7.4938,7.4938,7.4938,7.4938,7.4938,7.4938,7.4938,7.4938,7.4938,7.4938,7.443,7.4199,7.4161,7.3699,7.3507,7.3507,7.3507,7.3507,7.3315,7.1892,7.1353,7.1353,0.0,0.0,0.0,0.0,0.0,0.0,0.0,0.0,0.0,0.0,6.5904,6.5904,6.5904,6.6096,6.6244,6.6244,6.6436,6.6474,6.625,6.6474,6.6474,6.625,6.6474,6.659,6.659,6.659,6.659,6.659,6.659,6.659,6.659,6.7205,6.7475,6.7475,6.8122,6.8391,6.8391,6.8391,6.8391,6.8391,6.8391,6.8391,6.8391,6.8391,6.8391,6.8237,6.7013,6.659,6.6667,6.7244,6.7475,6.7552,6.8199,6.8391,6.8468,6.8699,6.893,6.9084,6.9084,6.9084,6.9237,6.986,7.0014,7.0244,7.1052,7.1245,7.1321,7.1591,7.2129,7.2552,7.2552,7.3091,7.3584,7.3776,7.4046,7.4276,7.4507,7.4738,7.5091,7.5668,7.5745,7.5515,7.4938,7.4661,7.4546,7.4546,7.4745,7.513,7.5707,7.5745,7.6053,7.6669,7.6669,7.6669,7.6669,7.6669,7.6669,7.6669,7.6669,7.6669,7.6669,7.6669,7.6669,7.663,7.6015,7.5745,7.5707,7.513,7.4899,7.4899,7.4899,7.4738,7.4546,7.4546,7.4019,7.3269,0.0,0.0,0.0,0.0,0.0,0.0,0.0,0.0,0.0,0.0,0.0,0.0,0.0,6.6596,6.7058,6.7058,6.7859,6.7975,6.7135,6.7859,6.7936,6.7096,6.7859,6.8314,6.8314,6.8314,6.8314,6.8314,6.8314,6.8314,6.8314,6.8353,6.8353,6.8353,6.8391,6.8391,6.8391,6.8391,6.8391,6.8391,6.8391,6.8391,6.8391,6.8391,6.8391,6.8391,6.8353,6.8314,6.8314,6.8353,6.8353,6.8353,6.8391,6.8391,6.8584,6.9391,7.0206,7.0821,7.0821,7.0821,7.0821,7.086,7.086,7.1091,7.1944,7.2175,7.2399,7.3238,7.343,7.3469,7.3469,7.3469,7.3776,7.4546,7.5361,7.6207,7.7061,7.7869,7.8369,7.8369,7.8369,7.8369,7.8369,7.7638,7.7176,7.7176,7.7907,7.8369,7.8369,7.8369,7.8407,7.8407,7.8407,7.8407,7.8407,7.8407,7.8407,7.8407,7.8407,7.8407,7.8407,7.8407,7.8407,7.8407,7.8407,7.8369,7.8369,7.8369,7.8369,7.8369,7.8369,7.7869,7.7176,7.7176,7.5263,7.2612,0.0,0.0,0.0,0.0,0.0,0.0,0.0,0.0,0.0,0.0,0.0,0.0,0.0,0.0,0.0,0.0,6.8237,6.8276,6.7975,6.8237,6.8276,6.7975,6.8237,6.8391,6.8391,6.8391,6.8391,6.8391,6.8391,6.8391,6.8391,6.9007,6.9244,6.9276,6.9821,7.0052,7.0052,7.0052,7.0052,7.0052,7.0052,7.0052,7.0052,7.0052,7.0052,7.0052,0.0,6.9353,6.8507,6.9084,6.9244,6.9353,6.9898,7.0052,7.0129,7.0398,7.0706,7.1014,7.1591,7.1752,7.1898,7.2476,7.2622,7.2699,7.3014,7.3053,7.3161,7.343,7.393,7.4469,7.5053,7.563,7.6284,7.7092,7.7476,7.7753,7.8061,7.833,7.8484,7.8484,7.8484,7.8484,7.8484,7.8253,7.8099,7.8099,7.8369,7.8484,7.8484,7.8484,7.8484,7.8484,7.8484,7.8484,7.8484,7.8484,7.8484,7.8484,7.8484,7.8484,7.8484,7.8484,7.8484,7.8484,7.8484,7.8484,7.8484,7.8484,7.8275,7.7882,7.7882,7.7483,7.6898,7.6898,7.5977,7.4673,0.0,0.0,0.0,0.0,0.0,0.0,0.0,0.0,0.0,0.0,0.0,0.0,0.0,0.0,0.0,0.0,0.0,6.9161,6.8891,6.9122,6.9161,6.8891,6.9122,6.9276,6.9276,6.9276,6.9276,6.9276,6.9276,6.9276,6.9321,6.986,7.0129,7.0167,7.0667,7.0898,7.0898,7.0898,7.0898,7.0898,7.0898,7.0898,7.0898,7.0898,7.0898,0.0,7.0898,7.0206,6.9391,6.9937,7.0129,7.0206,7.0744,7.1091,7.136,7.136,7.1591,7.1937,7.2514,7.2668,7.2783,7.3353,7.3507,7.3584,7.3853,7.4161,7.4469,7.4784,7.5515,7.6245,7.6784,7.7369,7.7907,7.8407,7.8754,7.8977,7.8977,7.9208,7.9446,7.9446,7.9446,7.9446,7.9446,7.9446,7.9292,7.8977,7.9254,7.9446,7.9446,7.9446,7.9446,7.9446,7.9446,7.9446,7.9446,7.9446,7.9446,7.9446,7.9446,7.9446,7.9446,7.9446,7.9446,7.9446,7.9446,7.9446,7.9446,7.9446,7.9204,7.8856,7.8856,7.8427,7.7812,7.7812,7.711,7.6056,0.0,0.0,0.0,0.0,0.0,0.0,0.0,0.0,0.0,0.0,0.0,0.0,0.0,0.0,0.0,0.0,0.0,0.0,6.9821,7.0475,7.0552,6.9783,7.0475,7.0898,7.0898,7.0898,7.0898,7.0898,7.0898,7.0898,7.0898,7.0898,7.0898,7.0898,7.0898,7.0898,7.0898,7.0898,7.0898,7.0898,7.0898,7.0898,7.0898,7.0898,7.0898,7.0898,7.0937,7.0975,7.0975,7.0937,7.0898,7.0898,7.0937,7.1514,7.2213,7.2252,7.286,7.3507,7.3546,7.3546,7.3584,7.3661,7.3699,7.3892,7.47,7.5515,7.6361,7.7176,7.7984,7.8523,7.8561,7.8561,7.86,7.8638,7.9323,7.9854,7.9854,8.0592,8.1093,8.1093,8.1093,8.1093,8.1093,8.1093,8.0746,7.9931,8.0631,8.1093,8.1093,8.1093,8.1093,8.1093,8.1093,8.1093,8.1093,8.1093,8.1093,8.1093,8.1093,8.1093,8.1093,8.1093,8.1093,8.1093,8.1093,8.1077,8.1061,8.1061,8.1045,8.0991,8.0967,8.0459,7.9721,7.9697,7.8437,7.6665,0.0,0.0,0.0,0.0,0.0,0.0,0.0,0.0,0.0,0.0,0.0,0.0,0.0,0.0,0.0,0.0,0.0,0.0,7.0591,7.0783,7.0821,7.0591,7.0783,7.0898,7.0898,7.0898,7.0898,7.0898,7.0898,7.0898,7.0898,7.0898,7.0898,7.0898,7.0898,7.0898,7.0898,7.0898,7.0898,7.0898,7.0898,7.0898,7.0898,7.0898,7.0898,7.0975,7.1636,7.1867,7.179,7.1129,7.0898,7.1014,7.1668,7.2021,7.2329,7.2976,7.3315,7.3623,7.4238,7.4392,7.47,7.6015,7.6322,7.6553,7.7361,7.7715,7.7946,7.8138,7.8369,7.8715,7.9361,7.9477,7.9669,8.0323,8.0631,8.0785,8.0785,8.0977,8.1093,8.1093,8.1093,8.1093,8.1093,8.1093,8.1016,8.0785,8.0977,8.1093,8.1093,8.1093,8.1093,8.1093,8.1093,8.1093,8.1093,8.1093,8.1093,8.1093,8.1093,8.1093,8.1093,8.1093,8.1093,8.1093,8.1093,8.083,8.0352,8.0352,8.0096,7.9648,7.9201,7.8899,7.8601,7.8122,7.7617,7.7139,0.0,0.0,0.0,0.0,0.0,0.0,0.0,0.0,0.0,0.0,0.0,0.0,0.0,0.0,0.0,0.0,0.0,0.0,0.0,7.0898,7.0898,7.0898,7.0898,7.0898,7.0898,7.0898,7.0898,7.0898,7.0898,7.0898,7.0898,7.0898,7.0898,7.0898,7.0898,7.0898,7.0898,7.0898,7.0898,0.0,0.0,7.1475,7.1514,7.1898,7.2052,7.2129,7.2591,7.2783,7.2706,7.2206,7.1783,7.1552,7.2059,7.2706,7.3399,7.3892,7.4584,7.5284,7.5707,7.6092,7.6592,7.7599,7.783,7.7946,7.8407,7.8792,7.9054,7.9054,7.9361,7.9785,8.0285,8.0362,8.0516,8.1016,8.1093,8.1093,8.1093,8.1093,8.1093,8.1093,8.1093,8.1093,8.1093,8.1093,8.1093,8.1093,8.1093,8.1093,8.1093,8.1093,8.1093,8.1093,8.1093,8.1093,8.1093,8.1093,8.1093,8.1093,8.1093,8.1093,8.1085,8.0813,8.0838,8.1069,8.0519,8.0182,8.0096,7.9827,7.9502,7.9163,7.8841,7.8691,7.8653,7.8285,7.7965,7.7739,0.0,0.0,0.0,0.0,0.0,0.0,0.0,0.0,0.0,0.0,0.0,0.0,0.0,0.0,0.0,0.0,0.0,0.0,0.0,0.0,7.0898,7.0898,7.0898,7.0898,7.0898,7.0898,7.0898,7.0898,7.0898,7.0898,7.0898,7.0898,7.0898,7.0898,7.0898,7.0898,7.0898,7.1014,7.1052,7.1168,7.2014,7.2367,7.2476,0.0,7.3507,7.3507,7.3623,7.3661,7.3661,7.3661,7.3091,7.2406,7.2521,7.3514,7.4738,7.4976,7.613,7.733,7.7445,7.7984,7.8523,7.8638,7.8677,7.8715,7.883,7.9438,7.9969,7.9969,8.0554,8.1093,8.1093,8.1093,8.1093,8.1093,8.1093,8.1093,8.1093,8.1093,8.1093,8.1093,8.1093,8.1093,8.1093,8.1093,8.1093,8.1093,8.1093,8.1093,8.1093,8.1093,8.1093,8.1093,8.1093,8.1093,8.1093,8.1093,8.1093,8.1093,8.1093,8.1093,8.1077,8.049,8.0564,8.1053,7.9946,7.9723,8.0048,7.9535,7.9324,7.9301,7.914,7.9128,7.9187,7.901,7.8615,7.8159,0.0,0.0,0.0,0.0,0.0,0.0,0.0,0.0,0.0,0.0,7.0706,7.0744,0.0,0.0,0.0,0.0,0.0,0.0,0.0,0.0,0.0,7.0898,7.0898,7.0898,7.0898,7.0898,7.0898,7.0898,7.0898,7.0898,7.0898,7.0898,7.0898,7.0898,7.0898,7.0898,7.0937,7.1668,7.1982,7.2059,7.2937,7.3276,7.3276,7.343,0.0,0.0,7.4238,7.4507,7.4507,7.4507,7.393,7.3392,7.4046,7.4476,7.4976,7.6438,7.7061,7.7445,7.8099,7.8407,7.8677,7.94,7.9592,7.9746,8.0477,8.0785,8.0862,8.0862,8.0977,8.1093,8.1093,8.1093,8.1093,8.1093,8.1093,8.1093,8.1093,8.1093,8.1093,8.1093,8.1093,8.1093,8.1093,8.1093,8.1093,8.1093,8.1093,8.1093,8.1093,8.1093,8.1093,8.1093,8.1093,8.1093,8.1093,8.1093,8.1093,8.1093,8.1093,8.1093,8.1093,8.0975,8.0983,8.1085,8.0855,8.0499,8.0067,7.9979,7.9939,7.9858,7.8853,7.8766,7.9081,7.8035,7.7548,7.7465,0.0,0.0,0.0,0.0,0.0,0.0,0.0,6.9513,7.0475,7.086,7.0898,7.0898,7.0898,7.0898,7.0898,0.0,0.0,0.0,0.0,0.0,0.0,0.0,7.0898,7.0898,7.0898,7.0898,7.0898,7.0898,0.0,7.0898,7.0898,7.0898,7.0898,7.0937,7.136,7.1598,7.1629,7.2514,7.2899,7.2937,7.3776,7.4123,7.4161,0.0,0.0,0.0,7.5245,7.5399,7.5399,7.5399,7.513,7.4776,7.47,7.5322,7.6207,7.7061,7.79,7.8707,7.9054,7.9515,7.9939,8.0362,8.0477,8.0592,8.1016,8.1093,8.1093,8.1093,8.1093,8.1093,8.1093,8.1093,8.1093,8.1093,8.1093,8.1093,8.1093,8.1093,8.1093,8.1093,8.1093,8.1246,8.167,8.1708,8.19,8.237,8.2401,8.2016,8.1131,8.1093,8.1093,8.1093,8.1093,8.1093,8.1093,8.1093,8.1093,8.1093,8.1093,8.1093,8.1085,8.0741,8.0758,8.1069,8.0399,8.0105,8.0096,7.9737,7.9447,7.9093,7.8536,7.8245,7.8136,7.754,7.7289,7.7289,0.0,0.0,0.0,0.0,0.0,0.0,0.0,6.9821,7.0898,7.0898,7.0898,7.0898,7.0898,7.0898,7.0898,0.0,0.0,0.0,0.0,0.0,0.0,0.0,0.0,0.0,7.0898,0.0,0.0,7.0898,7.0898,0.0,0.0,0.0,0.0,0.0,7.1905,7.229,7.2514,7.3399,7.3776,0.0,0.0,7.4976,7.5053,0.0,0.0,0.0,0.0,7.6015,7.6015,7.6015,7.6015,7.5861,7.52,7.6053,7.733,7.7522,7.8631,7.9854,8.0046,8.0592,8.1093,8.1093,8.1093,8.1093,8.1093,8.1093,8.1093,8.1093,8.1093,8.1093,8.1093,8.1093,8.1093,8.1093,8.1093,8.1093,8.1093,8.1093,8.117,8.1323,8.1362,8.167,8.2516,8.2593,8.2862,8.3563,8.3601,8.3024,8.1708,8.1631,8.1631,8.1631,8.1631,8.1631,8.1631,8.1631,8.1631,8.1631,8.1631,8.1631,8.1623,8.1071,8.1144,8.16,8.058,8.0411,8.0793,8.0148,7.9497,7.8928,7.8637,7.809,7.7495,7.735,7.7289,7.7289,0.0,0.0,0.0,0.0,0.0,0.0,0.0,6.9821,7.0898,7.0898,7.0898,7.0898,7.0898,7.0898,7.0898,0.0,0.0,0.0,0.0,0.0,0.0,0.0,0.0,0.0,0.0,0.0,0.0,7.0898,7.0898,0.0,0.0,0.0,0.0,0.0,0.0,7.2629,7.343,7.4238,0.0,0.0,0.0,0.0,0.0,0.0,0.0,0.0,0.0,7.6015,7.6015,7.6015,7.6015,7.5976,7.5899,7.6515,7.7445,7.8176,7.9054,7.9969,8.0785,8.1054,8.1093,8.1093,8.1093,8.1093,8.1093,8.1093,8.1093,8.1093,8.1093,8.1093,8.1093,8.1093,8.1093,8.1093,8.1093,8.1093,8.1093,8.1093,8.1362,8.2093,8.217,8.2516,8.3409,8.3486,8.3524,8.3601,8.3601,8.3524,8.337,8.337,8.337,8.337,8.337,8.337,8.337,8.337,8.337,8.337,8.337,8.337,8.337,8.333,8.3292,8.3362,8.3251,8.3234,8.319,8.2342,8.1666,8.0974,7.9638,7.8754,7.8118,7.7525,7.7289,7.7289,0.0,0.0,0.0,0.0,0.0,0.0,6.8391,6.9821,7.0898,7.0898,7.0898,7.0898,7.0898,7.0898,7.0898,7.0898,0.0,0.0,0.0,0.0,0.0,0.0,0.0,0.0,0.0,0.0,7.0898,7.0898,7.0898,0.0,0.0,0.0,0.0,0.0,0.0,7.3437,7.4276,7.513,0.0,0.0,0.0,0.0,0.0,0.0,0.0,0.0,0.0,0.0,7.6015,7.6015,7.6015,7.6015,7.6015,7.6938,7.8099,7.8407,7.9477,8.0669,8.1016,8.1093,8.1093,8.1093,8.1093,8.1093,8.1093,8.1093,8.1093,8.1093,8.1093,8.1093,8.1093,8.1093,8.1093,8.1093,8.1093,8.1093,8.1093,8.1516,8.1939,8.2247,8.2747,8.3401,8.4286,8.4362,8.4593,8.5055,8.5093,8.5093,8.5093,8.414,8.3601,8.3601,8.3601,8.3601,8.3601,8.3601,8.3601,8.3601,8.3601,8.3601,8.3601,8.3601,8.3601,8.3601,8.3601,8.3601,8.3538,8.2798,8.2146,8.146,8.0506,7.9721,7.9179,7.8897,7.8809,7.8809,0.0,0.0,0.0,0.0,0.0,6.8507,6.8737,6.9975,7.0898,7.0898,7.0898,7.0898,7.0898,7.0898,7.0898,7.0898,7.0898,0.0,0.0,0.0,0.0,0.0,0.0,0.0,0.0,0.0,7.0898,7.0898,7.0898,7.0898,0.0,0.0,7.1514,7.2591,0.0,0.0,0.0,0.0,0.0,0.0,0.0,0.0,0.0,0.0,0.0,0.0,0.0,0.0,0.0,0.0,0.0,7.6053,7.6284,7.7361,7.8484,7.8484,7.9708,8.1093,8.1093,8.1093,8.1093,8.1093,8.1093,8.1093,8.1093,8.1093,8.1093,8.1093,8.1093,8.1093,8.1093,8.1093,8.1093,8.1093,8.1093,8.117,8.14,8.1939,8.2477,8.3016,8.3593,8.4324,8.517,8.5239,8.547,8.6055,8.6094,8.6094,8.6094,8.4978,8.4324,8.4324,8.4324,8.4324,8.4324,8.4324,8.4324,8.4324,8.4324,8.4324,8.4324,8.4324,8.4324,8.4324,8.4324,8.4324,8.4261,8.3587,8.2904,8.2274,8.1583,8.0922,8.0333,8.0169,8.0192,8.0289,0.0,0.0,0.0,0.0,0.0,0.0,6.9552,7.0398,7.0898,7.0898,7.0898,7.0898,7.0898,7.0898,7.0898,7.0898,7.0898,0.0,0.0,0.0,0.0,0.0,0.0,0.0,0.0,0.0,7.0898,7.0898,7.0898,7.0898,7.0898,7.0898,7.1822,7.3507,0.0,0.0,0.0,0.0,0.0,0.0,0.0,0.0,7.6015,0.0,0.0,0.0,0.0,0.0,0.0,0.0,0.0,0.0,0.0,7.783,7.8484,7.8484,7.9708,8.1093,8.1093,8.1093,8.1093,8.1093,8.1093,8.1093,8.1093,8.1093,8.1093,8.1093,8.1093,8.1093,8.1093,8.1093,8.1093,8.1093,8.1093,8.1362,8.217,8.2285,8.2939,8.4662,8.4893,8.5201,8.6017,8.6094,8.6094,8.6094,8.6094,8.6094,8.6094,8.6094,8.6055,8.6055,8.6055,8.6055,8.6055,8.6055,8.6055,8.6055,8.6055,8.6055,8.6055,8.6055,8.6055,8.6055,8.6055,8.6055,8.6017,8.5201,8.4482,8.3816,8.3005,8.2282,8.1603,8.1017,8.1164,8.1494,0.0,0.0,0.0,0.0,0.0,0.0,0.0,7.0398,7.0898,7.0898,7.0898,7.0898,7.0898,7.0898,7.0898,7.0898,7.0898,0.0,0.0,0.0,0.0,0.0,0.0,0.0,0.0,0.0,7.0898,7.0898,7.0898,7.0898,7.0898,7.1514,7.2399,7.3507,7.4084,7.4938,0.0,0.0,0.0,0.0,0.0,7.6015,7.6015,0.0,0.0,0.0,0.0,0.0,0.0,0.0,0.0,0.0,0.0,0.0,0.0,7.9208,8.0208,8.1093,8.1093,8.1093,8.1093,8.1093,8.1093,8.1093,8.1093,8.1093,8.1093,8.1093,8.1093,8.1093,8.1093,8.1093,8.1093,8.1093,8.1093,8.1362,8.217,8.2824,8.3593,8.4739,8.5401,8.5824,8.6094,8.6632,8.6978,8.6978,8.7555,8.7872,8.7872,8.7872,8.7325,8.6132,8.6094,8.6094,8.6094,8.6094,8.6094,8.6094,8.6094,8.6094,8.6094,8.6094,8.6094,8.6094,8.6094,8.6094,8.603,8.532,8.489,8.4632,8.3979,8.359,8.3386,8.3176,8.3226,8.335,0.0,0.0,0.0,0.0,0.0,0.0,0.0,7.0591,7.0898,7.0898,7.0898,7.0898,7.0898,7.0898,7.0898,7.0898,7.0898,0.0,0.0,0.0,0.0,0.0,0.0,0.0,7.0898,7.0898,7.0898,7.0898,7.0898,7.0898,7.0937,7.1783,7.2668,7.3546,7.4353,7.5168,0.0,0.0,0.0,0.0,7.6015,7.6015,7.6015,0.0,0.0,0.0,0.0,0.0,0.0,0.0,0.0,0.0,0.0,0.0,0.0,0.0,8.0669,8.1093,8.1093,8.1093,8.1093,8.1093,8.1093,8.1093,8.1093,8.1093,8.1093,8.1093,8.1093,8.1093,8.1093,8.1093,8.1093,8.1093,8.1362,8.1823,8.267,8.3555,8.4401,8.5247,8.6094,8.6594,8.6594,8.7363,8.7902,8.7902,8.841,8.8718,8.8718,8.8718,8.8218,8.7132,8.7094,8.7094,8.7094,8.7094,8.7094,8.7094,8.7094,8.7094,8.7094,8.7094,8.7094,8.7094,8.7094,8.6901,0.0,8.6124,8.5762,8.5428,8.5058,8.492,8.4899,8.4628,8.4696,8.4855,0.0,0.0,0.0,0.0,0.0,0.0,0.0,7.0898,7.0898,7.0898,7.0898,7.0898,7.0898,7.0898,7.0898,7.0898,0.0,0.0,0.0,0.0,0.0,0.0,0.0,0.0,7.0898,7.0898,7.0898,7.0898,7.0898,7.0937,7.1014,7.186,7.2745,7.3623,7.443,7.5245,0.0,0.0,0.0,0.0,7.6015,7.6015,0.0,0.0,0.0,0.0,0.0,0.0,0.0,0.0,0.0,0.0,0.0,0.0,0.0,0.0,0.0,0.0,0.0,8.1093,8.1093,8.1093,8.1093,8.1093,8.1093,8.1093,0.0,8.1093,8.1093,8.1093,8.1093,8.1093,8.1131,8.117,8.1823,8.2631,8.3563,8.4478,8.5363,8.6094,8.6978,8.7478,8.7478,8.8295,8.8795,8.8795,8.8833,8.8872,8.8872,8.8872,8.8872,8.8872,8.8872,8.8833,8.8718,8.8718,8.8718,8.8718,8.8718,8.8718,8.8718,8.8718,8.8718,8.8718,8.8718,8.8256,8.7478,8.7478,8.7017,8.6286,8.6286,8.6286,8.6197,8.559,8.5752,8.6129,0.0,0.0,0.0,0.0,0.0,0.0,0.0,0.0,0.0,0.0,7.0898,7.0898,7.0898,7.0898,7.0898,0.0,0.0,0.0,0.0,0.0,0.0,0.0,0.0,0.0,7.0898,7.0898,7.0898,7.0898,7.0898,7.1245,7.1898,7.2783,7.3623,7.4469,7.5322,7.5822,0.0,0.0,0.0,0.0,7.6015,7.6015,0.0,0.0,0.0,0.0,7.6015,7.6015,0.0,0.0,0.0,0.0,0.0,0.0,0.0,0.0,8.1093,8.1093,8.1093,0.0,8.1093,8.1093,8.1093,8.1093,0.0,8.1093,8.1093,8.1093,8.1093,8.1093,8.1093,8.1093,8.1285,8.19,8.217,8.2824,8.4401,8.5863,8.6863,8.7055,8.7863,8.841,8.841,8.9133,8.9624,8.9624,9.0248,9.0594,9.0594,9.0594,9.0594,9.0594,9.0594,9.0017,8.8718,8.8718,8.8718,8.8718,8.8718,8.8718,8.8718,8.8718,8.8718,8.8718,8.8718,8.8564,8.841,8.841,8.8256,8.8094,8.8094,8.8094,8.8085,8.7905,8.7969,8.7953,0.0,0.0,0.0,0.0,0.0,0.0,0.0,0.0,0.0,0.0,0.0,7.0898,7.0898,7.0898,0.0,0.0,0.0,0.0,0.0,0.0,0.0,0.0,0.0,7.0898,7.0898,7.0898,7.0898,7.0898,7.1283,7.1745,7.2213,7.3476,7.4276,7.4738,7.563,7.6015,0.0,0.0,0.0,7.6015,7.6015,0.0,0.0,0.0,0.0,0.0,7.6015,7.6015,0.0,7.6015,7.6592,7.7445,0.0,0.0,0.0,0.0,8.1093,8.1093,8.1093,8.1093,8.1093,8.1093,8.1093,8.1093,8.1093,8.1093,8.1093,8.1093,8.1093,8.1208,8.1593,8.1631,8.19,8.2747,8.3247,8.4093,8.5824,8.6824,8.7555,8.7948,8.8748,8.9248,8.9248,9.0017,9.0509,9.0509,9.0932,9.121,9.121,9.121,9.121,9.121,9.121,9.0748,8.9863,8.9863,8.9863,8.9863,8.9863,8.9863,8.9863,8.9863,8.9863,8.9863,8.9863,8.9633,8.9248,8.9248,8.9017,8.8718,8.8718,8.8718,8.8718,8.8718,8.8718,8.8641,0.0,0.0,0.0,0.0,0.0,0.0,0.0,0.0,0.0,0.0,0.0,0.0,0.0,0.0,0.0,0.0,0.0,0.0,0.0,0.0,0.0,0.0,7.0898,7.0898,7.0898,7.1014,7.1091,7.1091,7.1975,7.2476,7.2598,7.4053,7.4776,7.493,7.5668,7.6015,0.0,0.0,7.6015,7.6015,7.6015,0.0,0.0,0.0,0.0,0.0,0.0,0.0,0.0,7.613,7.6784,7.7638,7.8446,0.0,0.0,0.0,0.0,0.0,8.1093,8.1093,8.1093,8.1093,8.1093,8.1093,8.1093,8.1093,8.1093,8.1093,8.1208,8.1477,8.217,8.2401,8.2785,8.3678,8.4632,8.5786,8.7209,8.7632,8.8055,8.8795,8.9594,9.0086,9.0086,9.0787,9.121,9.121,9.121,9.121,9.121,9.121,9.121,9.121,9.121,9.121,9.121,9.121,9.121,9.121,9.121,9.121,9.121,9.121,9.121,9.121,9.121,9.0778,9.0086,9.0086,8.971,8.9103,8.9103,8.9103,8.9103,8.9103,8.9103,8.9064,0.0,0.0,0.0,0.0,0.0,0.0,0.0,0.0,0.0,0.0,0.0,0.0,0.0,0.0,0.0,0.0,0.0,0.0,0.0,0.0,0.0,7.0898,7.0898,7.0898,7.0898,7.1629,7.2021,7.2021,7.286,7.3661,7.4322,7.4584,7.5091,7.5822,7.5938,7.6015,7.6015,0.0,7.6015,7.6015,7.6015,0.0,0.0,0.0,0.0,0.0,0.0,0.0,0.0,7.6861,7.7638,7.8484,7.9323,0.0,0.0,0.0,0.0,0.0,8.1093,8.1093,8.1093,8.1093,8.1093,8.1093,8.1093,8.1093,8.1093,8.1093,8.1631,8.2131,8.2285,8.2909,8.3678,8.4555,8.6017,8.7094,8.7363,8.8632,8.9586,8.9701,9.047,9.1018,9.1018,9.1133,9.121,9.121,9.121,9.121,9.121,9.121,9.121,9.121,9.121,9.121,9.121,9.121,9.121,9.121,9.121,9.121,9.121,9.121,9.121,9.121,9.121,9.1133,9.1018,9.1018,9.0941,9.0825,9.0825,9.0825,9.0825,9.0825,9.0825,9.071,0.0,0.0,0.0,0.0,0.0,0.0,0.0,0.0,0.0,0.0,0.0,0.0,0.0,0.0,0.0,0.0,0.0,0.0,0.0,0.0,7.0898,7.0898,7.136,7.1591,7.1591,7.1982,7.2444,7.2899,7.3738,7.4353,7.47,7.5168,7.563,7.6015,7.6015,7.6015,7.6015,7.6015,7.6015,7.6015,0.0,0.0,0.0,0.0,0.0,0.0,0.0,0.0,0.0,0.0,7.813,7.9285,7.9669,0.0,0.0,0.0,0.0,0.0,8.1093,8.1093,8.1093,8.1093,8.1093,8.1093,8.1093,8.1439,8.1747,8.1747,8.2401,8.3131,8.3632,8.4016,8.4747,8.6055,8.7286,8.8248,8.8709,8.9393,9.0086,9.0547,9.0979,9.121,9.121,9.121,9.121,9.121,9.121,9.121,9.121,9.121,9.121,9.121,9.121,9.121,9.121,9.121,9.121,9.121,9.121,9.121,9.121,9.121,9.121,9.121,9.121,9.121,9.121,9.121,9.121,9.121,9.121,9.121,9.121,9.121,9.121,9.1133,0.0,0.0,0.0,0.0,0.0,0.0,0.0,0.0,0.0,0.0,0.0,0.0,0.0,0.0,0.0,0.0,0.0,0.0,0.0,7.0898,7.0975,7.1206,7.1822,7.2213,7.2213,7.2591,7.3091,7.3776,7.4584,7.5007,7.5007,7.5707,7.6015,7.6015,7.6015,7.6015,7.6015,7.6015,7.6015,7.6015,0.0,0.0,0.0,0.0,0.0,0.0,0.0,0.0,0.0,0.0,0.0,0.0,0.0,0.0,0.0,8.1093,8.1093,8.1093,8.1093,8.1093,8.1093,8.1093,8.1093,8.1131,8.1323,8.1862,8.2362,8.2554,8.3285,8.4093,8.4786,8.5209,8.5978,8.744,8.8402,8.921,8.9816,9.0086,9.0432,9.1133,9.121,9.121,9.121,9.121,9.121,9.121,9.121,9.121,9.121,9.121,9.121,9.121,9.121,9.121,9.121,9.121,9.121,9.121,9.121,9.121,9.121,9.121,9.121,9.121,9.121,9.121,9.121,9.121,9.121,9.121,9.121,9.121,9.121,9.121,9.121,9.121,0.0,0.0,0.0,0.0,0.0,0.0,0.0,0.0,0.0,0.0,0.0,0.0,0.0,0.0,0.0,0.0,0.0,0.0,0.0,7.0898,7.1245,7.2059,7.2175,7.2213,7.2213,7.3707,7.4546,7.4623,7.5476,7.5899,7.5899,7.5976,7.6015,7.6015,7.6015,7.6015,7.6015,7.6015,7.6015,7.6015,7.6015,0.0,0.0,0.0,0.0,0.0,0.0,0.0,0.0,0.0,0.0,0.0,0.0,0.0,8.1093,8.1093,8.1093,8.1093,8.1093,8.1093,8.1093,8.1093,8.1093,8.1285,8.2054,8.2247,8.2516,8.3332,8.4209,8.4824,8.4893,8.617,8.7517,8.8449,8.9286,8.9816,8.9893,9.0586,9.1133,9.121,9.121,9.121,9.121,9.121,9.121,9.121,9.121,9.121,9.121,9.121,9.121,9.121,9.121,9.121,9.121,9.121,9.121,9.121,9.121,9.121,9.121,9.121,9.121,9.121,9.121,9.121,9.121,9.121,9.121,9.121,9.121,9.121,9.121,9.121,9.121,9.121,0.0,0.0,0.0,0.0,0.0,0.0,0.0,0.0,0.0,0.0,0.0,0.0,0.0,0.0,0.0,0.0,0.0,0.0,0.0,7.1398,7.1867,7.2175,7.3206,7.3745,7.3745,7.4392,7.4976,7.5515,7.5822,7.6015,7.6015,7.6015,7.6015,7.6015,7.6015,7.6015,7.6015,7.6015,7.6015,7.6015,7.6015,7.6015,0.0,0.0,0.0,0.0,0.0,0.0,0.0,0.0,8.0162,8.0669,8.1016,8.1093,8.1093,8.1093,8.1093,8.1093,8.1093,8.1093,8.1208,8.1708,8.1862,8.1939,8.2247,8.3131,8.4016,8.4324,8.5517,8.6632,8.7171,8.8209,8.9047,8.9402,9.0171,9.071,9.071,9.097,9.121,9.121,9.121,9.121,9.121,9.121,9.121,9.121,9.121,9.121,9.121,9.171,9.2018,9.2018,9.2479,9.2749,9.2749,9.2749,9.2749,9.2749,9.171,9.121,9.121,9.121,9.121,9.121,9.121,9.121,9.121,9.121,9.121,9.121,9.121,9.121,9.121,9.121,9.121,9.121,0.0,0.0,0.0,0.0,0.0,0.0,0.0,0.0,0.0,0.0,0.0,0.0,0.0,0.0,0.0,0.0,0.0,0.0,7.1283,7.1867,7.2444,7.2976,7.4091,7.4815,7.5091,7.513,7.5399,7.6015,7.6015,7.6015,7.6015,7.6015,7.6015,7.6015,7.6015,7.6015,7.6015,7.6015,7.6015,7.6015,7.6284,7.6399,0.0,0.0,0.0,0.0,0.0,0.0,0.0,0.0,8.0592,8.1093,8.1093,8.1093,8.1093,8.1093,8.1093,8.1093,8.1093,8.1285,8.1593,8.217,8.2708,8.3208,8.3439,8.4247,8.5055,8.5593,8.6824,8.8055,8.8902,8.9517,8.997,9.0278,9.0816,9.121,9.121,9.121,9.121,9.121,9.121,9.1325,9.1595,9.1595,9.171,9.1979,9.1979,9.1979,9.1979,9.2556,9.2864,9.2864,9.3403,9.371,9.371,9.371,9.371,9.3672,9.2556,9.1979,9.1979,9.1979,9.1979,9.1979,9.171,9.1595,9.1595,9.1325,9.121,9.121,9.121,9.121,9.121,9.121,9.121,9.121,0.0,0.0,0.0,0.0,0.0,0.0,0.0,0.0,0.0,0.0,0.0,0.0,0.0,0.0,0.0,0.0,0.0,0.0,7.2136,7.2213,7.2976,7.4623,7.47,7.513,7.5976,7.6015,7.6015,7.6015,7.6015,7.6015,7.6015,7.6015,7.6015,7.6015,7.6015,7.6015,7.6015,7.6015,7.6015,7.6092,7.6938,7.733,7.7407,0.0,0.0,0.0,0.0,0.0,0.0,0.0,8.1093,8.1093,8.1093,8.1093,8.1093,8.1093,8.1093,8.1093,8.1093,8.1708,8.2285,8.2324,8.3632,8.5124,8.594,8.5517,8.5401,8.7094,8.8102,8.8949,8.9739,8.9893,9.0201,9.1056,9.121,9.121,9.121,9.121,9.121,9.121,9.121,9.1556,9.2441,9.2518,9.2826,9.3633,9.371,9.371,9.371,9.371,9.371,9.371,9.371,9.371,9.371,9.371,9.371,9.371,9.371,9.371,9.371,9.371,9.371,9.3672,9.2864,9.2518,9.2441,9.1595,9.121,9.121,9.121,9.121,9.121,9.121,9.121,9.121,0.0,0.0,0.0,0.0,0.0,0.0,0.0,0.0,0.0,0.0,0.0,0.0,0.0,0.0,0.0,0.0,0.0,0.0,7.2175,7.3283,7.4168,7.4661,7.5284,7.5745,7.5976,7.6015,7.6015,7.6015,7.6015,7.6015,7.6015,7.6015,7.6015,7.6015,7.6015,7.6015,7.6053,7.663,7.6899,7.6984,7.783,7.8138,0.0,0.0,0.0,0.0,0.0,0.0,0.0,0.0,0.0,0.0,8.1093,8.1093,8.1093,8.1093,8.1093,8.1208,8.1785,8.2131,8.2593,8.3824,8.4939,8.5978,8.6824,8.6824,8.7132,8.8816,8.9363,8.9778,9.0671,9.0816,9.0902,9.1171,9.121,9.121,9.121,9.1748,9.2095,9.2095,9.2595,9.3056,9.3326,9.3326,9.3441,9.3672,9.371,9.371,9.371,9.4296,9.4604,9.4604,9.5211,9.5518,9.5518,9.5518,9.5518,9.5518,9.5518,9.4903,9.371,9.371,9.371,9.3672,9.3441,9.3326,9.3326,9.3056,9.2941,9.2941,9.2941,9.2595,9.2095,9.2095,9.1748,9.121,0.0,0.0,0.0,0.0,0.0,0.0,0.0,0.0,0.0,0.0,0.0,0.0,0.0,0.0,0.0,0.0,0.0,0.0,0.0,7.413,7.4853,7.5207,7.5707,7.6015,7.6015,7.6015,7.6015,7.6015,7.6015,7.6015,7.6015,7.6015,7.6015,7.6015,7.6015,7.6207,7.6553,7.7092,7.7484,7.7869,7.8677,7.9015,7.9054,0.0,0.0,0.0,0.0,0.0,0.0,0.0,0.0,0.0,8.1093,8.1093,8.1093,8.1093,8.1093,8.1285,8.2093,8.2554,8.3131,8.4555,8.5786,8.694,8.8132,8.8402,8.8671,8.9701,9.0163,9.0586,9.1086,9.121,9.121,9.121,9.121,9.1325,9.1672,9.2172,9.2633,9.2941,9.3403,9.3835,9.4181,9.422,9.4373,9.4711,9.4711,9.4711,9.4711,9.5211,9.5518,9.5518,9.6019,9.6288,9.6288,9.6288,9.6288,9.6288,9.6288,9.5749,9.4711,9.4711,9.4711,9.4711,9.4373,9.4027,9.371,9.371,9.371,9.371,9.371,9.3403,9.2979,9.2979,9.2633,9.2172,0.0,0.0,0.0,0.0,0.0,0.0,0.0,0.0,0.0,0.0,0.0,0.0,0.0,0.0,0.0,0.0,0.0,0.0,0.0,7.4776,7.5168,7.5976,7.6015,7.6015,7.6015,7.6015,7.6015,7.6015,7.6015,7.6015,7.6015,7.6015,7.6053,7.613,7.613,7.6592,7.7407,7.7484,7.7946,7.8677,7.9554,7.9931,8.0008,8.0785,0.0,0.0,0.0,0.0,0.0,0.0,0.0,0.0,8.1093,8.1093,8.1093,8.1093,8.1131,8.14,8.2208,8.3062,8.3939,8.4901,8.6401,8.8055,8.9663,9.0009,9.0009,9.0009,9.0663,9.121,9.121,9.121,9.1248,9.1325,9.1325,9.1633,9.2479,9.2672,9.2979,9.3719,9.3903,9.4258,9.5027,9.5104,9.5451,9.6249,9.6288,9.6288,9.6288,9.6288,9.6288,9.6288,9.6288,9.6288,9.6288,9.6288,9.6288,9.6288,9.6288,9.6288,9.6288,9.6288,9.6288,9.6249,9.5441,9.4681,9.3941,9.3941,9.3941,9.3941,9.3941,9.3903,9.3826,9.3826,9.3749,9.371,0.0,0.0,0.0,0.0,0.0,0.0,0.0,0.0,0.0,0.0,0.0,0.0,0.0,0.0,0.0,0.0,0.0,0.0,0.0,7.5361,7.5784,7.5976,7.6015,7.6015,7.6015,7.6015,7.6015,7.6015,7.6015,7.6015,7.6015,7.6015,7.6361,7.7015,7.7015,7.7484,7.8292,7.8977,7.9361,7.9592,8.0477,8.0823,8.0823,8.1016,8.1093,0.0,0.0,0.0,0.0,0.0,0.0,0.0,8.1093,8.1093,8.1093,8.1093,8.1554,8.2247,8.3101,8.3939,8.4978,8.6478,8.8132,8.9624,9.0663,9.0932,9.0932,9.0932,9.1056,9.121,9.121,9.121,9.1441,9.2095,9.221,9.2518,9.3326,9.4027,9.4527,9.472,9.5326,9.5826,9.6019,9.6019,9.6095,9.6288,9.6288,9.6288,9.6288,9.6288,9.6288,9.6288,9.6288,9.6288,9.6288,9.6288,9.6288,9.6288,9.6288,9.6288,9.6288,9.6288,9.6288,9.6288,9.6095,9.5903,9.5749,9.5749,9.5749,9.5749,9.5749,9.5326,9.472,9.472,9.4296,9.371,0.0,0.0,0.0,0.0,0.0,0.0,0.0,0.0,0.0,0.0,0.0,0.0,0.0,0.0,0.0,0.0,0.0,0.0,0.0,0.0,7.6015,7.6015,7.6015,7.6015,7.6015,7.6015,7.6015,7.6015,7.6399,7.663,7.663,7.663,7.7053,7.7869,7.7869,7.833,7.9131,7.9623,8.0046,8.0477,8.0939,8.1093,8.1093,8.1093,8.1093,8.1093,8.1093,0.0,0.0,0.0,0.0,0.0,0.0,0.0,8.1093,8.1093,8.167,8.2477,8.337,8.4247,8.5401,8.7478,8.8979,9.0124,9.1018,9.121,9.121,9.121,9.121,9.121,9.121,9.1556,9.1979,9.2441,9.2826,9.3364,9.422,9.472,9.5143,9.5557,9.6019,9.6288,9.6288,9.6288,9.6288,9.6288,9.6288,9.6288,9.6288,9.6288,9.6288,9.6288,9.6288,9.6288,9.6288,9.6288,9.6288,9.6288,9.6288,9.6288,9.6288,9.6288,9.6288,9.6288,9.6288,9.6288,9.6288,9.6288,9.6288,9.6288,9.6288,9.6019,9.5634,9.5634,9.5326,9.4941,0.0,0.0,0.0,0.0,0.0,0.0,0.0,0.0,0.0,0.0,0.0,0.0,0.0,0.0,0.0,0.0,0.0,0.0,0.0,0.0,0.0,7.6015,7.6015,7.6015,7.6015,7.613,7.6207,7.6207,7.7099,7.7599,7.7746,7.7599,7.7946,7.8715,7.8715,7.9208,8.0015,8.0015,8.0439,8.1093,8.1093,8.1093,8.1093,0.0,0.0,8.1093,8.1093,8.1093,8.1093,8.1093,0.0,0.0,0.0,0.0,8.1131,8.1285,8.19,8.2708,8.3601,8.467,8.6094,8.8363,8.9517,9.0316,9.1056,9.121,9.121,9.121,9.121,9.1248,9.1402,9.2018,9.2595,9.2864,9.348,9.421,9.5104,9.522,9.5489,9.6211,9.6288,9.6288,9.6288,9.6288,9.6288,9.6288,9.6288,9.6288,9.6288,9.6288,9.6288,9.6288,9.6288,9.6288,9.6288,9.6288,9.6288,9.6288,9.6288,9.6288,9.6288,9.6288,9.6288,9.6288,9.6288,9.6288,9.6288,9.6288,9.6288,9.6288,9.6288,9.6288,9.6288,9.6288,9.6288,9.6288,0.0,0.0,0.0,0.0,0.0,0.0,0.0,0.0,0.0,0.0,7.3507,0.0,0.0,0.0,0.0,0.0,0.0,0.0,0.0,0.0,0.0,7.6015,7.6015,7.6015,7.6015,7.6746,7.7138,7.7138,7.7946,7.8715,7.9438,7.8677,7.8784,7.9631,7.9631,8.0131,8.0939,8.0939,8.0977,8.1093,8.1093,8.1093,8.1093,0.0,0.0,8.1093,8.1093,8.1093,8.1093,8.1093,8.1093,0.0,0.0,0.0,8.1246,8.1939,8.2747,8.364,8.4478,8.6401,8.844,8.9479,9.0393,9.1056,9.1171,9.121,9.121,9.121,9.121,9.1441,9.2172,9.2402,9.2979,9.445,9.4758,9.5143,9.6019,9.6134,9.6172,9.6288,9.6288,9.6288,9.6288,9.6288,9.6288,9.6288,9.6288,9.6288,9.6288,9.6288,9.6288,9.6288,9.6288,9.6288,9.6288,9.6288,9.6288,9.6288,9.6288,9.6288,9.6288,9.6288,9.6288,9.6288,9.6288,9.6288,9.6288,9.6288,9.6288,9.6288,9.6288,9.6288,9.6288,9.6288,9.6288,9.6288,0.0,0.0,0.0,0.0,0.0,0.0,0.0,0.0,0.0,0.0,0.0,7.5053,0.0,0.0,0.0,7.5976,0.0,0.0,0.0,0.0,0.0,7.6015,7.6015,7.6245,7.6707,7.7099,7.7522,7.7984,7.8823,7.9438,7.9815,7.99,8.0169,8.0516,8.0516,8.0746,8.1093,8.1093,8.1093,8.1093,8.1093,8.1093,0.0,0.0,0.0,0.0,0.0,8.1093,8.1093,8.1093,8.1093,8.1093,8.1093,0.0,0.0,0.0,8.3247,8.4632,8.594,8.7478,8.8902,8.9701,9.0547,9.121,9.121,9.121,9.1325,9.1825,9.1941,9.2056,9.2441,9.3249,9.4143,9.4874,9.5412,9.5865,9.6249,9.6288,9.6288,9.6288,9.6288,9.6288,9.6288,9.6288,9.6288,9.6288,9.6288,9.6288,9.6288,9.6288,9.6288,9.6288,9.6288,9.6288,9.6288,9.6288,9.6288,9.6288,9.6288,9.6288,9.6288,9.6288,9.6288,9.6288,9.6288,9.6288,9.6288,9.6288,9.6288,9.6288,9.6288,9.6288,9.6288,9.6288,9.6288,9.6288,0.0,0.0,0.0,0.0,0.0,0.0,0.0,0.0,0.0,0.0,0.0,0.0,0.0,0.0,0.0,0.0,7.6015,0.0,0.0,0.0,0.0,7.6015,7.6207,7.663,7.7292,7.7715,7.8246,7.8823,7.9708,8.0131,8.0131,8.0785,8.1093,8.1093,8.1093,8.1093,8.1093,8.1093,8.1093,8.1093,8.1093,8.1093,8.1093,8.1093,8.1246,0.0,0.0,8.1554,8.1747,8.1747,8.1747,8.1747,8.1747,8.2131,0.0,0.0,0.0,8.5555,8.7286,8.8218,8.894,8.997,9.0701,9.121,9.121,9.121,9.1441,9.2326,9.2672,9.2864,9.3095,9.4181,9.5066,9.5297,9.5865,9.6288,9.6288,9.6288,9.6288,9.6288,9.6288,9.6288,9.6288,9.6288,9.6288,9.6288,9.6288,9.6288,9.6288,9.6288,9.6288,9.6288,9.6288,9.6288,9.6288,9.6288,9.6288,9.6288,9.6288,9.6288,9.6288,9.6288,9.6288,9.6288,9.6288,9.6288,9.6288,9.6288,9.6288,9.6288,9.6288,9.6288,9.6288,9.6288,9.6288,9.6288,0.0,0.0,0.0,0.0,0.0,0.0,0.0,0.0,0.0,0.0,0.0,0.0,7.6015,7.6015,7.6015,7.6015,7.6015,7.6015,7.6015,7.6015,0.0,7.6015,7.6784,0.0,7.7292,7.8861,7.97,7.9746,8.0592,8.1016,8.1016,8.1093,8.1093,8.1093,8.1093,8.1093,8.1093,8.1093,8.1093,8.1093,8.1093,8.1093,8.1093,8.1093,8.1554,8.2247,8.2247,8.2755,8.3486,8.3486,8.3486,8.3486,8.3486,8.3486,8.3678,0.0,0.0,0.0,8.8179,8.8679,8.9103,9.0748,9.1171,9.121,9.121,9.121,9.1441,9.2326,9.3095,9.3903,9.472,9.4951,9.5258,9.6095,9.6288,9.6288,9.6288,9.6288,9.6288,9.6288,9.6288,9.6288,9.6288,9.6288,9.6288,9.6288,9.6288,9.6288,9.6288,9.6288,9.6288,9.6288,9.6288,9.6288,9.6288,9.6288,9.6288,9.6288,9.6288,9.6288,9.6288,9.6288,9.6288,9.6288,9.6288,9.6288,9.6288,9.6288,9.6288,9.6288,9.6288,9.6288,9.6288,9.6288,9.6288,9.6288,0.0,0.0,0.0,0.0,0.0,0.0,0.0,0.0,0.0,0.0,0.0,0.0,0.0,7.6015,7.6015,7.6015,7.6015,7.6015,7.6015,7.6015,0.0,7.683,7.7138,7.7784,7.89,7.9469,8.0092,8.0631,8.0939,8.1093,8.1093,8.1093,8.1093,8.1093,8.1093,8.1093,8.1093,8.1093,8.1093,8.1131,8.167,8.1862,8.1939,8.2485,8.287,8.3139,8.3139,8.3332,8.3601,8.3601,8.3601,8.3601,8.3601,8.3978,8.4593,8.544,8.5863,8.6478,8.8218,8.8718,8.9103,9.0787,9.121,9.121,9.121,9.121,9.1595,9.2979,9.348,9.4134,9.5557,9.5826,9.5942,9.6249,9.6288,9.6288,9.6288,9.6288,9.6288,9.6288,9.6288,9.6288,9.6288,9.6288,9.6288,9.6288,9.6288,9.6288,9.6288,9.6288,9.6288,9.6288,9.6288,9.6288,9.6288,9.6288,9.6288,9.6288,9.6288,9.6288,9.6288,9.6288,9.6288,9.6288,9.6288,9.6288,9.6288,9.6288,9.6288,9.6288,9.6288,9.6288,9.6288,9.6288,9.6288,9.6288,0.0,0.0,0.0,0.0,0.0,0.0,0.0,0.0,0.0,7.6015,0.0,0.0,0.0,0.0,7.6015,7.6015,7.6015,7.6015,7.6015,7.6284,7.6669,7.7292,7.7823,7.8669,7.9777,8.0092,8.0516,8.1093,8.1093,8.1093,8.1093,8.1093,8.1093,8.1093,8.1093,8.1093,8.1131,8.14,8.1516,8.1593,8.2401,8.2747,8.2785,8.337,8.3793,8.4055,8.4055,8.4209,8.4439,8.4439,8.4439,8.4439,8.4439,8.4824,8.5354,8.5632,8.5901,8.644,8.7863,8.8487,8.9026,9.0441,9.097,9.121,9.121,9.121,9.1672,9.3364,9.371,9.421,9.598,9.6288,9.6288,9.6288,9.6288,9.6288,9.6288,9.6288,9.6288,9.6288,9.6288,9.6288,9.6288,9.6288,9.6288,9.6288,9.6288,9.6288,9.6288,9.6288,9.6288,9.6288,9.6288,9.6288,9.6288,9.6288,9.6288,9.6288,9.6288,9.6288,9.6288,9.6288,9.6288,9.6288,9.6288,9.6288,9.6288,9.6288,9.6288,9.6288,9.6288,9.6288,9.6288,9.6288,9.6288,9.6288,0.0,0.0,0.0,0.0,0.0,0.0,0.0,0.0,7.6015,7.6015,0.0,0.0,0.0,0.0,0.0,7.6053,7.6053,7.6053,7.6053,7.6868,7.7369,7.7369,0.0,0.0,7.9854,8.0669,8.1093,8.1093,8.1093,8.1093,8.1093,8.1093,8.1093,8.1093,8.1131,8.1131,8.1208,8.1977,8.2324,8.2401,8.3293,8.364,8.3678,8.3717,8.4247,8.5008,8.5008,8.5517,8.617,8.617,8.617,8.617,8.6132,8.6094,0.0,0.0,8.544,8.6247,0.0,0.0,0.0,8.9701,9.0547,9.1171,9.121,9.121,9.1672,9.3326,9.3672,9.421,9.5942,9.6288,9.6288,9.6288,9.6288,9.6288,9.6288,9.6288,9.6288,9.6288,9.6288,9.6288,9.6288,9.6288,9.6288,9.6288,9.6288,9.6288,9.6288,9.6288,9.6288,9.6288,9.6288,9.6288,9.6288,9.6288,9.6288,9.6288,9.6288,9.6288,9.6288,9.6288,9.6288,9.6288,9.6288,9.6288,9.6288,9.6288,9.6288,9.6288,9.6288,9.6288,9.6288,9.6288,9.6288,9.6288,0.0,0.0,0.0,0.0,0.0,0.0,7.6535,7.6213,7.6015,0.0,0.0,0.0,7.6015,7.6553,7.6945,7.6945,7.7484,7.783,7.783,7.8023,7.8446,7.9092,7.9546,8.0085,8.0746,8.0977,8.1093,8.1093,8.1093,8.1093,8.1093,8.1093,8.1093,8.1131,8.1708,8.1977,8.1977,8.2208,8.267,8.3332,8.417,8.4901,8.5478,8.6094,8.6901,8.7641,8.7641,8.7786,8.7979,8.7979,8.7979,8.7748,8.6517,0.0,0.0,0.0,0.0,0.0,8.7017,0.0,0.0,0.0,0.0,0.0,9.1056,9.121,9.1518,9.2595,9.3287,9.4018,9.5143,9.5865,9.6288,9.6288,9.6288,9.6288,9.6288,9.6288,9.6288,9.6288,9.6288,9.6288,9.6288,9.6288,9.6288,9.6288,9.6288,9.6288,9.6288,9.6288,9.6288,9.6288,9.6288,9.6288,9.6288,9.6288,9.6288,9.6288,9.6288,9.6288,9.6288,9.6288,9.6288,9.6288,9.6288,9.6288,9.6288,9.6288,9.6288,9.6288,9.6288,9.6288,9.6288,9.6288,9.6288,9.6288,0.0,0.0,0.0,0.0,0.0,7.7084,7.7084,7.7079,7.7053,0.0,0.0,0.0,7.7053,7.7484,7.7792,7.7792,7.8215,7.8484,7.8484,7.8823,7.9285,7.9777,8.0169,8.0592,8.1093,8.1093,8.1093,8.1093,8.1093,8.1093,8.1093,8.1093,8.1285,8.1593,8.1747,8.2401,8.3324,8.2593,8.3016,8.4247,8.5478,8.6209,8.6748,8.7594,8.8256,8.8718,8.8718,8.8718,8.8718,8.8718,8.8718,8.841,8.6632,8.6286,0.0,0.0,0.0,0.0,0.0,0.0,8.8671,8.9663,0.0,0.0,9.1095,9.121,9.1441,9.2326,9.2864,9.3566,9.4797,9.5403,9.5865,9.6249,9.6288,9.6288,9.6288,9.6288,9.6288,9.6288,9.6288,9.6288,9.6288,9.6288,9.6288,9.6288,9.6288,9.6288,9.6288,9.6288,9.6288,9.6288,9.6288,9.6288,9.6288,9.6288,9.6288,9.6288,9.6288,9.6288,9.6288,9.6288,9.6288,9.6288,9.6288,9.6288,9.6288,9.6288,9.6288,9.6288,9.6288,9.6288,9.6288,9.6288,9.6288,9.6288,0.0,0.0,7.7383,7.7461,7.7758,7.7937,7.7937,7.8278,7.8484,0.0,7.8484,7.8484,7.8484,7.86,7.8638,7.8638,7.8715,7.8792,7.8792,7.9515,7.9931,7.9931,8.0708,8.1093,8.1093,8.1093,8.1093,8.1093,8.1093,8.1093,8.1093,8.1208,8.1593,8.2285,8.1631,8.2631,8.467,8.3285,8.3632,8.5162,8.6671,8.744,8.7748,8.8517,8.891,8.8987,8.8987,8.8987,8.8987,8.8987,8.891,8.8556,8.6901,8.7401,8.8102,8.5824,8.6786,0.0,0.0,0.0,0.0,8.9893,9.047,0.0,9.1171,9.121,9.1441,9.221,9.2441,9.2941,9.445,9.4874,9.5258,9.6019,9.6249,9.6288,9.6288,9.6288,9.6288,9.6288,9.6288,9.6288,9.6288,9.6288,9.6288,9.6288,9.6288,9.6288,9.6288,9.6288,9.6288,9.6288,9.6288,9.6288,9.6288,9.6288,9.6288,9.6288,9.6288,9.6288,9.6288,9.6288,9.6288,9.6288,9.6288,9.6288,9.6288,9.6288,9.6288,9.6288,9.6288,9.6288,9.6288,9.6288,9.6288,9.6288,0.0,7.8242,7.8437,7.9101,7.9008,7.8839,7.8839,7.8632,7.8484,7.8484,7.8484,7.8484,7.8484,7.9131,7.9554,7.9554,8.0208,8.0592,8.0592,8.0746,8.0862,8.0862,8.1016,8.1093,8.1093,8.1093,8.1093,8.1093,8.1093,8.1093,8.1093,8.1747,8.2131,8.2324,8.2862,8.3409,8.3909,8.4939,8.5555,8.5893,8.6209,8.7585,8.9432,8.9586,9.0094,9.071,9.071,9.071,9.071,9.071,9.0248,8.9479,8.8479,8.7948,8.7555,8.7055,8.7248,8.7786,8.8295,8.8679,8.9094,8.9739,9.0047,0.0,9.1047,9.121,9.1248,9.1441,9.2018,9.2595,9.2941,9.4104,9.5066,9.522,9.5826,9.6288,9.6288,9.6288,9.6288,9.6288,9.6288,9.6288,9.6288,9.6288,9.6288,9.6288,9.6288,9.6288,9.6288,9.6288,9.6288,9.6288,9.6288,9.6288,9.6288,9.6288,9.6288,9.6288,9.6288,9.6288,9.6288,9.6288,9.6288,9.6288,9.6288,9.6288,9.6288,9.6288,9.6288,9.6288,9.6288,9.6288,9.6288,9.6288,9.6288,9.6288,0.0,7.9101,7.9219,7.9648,7.975,7.973,7.973,7.9793,7.9785,7.9785,7.9785,7.9785,7.9785,8.0208,8.0439,8.0439,8.0862,0.0,8.1093,8.1093,8.1093,8.1093,8.1093,8.1093,8.1093,8.1093,8.1093,8.1093,8.1516,8.1708,8.1708,8.2554,8.317,8.3593,8.3131,8.367,8.4786,8.3978,8.5055,8.744,8.7825,8.8739,8.9932,9.0393,9.0816,9.121,9.121,9.121,9.121,9.121,9.0893,9.0393,8.9556,8.9286,8.9133,8.8286,8.8632,8.9286,8.9286,8.9633,9.0056,9.0441,9.0547,0.0,0.0,9.121,9.121,9.121,9.1556,9.1979,9.2402,9.3172,9.3873,9.4296,9.5057,9.5634,9.5634,9.6019,9.6288,9.6288,9.6288,9.6288,9.6288,9.6288,9.6288,9.6288,9.6288,9.6288,9.6288,9.6288,9.6288,9.6288,9.6288,9.6288,9.6288,9.6288,9.6288,9.6288,9.6288,9.6288,9.6288,9.6288,9.6288,9.6288,9.6288,9.6288,9.6288,9.6288,9.6288,9.6288,9.6288,9.6288,9.6288,9.6288,9.6288,9.6288,7.9961,7.9961,8.0,8.0115,8.0454,8.0695,8.0612,8.0921,8.1146,8.11,8.1093,8.1093,8.1093,8.1093,8.1093,8.1093,8.1093,0.0,8.1093,8.1093,8.1093,8.1093,8.1093,8.117,8.1323,8.1323,8.14,8.1593,8.2247,8.2554,8.2554,8.3439,8.4324,8.5085,8.367,8.4286,8.617,8.3285,8.4632,8.8756,8.9402,8.9855,9.0239,9.0932,9.121,9.121,9.121,9.121,9.121,9.121,9.121,9.1095,9.0355,9.0624,9.0941,8.9594,9.0133,9.1056,9.0355,9.0663,9.121,9.121,9.121,9.121,0.0,0.0,0.0,9.121,9.121,9.1441,9.2133,9.2402,9.2672,9.3133,9.4066,9.472,9.4527,9.5403,9.6095,9.6288,9.6288,9.6288,9.6288,9.6288,9.6288,9.6288,9.6288,9.6288,9.6288,9.6288,9.6288,9.6288,9.6288,9.6288,9.6288,9.6288,9.6288,9.6288,9.6288,9.6288,9.6288,9.6288,9.6288,9.6288,9.6288,9.6288,9.6288,9.6288,9.6288,9.6288,9.6288,9.6288,9.6288,9.6288,9.6288,9.6288,8.1015,8.0859,8.1052,8.1631,8.1793,8.1697,8.1346,8.1323,8.1285,8.11,8.1093,8.1093,8.1093,8.1093,8.1093,8.1093,8.1093,8.1093,8.1093,8.1093,8.1093,8.1093,8.1093,8.1439,8.2131,8.217,8.2554,8.3332,8.3409,8.3447,8.3486,8.4324,8.5209,8.5978,8.5747,8.6247,8.7171,8.6017,8.6748,8.8718,8.8795,8.971,9.1056,9.1171,9.121,9.121,9.121,9.121,9.121,9.121,9.121,9.1171,9.1095,9.1133,9.1171,9.0979,9.1056,9.1171,9.1095,9.1133,9.121,9.121,9.121,9.121,9.121,0.0,9.121,9.121,0.0,9.1248,9.1325,0.0,0.0,9.1595,9.2826,9.3595,9.2864,9.4143,9.5451,9.6211,9.6288,9.6288,9.6288,9.6288,9.6288,9.6288,9.6288,9.6288,9.6288,9.6288,9.6288,9.6288,9.6288,9.6288,9.6288,9.6288,9.6288,9.6288,9.6288,9.6288,9.6288,9.6288,9.6288,9.6288,9.6288,9.6288,9.6288,9.6288,9.6288,9.6288,9.6288,9.6288,9.6288,9.6288,9.6288,9.6288,8.1836,8.1758,8.1835,8.2137,8.1982,8.1789,8.1609,8.1371,8.121,8.1116,8.1516,8.1785,8.1785,8.2247,8.2562,8.2562,8.2562,8.2562,8.2562,8.2562,0.0,8.2562,8.2562,8.2716,8.3062,8.3062,8.3216,8.3601,8.4093,8.4362,8.4362,8.5709,8.6517,8.6863,8.6863,8.7325,8.8064,8.6671,8.6824,8.8017,8.9017,8.9825,9.0547,9.1556,9.2249,9.2633,9.2633,9.2633,9.2633,9.2633,9.2633,9.2633,9.2633,9.2633,9.2633,9.2633,9.2326,9.1941,9.1941,9.1595,9.121,9.121,9.121,9.121,9.121,9.121,9.121,9.121,0.0,0.0,0.0,0.0,0.0,0.0,9.221,9.2903,9.2556,9.3527,9.4566,9.5441,9.598,9.6288,9.6288,9.6288,9.6288,9.6288,9.6288,9.6288,9.6288,9.6288,9.6288,9.6288,9.6288,9.6288,9.6288,9.6288,9.6288,9.6288,9.6288,9.6288,9.6288,9.6288,9.6288,9.6288,9.6288,9.6288,9.6288,9.6288,9.6288,9.6288,9.6288,9.6288,9.6288,9.6288,9.6288,9.6288,8.2617,0.0,8.2264,8.2131,8.1958,8.1806,8.1921,8.1665,8.1516,8.1747,8.2285,8.2678,8.2678,8.3216,8.3601,8.3601,8.3601,8.3717,8.3939,8.3947,8.4055,8.4286,8.4286,8.4409,8.464,8.464,8.4755,8.4986,8.5632,8.594,8.5978,8.7171,8.7863,8.8094,8.8094,8.8556,8.9286,8.7786,8.7786,8.8863,8.9863,9.0663,9.1402,9.2441,9.3172,9.371,9.371,9.371,9.371,9.371,9.371,9.371,9.371,9.371,9.371,9.371,9.3287,9.2826,9.2826,9.221,9.1556,9.1556,9.1364,9.121,9.121,9.121,9.121,9.121,9.121,0.0,0.0,0.0,9.1133,9.0902,0.0,9.2056,9.1825,9.271,9.3787,9.4874,9.5788,9.6288,9.6288,9.6288,9.6288,9.6288,9.6288,9.6288,9.6288,9.6288,9.6288,9.6288,9.6288,9.6288,9.6288,9.6288,9.6288,9.6288,9.6288,9.6288,9.6288,9.6288,9.6288,9.6288,9.6288,9.6288,9.6288,9.6288,9.6288,9.6288,9.6288,9.6288,9.6288,9.6288,9.6288,9.6288,8.3398,8.289,8.2175,8.1805,8.187,8.2134,8.2516,8.2393,8.2554,8.3409,8.3524,8.3563,8.3563,8.3563,8.3601,8.3601,8.3601,8.3947,8.4777,8.4854,8.5201,8.5978,8.6017,8.6401,8.7248,8.7286,8.7671,8.8526,8.8564,8.8564,8.8564,8.8641,8.9056,8.9816,8.9816,9.0316,9.1056,9.0163,9.0787,9.2287,9.1479,9.2633,9.4758,9.395,9.3672,9.371,9.371,9.371,9.371,9.371,9.371,9.371,9.371,9.371,9.371,9.371,9.3672,9.3672,9.3672,9.3056,9.2441,9.2441,9.1825,9.121,9.121,9.121,9.121,9.121,9.121,9.121,9.121,9.121,0.0,0.0,9.0663,0.0,0.0,9.1479,9.3133,9.4797,9.5788,9.6288,9.6288,9.6288,9.6288,9.6288,9.6288,9.6288,9.6288,9.6288,9.6288,9.6288,9.6288,9.6288,9.6288,9.6288,9.6288,9.6288,9.6288,9.6288,9.6288,9.6288,9.6288,9.6288,9.6288,9.6288,9.6288,9.6288,9.6288,9.6288,9.6288,9.6288,9.6288,9.6288,9.6288,9.6288,8.4181,8.3894,8.356,8.3605,8.3419,8.3263,8.3263,8.3187,8.3518,8.4525,8.5013,8.5514,8.6258,8.6701,8.6987,8.6987,8.6987,8.7102,8.7401,8.7401,8.7555,8.7825,8.7833,8.794,8.8256,8.8256,8.841,8.8718,8.8718,8.8718,8.8718,8.9248,8.9633,8.9932,9.0509,9.1248,9.2056,9.1748,9.1633,9.1672,9.1941,9.3595,9.5788,9.4912,9.4912,9.5403,9.5403,9.5403,9.5403,9.5403,9.5403,9.5403,9.5403,9.5403,9.5403,9.5403,9.5018,9.4566,9.4566,9.395,9.3287,9.3287,9.2672,9.2056,9.2056,9.1595,9.121,9.121,9.121,9.121,9.121,9.121,0.0,0.0,0.0,9.1095,0.0,9.1748,9.271,9.3296,9.4566,9.5451,9.5451,9.5942,9.6288,9.6288,9.6288,9.6288,9.6288,9.6288,9.6288,9.6288,9.6288,9.6288,9.6288,9.6288,9.6288,9.6288,9.6288,9.6288,9.6288,9.6288,9.6288,9.6288,9.6288,9.6288,9.6288,9.6288,9.6288,9.6288,9.6288,9.6288,9.6288,9.6288,9.6288,9.6288,8.5785,8.5622,8.5199,8.4497,8.431,8.4421,8.4873,8.5005,8.5379,8.6303,8.6868,8.7378,8.7997,8.8428,8.8718,8.8718,8.8718,8.8833,8.9094,8.9133,8.9286,8.9594,8.9594,8.9594,8.9594,8.9594,8.9594,8.9594,8.9594,8.9594,8.9594,9.0133,9.0355,9.0393,9.1287,9.1979,9.2556,9.3133,9.3056,9.2633,9.3518,9.4826,9.6249,9.5672,9.5826,9.6288,9.6288,9.6288,9.6288,9.6288,9.6288,9.6288,9.6288,9.6288,9.6288,9.6288,9.5903,9.5441,9.5441,9.4835,9.4181,9.4181,9.3518,9.2941,9.2941,9.2479,9.2095,9.2095,9.2095,9.2095,9.2095,9.1864,9.1672,0.0,0.0,0.0,0.0,9.1672,9.2056,9.2056,9.3796,9.4989,9.4989,9.5788,9.6288,9.6288,9.6288,9.6288,9.6288,9.6288,9.6288,9.6288,9.6288,9.6288,9.6288,9.6288,9.6288,9.6288,9.6288,9.6288,9.6288,9.6288,9.6288,9.6288,9.6288,9.6288,9.6288,9.6288,9.6288,9.6288,9.6288,9.6288,9.6288,9.6288,9.6288,9.6288,8.7949,8.788,8.7004,8.461,8.4686,8.5632,8.7209,8.7652,8.8009,8.868,8.8963,8.904,8.8942,8.8897,8.891,8.8949,8.8949,8.9286,9.0047,9.0086,9.047,9.1287,9.1325,9.1325,9.1325,9.1325,9.1325,9.1325,9.1325,9.1325,9.1325,9.1325,9.1325,9.1364,9.2172,9.2595,9.271,9.4335,9.5027,9.5143,9.598,9.6288,9.6288,9.6288,9.6288,9.6288,9.6288,9.6288,9.6288,9.6288,9.6288,9.6288,9.6288,9.6288,9.6288,9.6288,9.6288,9.6288,9.6288,9.5711,9.5066,9.5066,9.4412,9.3749,9.3749,9.3719,9.371,9.371,9.371,9.371,9.371,9.3056,9.2556,0.0,0.0,0.0,9.121,9.121,9.121,9.121,9.3403,9.4912,9.4874,9.5711,9.6249,9.6249,9.6288,9.6288,9.6288,9.6288,9.6288,9.6288,9.6288,9.6288,9.6288,9.6288,9.6288,9.6288,9.6288,9.6288,9.6288,9.6288,9.6288,9.6288,9.6288,9.6288,9.6288,9.6288,9.6288,9.6288,9.6288,9.6288,9.6288,9.6288,9.6288,9.6288,8.8739,8.8559,8.8443,8.8358,8.8007,8.7863,8.8295,8.854,8.8995,8.9998,9.0039,9.05,9.1889,9.1716,9.1748,9.2364,9.2411,9.2479,9.271,9.271,9.2826,9.3056,9.3056,9.3056,9.3056,9.3056,9.3056,9.3056,9.3056,9.3056,9.3056,9.3056,9.3056,9.3056,9.3287,9.3758,9.4373,9.4835,9.5365,9.598,9.6211,9.6288,9.6288,9.6288,9.6288,9.6288,9.6288,9.6288,9.6288,9.6288,9.6288,9.6288,9.6288,9.6288,9.6288,9.6288,9.6288,9.6288,9.6288,9.6134,9.598,9.598,9.5288,9.4681,9.4681,9.4181,9.371,9.371,9.371,9.371,9.371,9.3518,9.321,9.2595,0.0,0.0,9.121,9.121,9.121,9.121,9.2864,9.3796,9.321,9.4489,9.5335,9.5335,9.5942,9.6288,9.6288,9.6288,9.6288,9.6288,9.6288,9.6288,9.6288,9.6288,9.6288,9.6288,9.6288,9.6288,9.6288,9.6288,9.6288,9.6288,9.6288,9.6288,9.6288,9.6288,9.6288,9.6288,9.6288,9.6288,9.6288,9.6288,9.6288,9.6288,9.0562,9.0725,9.1018,9.1479,9.1264,9.0937,9.0551,9.058,9.101,9.2,9.2023,9.2341,9.3304,9.316,9.321,9.3672,9.371,9.371,9.371,9.371,9.371,9.371,9.371,9.371,9.371,9.371,9.371,9.371,9.371,9.371,9.371,9.371,9.3518,9.321,9.3941,9.4335,9.4489,9.5249,9.5865,9.6288,9.6288,9.6288,0.0,9.6288,9.6288,9.6288,9.6288,9.6288,9.6288,9.6288,9.6288,9.6288,9.6288,9.6288,9.6288,9.6288,9.6288,9.6288,9.6288,9.6288,9.6288,9.6288,9.5942,9.5557,9.5557,9.5172,9.4826,9.4826,9.4826,9.4826,9.4826,9.4518,9.3873,9.2672,9.2364,9.2172,9.1825,9.2056,9.2172,9.1825,9.2903,9.321,9.2056,9.3796,9.4835,9.445,9.5249,9.5711,9.5711,9.6095,9.6288,9.6288,9.6288,9.6288,9.6288,9.6288,9.6288,9.6288,9.6288,9.6288,9.6288,9.6288,9.6288,9.6288,9.6288,9.6288,9.6288,9.6288,9.6288,9.6288,9.6288,9.6288,9.6288,9.6288,9.6288,9.6288,9.2682,9.321,9.371,9.371,9.3886,9.3836,9.3226,9.3065,9.3284,9.4034,9.4136,9.4053,9.3919,9.39,9.3903,9.4018,9.4057,9.4057,9.4057,9.4057,9.4057,9.4057,9.4057,9.4057,9.4057,9.4057,9.4057,9.4057,9.4057,9.4057,9.4018,9.3903,9.3557,9.3056,9.4412,9.4643,9.4134,9.5672,9.6288,9.6288,9.6288,9.6288,9.6288,9.6288,9.6288,9.6288,9.6288,9.6288,9.6288,9.6288,9.6288,9.6288,9.6288,9.6288,9.6288,9.6288,9.6288,9.6288,9.6288,9.6288,9.6288,9.6288,9.6288,9.6288,9.6288,9.6288,9.6288,9.6288,9.6288,9.6288,9.6288,9.5595,9.4527,9.3056,9.321,9.3326,9.2749,9.3172,9.3287,9.2595,9.3287,0.0,9.1364,9.3403,9.4489,9.3595,9.4335,9.4874,9.4989,9.5711,9.6172,9.6288,9.6288,9.6288,9.6288,9.6288,9.6288,9.6288,9.6288,9.6288,9.6288,9.6288,9.6288,9.6288,9.6288,9.6288,9.6288,9.6288,9.6288,9.6288,9.6288,9.6288,9.6288,9.6288,9.6288,9.6288,9.3538,9.3595,9.371,9.371,9.3743,9.4045,9.4811,9.4496,9.4179,9.4339,9.4198,9.434,9.4934,9.4861,9.5066,9.5788,9.5826,9.5826,9.5826,9.5826,9.5826,9.5826,9.5826,9.5826,9.5826,9.5826,9.5826,9.5826,9.5826,9.5826,9.5826,9.5104,9.5057,9.5634,9.5181,9.5288,9.5865,9.6172,9.6288,9.6288,9.6288,9.6288,9.6288,9.6288,9.6288,9.6288,9.6288,9.6288,9.6288,9.6288,9.6288,9.6288,9.6288,9.6288,9.6288,9.6288,9.6288,9.6288,9.6288,9.6288,9.6288,9.6288,9.6288,9.6288,9.6288,9.6288,9.6288,9.6288,9.6288,9.6288,9.6288,9.5595,9.4912,9.4604,9.3527,9.2903,9.3403,9.3018,9.2672,9.2518,9.3835,9.3826,9.1441,9.2864,9.3595,9.2787,9.348,9.4258,9.4951,9.5143,9.5557,9.6288,9.6288,9.6288,9.6288,9.6288,9.6288,9.6288,9.6288,9.6288,9.6288,9.6288,9.6288,9.6288,9.6288,9.6288,9.6288,9.6288,9.6288,9.6288,9.6288,9.6288,9.6288,9.6288,9.6288,9.6288,9.4987,9.5057,9.5057,9.5057,9.5144,9.537,9.5948,9.5764,9.555,9.555,9.5356,9.5376,9.58,9.573,9.5826,9.6249,9.6288,9.6288,9.6288,9.6288,9.6288,9.6288,9.6288,9.6288,9.6288,9.6288,9.6288,9.6288,9.6288,9.6288,9.6288,9.5412,9.522,9.5595,9.5181,9.548,9.6288,9.6288,9.6288,9.6288,9.6288,9.6288,9.6288,9.6288,9.6288,9.6288,9.6288,9.6288,9.6288,9.6288,9.6288,9.6288,9.6288,9.6288,9.6288,9.6288,9.6288,9.6288,9.6288,9.6288,9.6288,9.6288,9.6288,9.6288,9.6288,9.6288,9.6288,9.6288,9.6288,9.6288,9.6288,9.5942,9.5518,9.5066,9.4711,9.4441,9.4373,9.4441,9.4287,9.3835,9.4903,9.4672,9.2133,9.2979,9.3364,9.2556,9.2864,9.3633,9.4912,9.4989,9.5412,9.6288,9.6288,9.6288,9.6288,9.6288,9.6288,9.6288,9.6288,9.6288,9.6288,9.6288,9.6288,9.6288,9.6288,9.6288,9.6288,9.6288,9.6288,9.6288,9.6288,9.6288,9.6288,9.6288,9.6288,9.6288,9.6172,9.6288,9.6288,9.6288,9.644,9.6543,9.6543,9.6543,9.6534,9.6581,9.6423,9.6288,9.6288,9.6288,9.6288,9.6288,9.6288,9.6288,9.6288,9.6288,9.6288,9.6288,9.6288,9.6288,9.6288,9.6288,9.6288,9.6288,9.6288,9.6288,9.6288,9.5412,9.4989,9.5027,9.5181,9.5672,9.6288,9.6288,9.6288,9.6288,9.6288,9.6288,9.6288,9.6288,9.6288,9.6288,9.6288,9.6288,9.6288,9.6288,9.6288,9.6288,9.6288,9.6288,9.6288,9.6288,9.6288,9.6288,9.6288,9.6288,9.6288,9.6288,9.6288,9.6288,9.6288,9.6288,9.6288,9.6288,9.6288,9.6288,9.6288,9.6288,9.6095,9.5412,9.5711,9.5865,9.5335,9.5711,9.5788,9.5066,9.5441,9.498,9.2941,9.2826,9.2864,9.2749,9.2595,9.321,9.4912,9.4989,9.5412,9.6288,9.6288,9.6288,9.6288,9.6288,9.6288,9.6288,9.6288,9.6288,9.6288,9.6288,9.6288,9.6288,9.6288,9.6288,9.6288,9.6288,9.6288,9.6288,9.6288,9.6288,9.6288,9.6288,9.6288,9.6288,9.6288,9.6288,9.6288,9.6288,9.6325,9.6313,9.6313,9.6313,9.6395,9.6585,9.6423,9.6288,9.6288,9.6288,9.6288,9.6288,9.6288,9.6288,9.6288,9.6288,9.6288,9.6288,9.6288,9.6288,9.6288,9.6288,9.6288,9.6288,9.6288,9.6288,9.6288,9.5412,9.4989,9.5027,9.5826,9.6211,9.6288,9.6288,9.6288,9.6288,9.6288,9.6288,9.6288,9.6288,9.6288,9.6288,9.6288,9.6288,9.6288,9.6288,9.6288,9.6288,9.6288,9.6288,9.6288,9.6288,9.6288,9.6288,9.6288,9.6288,9.6288,9.6288,9.6288,9.6288,9.6288,9.6288,9.6288,9.6288,9.6288,9.6288,9.6288,9.6288,9.6288,9.6172,9.5557,9.5365,9.6095,9.5557,9.5104,9.5027,9.4373,9.3864,9.3595,9.1556,9.1171,9.3403,9.2903,9.321,9.4912,9.4989,9.5412,9.6288,9.6288,9.6288,9.6288,9.6288,9.6288,9.6288,9.6288,9.6288,9.6288,9.6288,9.6288,9.6288,9.6288,9.6288,9.6288,9.6288,9.6288,9.6288,9.6288,9.6288,9.6288,9.6288,9.6288,9.6288,9.6288,9.6288,9.6288,9.6288,9.6288,9.6288,9.6288,9.6288,9.6313,9.6429,9.6367,9.6288,9.6288,9.6288,9.6288,9.6288,9.6288,9.6288,9.6288,9.6288,9.6288,9.6288,9.6288,9.6288,9.6288,9.6288,9.6288,9.6288,9.6288,9.6288,9.6288,9.5412,9.4989,9.5027,9.5903,9.6288,9.6288,9.6288,9.6288,9.6288,9.6288,9.6288,9.6288,9.6288,9.6288,9.6288,9.6288,9.6288,9.6288,9.6288,9.6288,9.6288,9.6288,9.6288,9.6288,9.6288,9.6288,9.6288,9.6288,9.6288,9.6288,9.6288,9.6288,9.6288,9.6288,9.6288,9.6288,9.6288,9.6288,9.6288,9.6288,9.6288,9.6288,9.6288,9.6019,9.5903,9.6249,9.6019,9.5788,9.5788,9.548,9.5057,9.4527,9.2633,9.2287,9.4335,9.2287,9.2133,9.4835,9.4489,9.4864,9.6249,9.6288,9.6288,9.6288,9.6288,9.6288,9.6288,9.6288,9.6288,9.6288,9.6288,9.6288,9.6288,9.6288,9.6288,9.6288,9.6288,9.6288,9.6288,9.6288,9.6288,9.6288,9.6288,9.6288,9.6288,9.6288,9.6288,9.6288,9.6288,9.6288,9.6288,9.6288,9.6288,9.6288,9.6288,9.6288,9.6288,9.6288,9.6288,9.6288,9.6288,9.6288,9.6288,9.6288,9.6288,9.6288,9.6288,9.6288,9.6288,9.6288,9.6288,9.6288,9.6288,9.6288,9.6288,9.6288,9.5672,9.5374,9.5412,9.6019,9.6288,9.6288,9.6288,9.6288,9.6288,9.6288,9.6288,9.6288,9.6288,9.6288,9.6288,9.6288,9.6288,9.6288,9.6288,9.6288,9.6288,9.6288,9.6288,9.6288,9.6288,9.6288,9.6288,9.6288,9.6288,9.6288,9.6288,9.6288,9.6288,9.6288,9.6288,9.6288,9.6288,9.6288,9.6288,9.6288,9.6288,9.6288,9.6288,9.6288,9.6288,9.6288,9.6288,9.6211,9.5942,9.548,9.5134,9.5027,9.3018,9.2633,9.4835,9.2326,9.2056,9.522,9.4566,9.4749,9.6249,9.6288,9.6288,9.6288,9.6288,9.6288,9.6288,9.6288,9.6288,9.6288,9.6288,9.6288,9.6288,9.6288,9.6288,9.6288,9.6288,9.6288,9.6288,9.6288,9.6288,9.6288,9.6288,9.6288,9.6288,9.6288,9.6288,9.6288,9.6288,9.6288,9.6288,9.6288,9.6288,9.6288,9.6288,9.6288,9.6288,9.6288,9.6288,9.6288,9.6288,9.6288,9.6288,9.6288,9.6288,9.6288,9.6288,9.6288,9.6288,9.6288,9.6288,9.6288,9.6288,9.6288,9.6288,9.6288,9.6288,9.6288,9.6288,9.6288,9.6288,9.6288,9.6288,9.6288,9.6288,9.6288,9.6288,9.6288,9.6288,9.6288,9.6288,9.6288,9.6288,9.6288,9.6288,9.6288,9.6288,9.6288,9.6288,9.6288,9.6288,9.6288,9.6288,9.6288,9.6288,9.6288,9.6288,9.6288,9.6288,9.6288,9.6288,9.6288,9.6288,9.6288,9.6288,9.6288,9.6288,9.6288,9.6288,9.6288,9.6288,9.6288,9.6288,9.598,9.5104,9.3557,9.3172,9.4835,9.1941,9.1325,9.4758,9.3441,9.3595,9.6134,9.5441,9.5412,9.6288,9.6288,9.6288,9.6288,9.6288,9.6288,9.6288,9.6288,9.6288,9.6288,9.6288,9.6288,9.6288,9.6288,9.6288,9.6288,9.6288,9.6288,9.6288,9.6288,9.6288,9.6288,9.6288,9.6288,9.6288,9.6288,9.6749,9.7134,9.7134,9.7596,9.798,9.798,9.798,9.798,9.798,9.798,9.798,9.798,9.698,9.6288,9.6288,9.6288,9.6288,9.6288,9.6288,9.6288,9.6288,9.6288,9.6288,9.6288,9.6288,9.6288,9.6288,9.6288,9.6288,9.6288,9.6288,9.6288,9.6288,9.6288,9.6288,9.6288,9.6288,9.6288,9.6288,9.6288,9.6288,9.6288,9.6288,9.6288,9.6288,9.6288,9.6288,9.6288,9.6288,9.6288,9.6288,9.6288,9.6288,9.6288,9.6288,9.6288,9.6288,9.6288,9.6288,9.6288,9.6288,9.6288,9.6288,9.6288,9.6288,9.6288,9.6288,9.6288,9.6288,9.6288,9.6288,9.6288,9.6288,9.6288,9.6288,9.6288,9.6288,9.6211,9.5903,9.5403,9.5288,9.5826,9.3826,9.3441,9.5711,9.3787,9.3364,9.5288,9.5143,9.5412,9.6288,9.6288,9.6288,9.6288,9.6288,9.6288,9.6288,9.6288,9.6288,9.6288,9.6288,9.6288,9.6288,9.6288,9.6288,9.6288,9.6288,9.6288,9.6288,9.6288,9.6288,9.6288,9.6288,9.6288,9.6288,9.725,9.7634,9.798,9.798,9.8442,9.8788,9.8788,9.8788,9.8788,9.8788,9.8788,9.8788,9.8788,9.7865,9.7096,9.6788,9.6749,9.6634,9.6326,9.6288,9.6288,9.6288,9.6288,9.6288,9.6288,9.6288,9.6288,9.6288,9.6288,9.6288,9.6288,9.6288,9.6288,9.6288,9.6288,9.6288,9.6288,9.6288,9.6288,9.6288,9.6288,9.6288,9.6288,9.6288,9.6288,9.6288,9.6288,9.6288,9.6288,9.6288,9.6288,9.6288,9.6288,9.6288,9.6288,9.6288,9.6288,9.6288,9.6288,9.6288,9.6288,9.6288,9.6288,9.6288,9.6288,9.6288,9.6288,9.6288,9.6288,9.6288,9.6288,9.6288,9.6288,9.6288,9.6288,9.6288,9.6288,9.6288,9.6172,9.5865,9.5826,9.5826,9.5826,9.4826,9.4788,9.6211,9.4826,9.4364,9.5451,9.5181,9.5412,9.6288,9.6288,9.6288,9.6288,9.6288,9.6288,9.6288,9.6288,9.6288,9.6288,9.6288,9.6288,9.6288,9.6288,9.6288,9.6288,9.6288,9.6288,9.6288,9.6288,9.6288,9.6288,9.6288,9.6288,9.6288,9.8788,9.8865,9.8904,9.8904,9.8942,9.8981,9.8981,9.8981,9.8981,9.8981,9.8981,9.8981,9.8981,9.8981,9.8634,9.775,9.7634,9.7288,9.6519,9.648,9.6442,9.6403,9.6365,9.6365,9.6288,9.6288,9.6288,9.6288,9.6288,9.6288,9.6288,9.6288,9.6288,9.6288,9.6288,9.6288,9.6288,9.6288,9.6288,9.6288,9.6288,9.6288,9.6288,9.6288,9.6288,9.6288,9.6288,9.6288,9.6288,9.6288,9.6288,9.6288,9.6288,9.6288,9.6288,9.6288,9.6288,9.6288,9.6288,9.6288,9.6288,9.6288,9.6288,9.6288,9.6288,9.6288,9.6288,9.6288,9.6288,9.6288,9.6288,9.6288,9.6288,9.6288,9.6288,9.6288,9.6288,9.6288,9.6019,9.5181,9.5104,9.5104,9.5104,9.5104,9.5451,9.6249,9.6288,9.6288,9.6288,9.5518,9.5441,9.6288,9.6288,9.6288,9.6288,9.6288,9.6288,9.6288,9.6288,9.6288,9.6288,9.6288,9.6288,9.6288,9.6288,9.6288,9.6288,9.6288,9.6288,9.6288,9.6288,9.6288,9.6288,9.6288,9.6288,9.6288,9.8788,9.9336,9.9798,9.9798,10.0289,10.0712,10.0712,10.0712,10.0712,10.0712,10.0712,10.0712,10.0712,10.0712,10.0404,9.9567,9.8865,9.8404,9.8211,9.8211,9.7904,9.725,9.7211,9.6942,9.6326,9.6288,9.6288,9.6288,9.6288,9.6288,9.6288,9.6288,9.6288,9.6288,9.6288,9.6288,9.6288,9.6288,9.6288,9.6288,9.6288,9.6288,9.6288,9.6288,9.6288,9.6288,9.6288,9.6288,9.6288,9.6288,9.6288,9.6288,9.6288,9.6288,9.6288,9.6288,9.6288,9.6288,9.6288,9.6288,9.6288,9.6288,9.6288,9.6288,9.6288,9.6288,9.6288,9.6288,9.6288,9.6288,9.6288,9.6288,9.6288,9.6288,9.6288,9.6288,9.6288,9.6288,9.6211,9.6019,9.598,9.598,9.598,9.598,9.6095,9.6288,9.6288,9.6288,9.6288,9.6095,9.6095,9.6288,9.6288,9.6288,9.6288,9.6288,9.6288,9.6288,9.6288,9.6288,9.6288,9.6288,9.6288,9.6288,9.6288,9.6288,9.6288,9.6288,9.6288,9.6288,9.6288,9.6288,9.6288,9.6288,9.6288,9.6288,9.9942,10.0289,10.0596,10.0596,10.1019,10.1279,10.1279,10.1279,10.1279,10.1279,10.1279,10.1279,10.1279,10.1279,10.1087,10.0712,9.9865,9.9211,9.8827,9.8788,9.8596,9.8096,9.8096,9.7711,9.6865,9.6865,9.6673,9.6288,9.6288,9.6288,9.6288,9.6288,9.6288,9.6288,9.6288,9.6288,9.6288,9.6288,9.6288,9.6288,9.6288,9.6288,9.6288,9.6288,9.6288,9.6288,9.6288,9.6288,9.6288,9.6288,9.6288,9.6288,9.6288,9.6288,9.6288,9.6288,9.6288,9.6288,9.6288,9.6288,9.6288,9.6288,9.6288,9.6288,9.6288,9.6288,9.6288,9.6288,9.6288,9.6288,9.6288,9.6288,9.6288,9.6288,9.6288,9.6288,9.6288,9.6288,9.6288,9.6288,9.6288,9.6288,9.6288,9.6288,9.6288,9.6288,9.6288,9.6288,9.6288,9.6288,9.6288,9.6288,9.6288,9.6288,9.6288,9.6288,9.6288,9.6288,9.6288,9.6288,9.6288,9.6288,9.6288,9.6288,9.6288,9.6288,9.6288,9.6288,9.6288,9.6288,9.6288,9.6288,9.6288,9.6288,9.6288,9.6288,10.1279,10.1279,10.1279,10.1279,10.1279,10.1279,10.1279,10.1279,10.1279,10.1279,10.1279,10.1279,10.1279,10.1279,10.1279,10.1279,10.0712,9.9981,9.9211,9.9173,9.9135,9.8981,9.8981,9.8596,9.7711,9.7557,9.7173,9.648,9.6365,9.6288,9.6288,9.6288,9.6288,9.6288,9.6288,9.6288,9.6288,9.6288,9.6288,9.6288,9.6288,9.6288,9.6288,9.6288,9.6288,9.6288,9.6288,9.6288,9.6288,9.6288,9.6288,9.6288,9.6288,9.6288,9.6288,9.6288,9.6288,9.6288,9.6288,9.6288,9.6288,9.6288,9.6288,9.6288,9.6288,9.6288,9.6288,9.6288,9.6288,9.6288,9.6288,9.6288,9.6288,9.6288,9.6288,9.6288,9.6288,9.6288,9.6288,9.6288,9.6288,9.6288,9.6288,9.6288,9.6288,9.6288,9.6288,9.6288,9.6288,9.6288,9.6288,9.6288,9.6288,9.6288,9.6288,9.6288,9.6288,9.6288,9.6288,9.6288,9.6288,9.6288,9.6288,9.6288,9.6288,9.6288,9.6288,9.6288,9.6288,9.6288,9.6288,9.6288,9.6288,9.6288,9.6288,9.6288,10.1279,10.1279,10.1279,10.1279,10.1279,10.1279,10.1279,10.1279,10.1279,10.1279,10.1279,10.1279,10.1279,10.1279,10.1279,10.1279,10.1212,10.1096,10.0894,10.0894,10.0596,9.9913,9.9913,9.949,9.8634,9.7865,9.7442,9.7326,9.6634,9.6288,9.6288,9.6288,9.6288,9.6288,9.6288,9.6288,9.6288,9.6288,9.6288,9.6288,9.6288,9.6288,9.6288,9.6288,9.6288,9.6288,9.6288,9.6288,9.6288,9.6288,9.6288,9.6288,9.6288,9.6288,9.6288,9.6288,9.6288,9.6288,9.6288,9.6288,9.6288,9.6288,9.6288,9.6288,9.6288,9.6288,9.6288,9.6288,9.6288,9.6288,9.6288,9.6288,9.6288,9.6288,9.6288,9.6288,9.6288,9.6288,9.6288,9.6288,9.6288,9.6288,9.6288,9.6288,9.6288,9.6288,9.6288,9.6288,9.6288,9.6288,9.6288,9.6288,9.6288,9.6288,9.6288,9.6288,9.6288,9.6288,9.6288,9.6288,9.6288,9.6288,9.6288,9.6288,9.6288,9.6288,9.6288,9.6288,9.6288,9.6288,9.6288,9.6288,9.6288,9.6288,9.6288,9.6288,10.1279,10.1279,10.1279,10.1279,10.1279,10.1279,10.1279,10.1279,10.1279,10.1279,10.1279,10.1279,10.1279,10.1279,10.1279,10.1279,10.1279,10.1279,10.1279,10.1279,10.1087,10.0789,10.0712,10.0404,9.9529,9.8634,9.798,9.7519,9.7134,9.6711,9.6288,9.6288,9.6288,9.6288,9.6288,9.6288,9.6288,9.6288,9.6288,9.6288,9.6288,9.6288,9.6288,9.6288,9.6288,9.6288,9.6288,9.6288,9.6288,9.6288,9.6288,9.6288,9.6288,9.6288,9.6288,9.6288,9.6288,9.6288,9.6288,9.6288,9.6288,9.6288,9.6288,9.6288,9.6288,9.6288,9.6288,9.6288,9.6288,9.6288,9.6288,9.6288,9.6288,9.6288,9.6288,9.6288,9.6288,9.6288,9.6288,9.6288,9.6288,9.6288,9.6288,9.6288,9.6288,9.6288,9.6288,9.6288,9.6288,9.6288,9.6288,9.6288,9.6288,9.6288,9.6288,9.6288,9.6288,9.6288,9.6288,9.6288,9.6288,9.6288,9.6288,9.6288,9.6288,9.6288,9.6288,9.6288,9.6288,9.6288,9.6288,9.6288,9.6288,9.6288,9.6288,9.6288,10.1279,10.1279,10.1279,10.1279,10.1279,10.1279,10.1279,10.1279,10.1279,10.1279,10.1279,10.1279,10.1279,10.1279,10.1279,10.1279,10.1279,10.1279,10.1279,10.1279,10.1279,10.1279,10.1279,10.1019,10.0414,9.9529,9.875,9.8096,9.7711,9.7173,9.6557,9.6403,9.6288,9.6288,9.6288,9.6288,9.6288,9.6288,9.6288,9.6288,9.6288,9.6288,9.6288,9.6288,9.6288,9.6288,9.6288,9.6288,9.6288,9.6288,9.6288,9.6288,9.6288,9.6288,9.6288,9.6288,9.6288,9.6288,9.6288,9.6288,9.6288,9.6288,9.6288,9.6288,9.6288,9.6288,9.6288,9.6288,9.6288,9.6288,9.6288,9.6288,9.6288,9.6288,9.6288,9.6288,9.6288,9.6288,9.6288,9.6288,9.6288,9.6288,9.6288,9.6288,9.6288,9.6288,9.6288,9.6288,9.6288,9.6288,9.6288,9.6288,9.6288,9.6288,9.6288,9.6288,9.6288,9.6288,9.6288,9.6288,9.6288,9.6288,9.6288,9.6288,9.6288,9.6288,9.6288,9.6288,9.6288,9.6288,9.6288,9.6288,9.6288,9.6288,9.6288,9.6288,10.1279,10.1279,10.1279,10.1279,10.1279,10.1279,10.1279,10.1279,10.1279,10.1279,10.1279,10.1279,10.1279,10.1279,10.1279,10.1279,10.1279,10.1279,10.1279,10.1279,10.1279,10.1279,10.1279,10.1289,10.1202,10.0404,9.999,9.9913,9.8288,9.748,9.7403,9.6634,9.6288,9.6288,9.6288,9.6288,9.6288,9.6288,9.6288,9.6288,9.6288,9.6288,9.6288,9.6288,9.6288,9.6288,9.6288,9.6288,9.6288,9.6288,9.6288,9.6288,9.6288,9.6288,9.6288,9.6288,9.6288,9.6288,9.6288,9.6288,9.6288,9.6288,9.6288,9.6288,9.6288,9.6288,9.6288,9.6288,9.6288,9.6288,9.6288,9.6288,9.6288,9.6288,9.6288,9.6288,9.6288,9.6288,9.6288,9.6288,9.6288,9.6288,9.6288,9.6288,9.6288,9.6288,9.6288,9.6288,9.6288,9.6288,9.6288,9.6288,9.6288,9.6288,9.6288,9.6288,9.6288,9.6288,9.6288,9.6288,9.6288,9.6288,9.6288,9.6288,9.6288,9.6288,9.6288,9.6288,9.6288,9.6288,9.6288,9.6288,9.6288,9.6288,9.6288,9.6288,10.1279,10.1279,10.1279,10.1279,10.1279,10.1279,10.1279,10.1279,10.1279,10.1279,10.1279,10.1279,10.1279,10.1279,10.1279,10.1279,10.1279,10.1279,10.1279,10.1279,10.1279,10.1279,10.1279,10.1279,10.1279,10.1019,10.0596,10.0106,9.8913,9.8019,9.748,9.6673,9.6288,9.6288,9.6288,9.6288,9.6288,9.6288,9.6288,9.6288,9.6288,9.6288,9.6288,9.6288,9.6288,9.6288,9.6288,9.6288,9.6288,9.6288,9.6288,9.6288,9.6288,9.6288,9.6288,9.6288,9.6288,9.6288,9.6288,9.6288,9.6288,9.6288,9.6288,9.6288,9.6288,9.6288,9.6288,9.6288,9.6288,9.6288,9.6288,9.6288,9.6288,9.6288,9.6288,9.6288,9.6288,9.6288,9.6288,9.6288,9.6288,9.6288,9.6288,9.6288,9.6288,9.6288,9.6288,9.6288,9.6288,9.6288,9.6288,9.6288,9.6288,9.6288,9.6288,9.6288,9.6288,9.6288,9.6288,9.6288,9.6288,9.6288,9.6288,9.6288,9.6288,9.6288,9.6288,9.6288,9.6288,9.6288,9.6288,9.6288,9.6288,9.6288,9.6288,9.6288,10.1279,10.1279,10.1279,10.1279,10.1279,10.1279,10.1279,10.1279,10.1279,10.1279,10.1279,10.1279,10.1279,10.1279,10.1279,10.1279,10.1279,10.1279,10.1279,10.1279,10.1279,10.1279,10.1279,10.1279,10.1279,10.1279,10.1019,10.0491,9.9365,9.8481,9.7865,9.6788,9.6288,9.6288,9.6288,9.6288,9.6288,9.6288,9.6288,9.6288,9.6288,9.6288,9.6288,9.6288,9.6288,9.6288,9.6288,9.6288,9.6288,9.6288,9.6288,9.6288,9.6288,9.6288,9.6288,9.6288,9.6288,9.6288,9.6288,9.6288,9.6288,9.6288,9.6288,9.6288,9.6288,9.6288,9.6288,9.6288,9.6288,9.6288,9.6288,9.6288,9.6288,9.6288,9.6288,9.6288,9.6288,9.6288,9.6288,9.6288,9.6288,9.6288,9.6288,9.6288,9.6288,9.6288,9.6288,9.6288,9.6288,9.6288,9.6288,9.6288,9.6288,9.6288,9.6288,9.6288,9.6288,9.6288,9.6288,9.6288,9.6288,9.6288,9.6288,9.6288,9.6288,9.6288,9.6288,9.6288,9.6288,9.6288,9.6288,9.6288,9.6288,9.6288,9.6288,9.6288,10.1279,10.1279,10.1279,10.1279,10.1279,10.1279,10.1279,10.1279,10.1279,10.1279,10.1279,10.1279,10.1279,10.1279,10.1279,10.1279,10.1279,10.1279,10.1279,10.1279,10.1279,10.1279,10.1279,10.1279,10.1279,10.1279,10.1279,10.1279,9.9635,9.8788,9.875,9.7096,9.6288,9.6288,9.6288,9.6288,9.6288,9.6288,9.6288,9.6288,9.6288,9.6288,9.6288,9.6288,9.6288,9.6288,9.6288,9.6288,9.6288,9.6288,9.6288,9.6288,9.6288,9.6288,9.6288,9.6288,9.6288,9.6288,9.6288,9.6288,9.6288,9.6288,9.6288,9.6288,9.6288,9.6288,9.6288,9.6288,9.6288,9.6288,9.6288,9.6288,9.6288,9.6288,9.6288,9.6288,9.6288,9.6288,9.6288,9.6288,9.6288,9.6288,9.6288,9.6288,9.6288,9.6288,9.6288,9.6288,9.6288,9.6288,9.6288,9.6288,9.6288,9.6288,9.6288,9.6288,9.6288,9.6288,9.6288,9.6288,9.6288,9.6288,9.6288,9.6288,9.6288,9.6288,9.6288,9.6288,9.6288,9.6288,9.6288,9.6288,9.6288,9.6288,9.6288,9.6288,10.1279,10.1279,10.1279,10.1279,10.1279,10.1279,10.1279,10.1279,10.1279,10.1279,10.1279,10.1279,10.1279,10.1279,10.1279,10.1279,10.1279,10.1279,10.1279,10.1279,10.1279,10.1279,10.1279,10.1279,10.1279,10.1279,10.1279,10.1279,9.9635,9.8788,9.875,9.7096,9.6288,9.6288,9.6288,9.6288,9.6288,9.6288,9.6288,9.6288,9.6288,9.6288,9.6288,9.6288,9.6288,9.6288,9.6288,9.6288,9.6288,9.6288,9.6288,9.6288,9.6288,9.6288,9.6288,9.6288,9.6288,9.6288,9.6288,9.6288,9.6288,9.6288,9.6288,9.6288,9.6288,9.6288,9.6288,9.6288,9.6288,9.6288,9.6288,9.6288,9.6288,9.6288,9.6288,9.6288,9.6288,9.6288,9.6288,9.6288,9.6288,9.6288,9.6288,9.6288,9.6288,9.6288,9.6288,9.6288,9.6288,9.6288,9.6288,9.6288,9.6288,9.6288,9.6288,9.6288,9.6288,9.6288,9.6288,9.6288,9.6288,9.6288,9.6288,9.6288,9.6288,9.6288,9.6288,9.6288,9.6288,9.6288,9.6288,9.6288,9.6288,9.6288,9.6288,9.6288,10.1279,10.1279,10.1279,10.1279,10.1279,10.1279,10.1279,10.1279,10.1279,10.1279,10.1279,10.1279,10.1279,10.1279,10.1279,10.1279,10.1279,10.1212,10.0789,10.0789,10.0712,10.0289,10.0289,10.0596,10.1279,10.1019,10.0789,10.0789,9.9135,9.8288,9.825,9.6903,9.6288,9.6288,9.6288,9.6288,9.6288,9.6288,9.6288,9.6288,9.6288,9.6288,9.6288,9.6288,9.6288,9.6288,9.6288,9.6288,9.6288,9.6288,9.6288,9.6288,9.6288,9.6288,9.6288,9.6288,9.6288,9.6288,9.6288,9.6288,9.6288,9.6288,9.6288,9.6288,9.6288,9.6288,9.6288,9.6288,9.6288,9.6288,9.6288,9.6288,9.6288,9.6288,9.6288,9.6288,9.6288,9.6288,9.6288,9.6288,9.6288,9.6288,9.6288,9.6288,9.6288,9.6288,9.6288,9.6288,9.6288,9.6288,9.6288,9.6288,9.6288,9.6288,9.6288,9.6288,9.6288,9.6288,9.6288,9.6288,9.6288,9.6288,9.6288,9.6288,9.6288,9.6288,9.6288,9.6288,9.6288,9.6288,9.6288,9.6288,9.6288,9.6288,9.6288,9.6288,10.1279,10.1279,10.1279,10.1279,10.1279,10.1279,10.1279,10.1279,10.1279,10.1279,10.1279,10.1279,10.1279,10.1202,10.1212,10.1212,10.1087,10.0789,9.999,9.999,9.9644,9.8827,9.8788,9.9519,10.101,10.0404,9.999,9.999,9.8327,9.7519,9.748,9.6673,9.6288,9.6288,9.6288,9.6288,9.6288,9.6288,9.6288,9.6288,9.6288,9.6288,9.6288,9.6288,9.6288,9.6288,9.6288,9.6288,9.6288,9.6288,9.6288,9.6288,9.6288,9.6288,9.6288,9.6288,9.6288,9.6288,9.6288,9.6288,9.6288,9.6288,9.6288,9.6288,9.6288,9.6288,9.6288,9.6288,9.6288,9.6288,9.6288,9.6288,9.6288,9.6288,9.6288,9.6288,9.6288,9.6288,9.6288,9.6288,9.6288,9.6288,9.6288,9.6288,9.6288,9.6288,9.6288,9.6288,9.6288,9.6288,9.6288,9.6288,9.6288,9.6288,9.6288,9.6288,9.6288,9.6288,9.6288,9.6288,9.6288,9.6288,9.6288,9.6288,9.6288,9.6288,9.6288,9.6288,9.6288,9.6288,9.6288,9.6288,9.6288,9.6288,9.6288,9.6288,10.1279,10.1279,10.1279,10.1279,10.1279,10.1279,10.1279,10.1279,10.1279,10.1279,10.1279,10.1279,10.1279,10.0712,10.0414,10.0414,9.975,9.925,9.9096,9.9067,9.8981,9.8788,9.8788,9.8981,9.9327,9.9173,9.9067,9.9067,9.8019,9.7519,9.748,9.6673,9.6288,9.6288,9.6288,9.6288,9.6288,9.6288,9.6288,9.6288,9.6288,9.6288,9.6288,9.6288,9.6288,9.6288,9.6288,9.6288,9.6288,9.6288,9.6288,9.6288,9.6288,9.6288,9.6288,9.6288,9.6288,9.6288,9.6288,9.6288,9.6288,9.6288,9.6288,9.6288,9.6288,9.6288,9.6288,9.6288,9.6288,9.6288,9.6288,9.6288,9.6288,9.6288,9.6288,9.6288,9.6288,9.6288,9.6288,9.6288,9.6288,9.6288,9.6288,9.6288,9.6288,9.6288,9.6288,9.6288,9.6288,9.6288,9.6288,9.6288,9.6288,9.6288,9.6288,9.6288,9.6288,9.6288,9.6288,9.6288,9.6288,9.6288,9.6288,9.6288,9.6288,9.6288,9.6288,9.6288,9.6288,9.6288,9.6288,9.6288,9.6288,9.6288,9.6288,9.6288,10.1289,10.1279,10.1279,10.1279,10.1279,10.1279,10.1279,10.1279,10.1212,10.0789,10.0712,10.0596,10.0212,9.9712,9.949,9.949,9.9058,9.8634,9.8211,9.8173,9.8019,9.7634,9.7596,9.7596,9.7596,9.7596,9.7788,9.8173,9.7326,9.6942,9.6903,9.6519,9.6288,9.6288,9.6288,9.6288,9.6288,9.6288,9.6288,9.6288,9.6288,9.6288,9.6288,9.6288,9.6288,9.6288,9.6288,9.6288,9.6288,9.6288,9.6288,9.6288,9.6288,9.6288,9.6288,9.6288,9.6288,9.6288,9.6288,9.6288,9.6288,9.6288,9.6288,9.6288,9.6288,9.6288,9.6288,9.6288,9.6288,9.6288,9.6288,9.6288,9.6288,9.6288,9.6288,9.6288,9.6288,9.6288,9.6288,9.6288,9.6288,9.6288,9.6288,9.6288,9.6288,9.6288,9.6288,9.6288,9.6288,9.6288,9.6288,9.6288,9.6288,9.6288,9.6288,9.6288,9.6288,9.6288,9.6288,9.6288,9.6288,9.6288,9.6288,9.6288,9.6288,9.6288,9.6288,9.6288,9.6288,9.6288,9.6288,9.6288,9.6288,9.6288,9.6288,9.6288,10.1504,10.1387,10.1387,10.1387,10.1391,10.1413,10.1413,10.1183,10.0904,10.0183,9.999,9.9606,9.8865,9.8673,9.8519,9.8365,9.8365,9.8057,9.7326,9.7288,9.7019,9.6326,9.6288,9.6288,9.6288,9.6288,9.6634,9.7288,9.6634,9.6288,9.6288,9.6288,9.6288,9.6288,9.6288,9.6288,9.6288,9.6288,9.6288,9.6288,9.6288,9.6288,9.6288,9.6288,9.6288,9.6288,9.6288,9.6288,9.6288,9.6288,9.6288,9.6288,9.6288,9.6288,9.6288,9.6288,9.6288,9.6288,9.6288,9.6288,9.6288,9.6288,9.6288,9.6288,9.6288,9.6288,9.6288,9.6288,9.6288,9.6288,9.6288,9.6288,9.6288,9.6288,9.6288,9.6288,9.6288,9.6288,9.6288,9.6288,9.6288,9.6288,9.6288,9.6288,9.6288,9.6288,9.6288,9.6288,9.6288,9.6288,9.6288,9.6288,9.6288,9.6288,9.6288,9.6288,9.6288,9.6288,9.6288,9.6288,9.6288,9.6288,9.6288,9.6288,9.6288,9.6288,9.6288,9.6288,9.6288,9.6288,9.6288,9.6288,9.6288,9.6288,9.6288,9.6288,10.2006,10.2001,10.2001,10.2001,10.1802,10.1618,10.1618,10.0912,10.0221,10.0106,9.9452,9.8942,9.8788,9.8134,9.7403,9.6711,9.6634,9.6596,9.648,9.648,9.6403,9.6288,9.6288,9.6288,9.6288,9.6288,9.6365,9.648,9.6365,9.6288,9.6288,9.6288,9.6288,9.6288,9.6288,9.6288,9.6288,9.6288,9.6288,9.6288,9.6288,9.6288,9.6288,9.6288,9.6288,9.6288,9.6288,9.6288,9.6288,9.6288,9.6288,9.6288,9.6288,9.6288,9.6288,9.6288,9.6288,9.6288,9.6288,9.6288,9.6288,9.6288,9.6288,9.6288,9.6288,9.6288,9.6288,9.6288,9.6288,9.6288,9.6288,9.6288,9.6288,9.6288,9.6288,9.6288,9.6288,9.6288,9.6288,9.6288,9.6288,9.6288,9.6288,9.6288,9.6288,9.6288,9.6288,9.6288,9.6288,9.6288,9.6288,9.6288,9.6288,9.6288,9.6288,9.6288,9.6288,9.6288,9.6288,9.6288,9.6288,9.6288,9.6288,9.6288,9.6288,9.6288,9.6288,9.6288,9.6288,9.6288,9.6288,9.6288,9.6288,9.6288,9.6288,9.6288,10.2099,10.2115,10.2115,10.2115,10.1617,10.121,10.121,10.0386,9.9549,9.8932,9.8552,9.8074,9.747,9.7057,9.6673,9.6326,9.6288,9.6288,9.6288,9.6288,9.6288,9.6288,9.6288,9.6288,9.6288,9.6288,9.6288,9.6288,9.6288,9.6288,9.6288,9.6288,9.6288,9.6288,9.6288,9.6288,9.6288,9.6288,9.6288,9.6288,9.6288,9.6288,9.6288,9.6288,9.6288,9.6288,9.6288,9.6288,9.6288,9.6288,9.6288,9.6288,9.6288,9.6288,9.6288,9.6288,9.6288,9.6288,9.6288,9.6288,9.6288,9.6288,9.6288,9.6288,9.6288,9.6288,9.6288,9.6288,9.6288,9.6288,9.6288,9.6288,9.6288,9.6288,9.6288,9.6288,9.6288,9.6288,9.6288,9.6288,9.6288,9.6288,9.6288,9.6288,9.6288,9.6288,9.6288,9.6288,9.6288,9.6288,9.6288,9.6288,9.6288,9.6288,9.6288,9.6288,9.6288,9.6288,9.6288,9.6288,9.6288,9.6288,9.6288,9.6288,9.6288,9.6288,9.6288,9.6288,9.6288,9.6288,9.6288,9.6288,9.6288,9.6288,9.6288,9.6288]}]]